[[{"header":{"parameterUnit":"m.s-1","parameterCategory":1,"la1":30.6,"la2":28.766,"lo1":-90.7593,"lo2":-88.6598,"dx":0.0162,"dy":0.0183,"nx":116,"ny":114,"refTime":"2022-12-05T06:00:00:Z","depth":0,"parameterNumber":2,"parameterNumberName":"U-component_of_WINDS"},"data":[0.0,0.0,0.0,0.0,0.0,0.0,0.0,0.0,0.0,0.0,0.0,0.0,0.0,0.0,0.0,0.0,0.0,0.0,0.0,0.0,0.0,0.0,0.0,0.0,0.0,0.0,0.0,0.0,0.0,0.0,0.0,0.0,0.0,0.0,0.0,0.0,0.0,0.0,0.0,0.0,0.0,0.0,0.0,0.0,0.0,0.0,0.0,0.0,0.0,0.0,0.0,0.0,0.0,0.0,0.0,0.0,0.0,0.0,0.0,0.0,0.0,0.0,0.0,0.0,0.0,0.0,0.0,0.0,0.0,0.0,0.0,0.0,0.0,0.0,0.0,0.0,0.0,0.0,0.0,0.0,0.0,0.0,0.0,0.0,0.0,0.0,0.0,0.0,0.0,0.0,0.0,0.0,0.0,0.0,0.0,0.0,0.0,0.0,0.0,0.0,0.0,0.0,0.0,0.0,0.0,0.0,0.0,0.0,0.0,0.0,0.0,0.0,0.0,0.0,0.0,0.0,0.0,0.0,0.0,0.0,0.0,0.0,0.0,0.0,0.0,0.0,0.0,0.0,0.0,0.0,0.0,0.0,0.0,0.0,0.0,0.0,0.0,0.0,0.0,0.0,0.0,0.0,0.0,0.0,0.0,0.0,0.0,0.0,0.0,0.0,0.0,0.0,0.0,0.0,0.0,0.0,0.0,0.0,0.0,0.0,0.0,0.0,0.0,0.0,0.0,0.0,0.0,0.0,0.0,0.0,0.0,0.0,0.0,0.0,0.0,0.0,0.0,0.0,0.0,0.0,0.0,0.0,0.0,0.0,0.0,0.0,0.0,0.0,0.0,0.0,0.0,0.0,0.0,0.0,0.0,0.0,0.0,0.0,0.0,0.0,0.0,0.0,0.0,0.0,0.0,0.0,0.0,0.0,0.0,0.0,0.0,0.0,0.0,0.0,0.0,0.0,0.0,0.0,0.0,0.0,0.0,0.0,0.0,0.0,0.0,0.0,0.0,0.0,0.0,0.0,0.0,0.0,0.0,0.0,0.0,0.0,0.0,0.0,0.0,0.0,0.0,0.0,0.0,0.0,0.0,0.0,0.0,0.0,0.0,0.0,0.0,0.0,0.0,0.0,0.0,0.0,0.0,0.0,0.0,0.0,0.0,0.0,0.0,0.0,0.0,0.0,0.0,0.0,0.0,0.0,0.0,0.0,0.0,0.0,0.0,0.0,0.0,0.0,0.0,0.0,0.0,0.0,0.0,0.0,0.0,0.0,0.0,0.0,0.0,0.0,0.0,0.0,0.0,0.0,0.0,0.0,0.0,0.0,0.0,0.0,0.0,0.0,0.0,0.0,0.0,0.0,0.0,0.0,0.0,0.0,0.0,0.0,0.0,0.0,0.0,0.0,0.0,0.0,0.0,0.0,0.0,0.0,0.0,0.0,0.0,0.0,0.0,0.0,0.0,0.0,0.0,0.0,0.0,0.0,0.0,0.0,0.0,0.0,0.0,0.0,0.0,0.0,0.0,0.0,0.0,0.0,0.0,0.0,0.0,0.0,0.0,0.0,0.0,0.0,0.0,0.0,0.0,0.0,0.0,0.0,0.0,0.0,0.0,0.0,0.0,0.0,0.0,0.0,0.0,0.0,0.0,0.0,0.0,0.0,0.0,0.0,0.0,0.0,0.0,0.0,0.0,0.0,0.0,0.0,0.0,0.0,0.0,0.0,0.0,0.0,0.0,0.0,0.0,0.0,0.0,0.0,0.0,0.0,0.0,0.0,0.0,0.0,0.0,0.0,0.0,0.0,0.0,0.0,0.0,0.0,0.0,0.0,0.0,0.0,0.0,0.0,0.0,0.0,0.0,0.0,0.0,0.0,0.0,0.0,0.0,0.0,0.0,0.0,0.0,0.0,0.0,0.0,0.0,0.0,0.0,0.0,0.0,0.0,0.0,0.0,0.0,0.0,0.0,0.0,0.0,0.0,0.0,0.0,0.0,0.0,0.0,0.0,0.0,0.0,0.0,0.0,0.0,0.0,0.0,0.0,0.0,0.0,0.0,0.0,0.0,0.0,0.0,0.0,0.0,0.0,0.0,0.0,0.0,0.0,0.0,0.0,0.0,0.0,0.0,0.0,0.0,0.0,0.0,0.0,0.0,0.0,0.0,0.0,0.0,0.0,0.0,0.0,0.0,0.0,0.0,0.0,0.0,0.0,0.0,0.0,0.0,0.0,0.0,0.0,0.0,0.0,0.0,0.0,0.0,0.0,0.0,0.0,0.0,0.0,0.0,0.0,0.0,0.0,0.0,0.0,0.0,0.0,0.0,0.0,0.0,0.0,0.0,0.0,0.0,0.0,0.0,0.0,0.0,0.0,0.0,0.0,0.0,0.0,0.0,0.0,0.0,0.0,0.0,0.0,0.0,0.0,0.0,0.0,0.0,0.0,0.0,0.0,0.0,0.0,0.0,0.0,0.0,0.0,0.0,0.0,0.0,0.0,0.0,0.0,0.0,0.0,0.0,0.0,0.0,0.0,0.0,0.0,0.0,0.0,0.0,0.0,0.0,0.0,0.0,0.0,0.0,0.0,0.0,0.0,0.0,0.0,0.0,0.0,0.0,0.0,0.0,0.0,0.0,0.0,0.0,0.0,0.0,0.0,0.0,0.0,0.0,0.0,0.0,0.0,0.0,0.0,0.0,0.0,0.0,0.0,0.0,0.0,0.0,0.0,0.0,0.0,0.0,0.0,0.0,0.0,0.0,0.0,0.0,0.0,0.0,0.0,0.0,0.0,0.0,0.0,0.0,0.0,0.0,0.0,0.0,0.0,0.0,0.0,0.0,0.0,0.0,0.0,0.0,0.0,0.0,0.0,0.0,0.0,0.0,0.0,0.0,0.0,0.0,0.0,0.0,0.0,0.0,0.0,0.0,0.0,0.0,0.0,0.0,0.0,0.0,0.0,0.0,0.0,0.0,0.0,0.0,0.0,0.0,0.0,0.0,0.0,0.0,0.0,0.0,0.0,0.0,0.0,0.0,0.0,0.0,0.0,0.0,0.0,0.0,0.0,0.0,0.0,0.0,0.0,0.0,0.0,0.0,0.0,0.0,0.0,0.0,0.0,0.0,0.0,0.0,0.0,0.0,0.0,0.0,0.0,0.0,0.0,0.0,0.0,0.0,0.0,0.0,0.0,0.0,0.0,0.0,0.0,0.0,0.0,0.0,0.0,0.0,0.0,0.0,0.0,0.0,0.0,0.0,0.0,0.0,0.0,0.0,0.0,0.0,0.0,0.0,0.0,0.0,0.0,0.0,0.0,0.0,0.0,0.0,0.0,0.0,0.0,0.0,0.0,0.0,0.0,0.0,0.0,0.0,0.0,0.0,0.0,0.0,0.0,0.0,0.0,0.0,0.0,0.0,0.0,0.0,0.0,0.0,0.0,0.0,0.0,0.0,0.0,0.0,0.0,0.0,0.0,0.0,0.0,0.0,0.0,0.0,0.0,0.0,0.0,0.0,0.0,0.0,0.0,0.0,0.0,0.0,0.0,0.0,0.0,0.0,0.0,0.0,0.0,0.0,0.0,0.0,0.0,0.0,0.0,0.0,0.0,0.0,0.0,0.0,0.0,0.0,0.0,0.0,0.0,0.0,0.0,0.0,0.0,0.0,0.0,0.0,0.0,0.0,0.0,0.0,0.0,0.0,0.0,0.0,0.0,0.0,0.0,0.0,0.0,0.0,0.0,0.0,0.0,0.0,0.0,0.0,0.0,0.0,0.0,0.0,0.0,0.0,0.0,0.0,0.0,0.0,0.0,0.0,0.0,0.0,0.0,0.0,0.0,0.0,0.0,0.0,0.0,0.0,0.0,0.0,0.0,0.0,0.0,0.0,0.0,0.0,0.0,0.0,0.0,0.0,0.0,0.0,0.0,0.0,0.0,0.0,0.0,0.0,0.0,0.0,0.0,0.0,0.0,0.0,0.0,0.0,0.0,0.0,0.0,0.0,0.0,0.0,0.0,0.0,0.0,0.0,0.0,0.0,0.0,0.0,0.0,0.0,0.0,0.0,0.0,0.0,0.0,0.0,0.0,0.0,0.0,0.0,0.0,0.0,0.0,0.0,0.0,0.0,0.0,0.0,0.0,0.0,0.0,0.0,0.0,0.0,0.0,0.0,0.0,0.0,0.0,0.0,0.0,0.0,0.0,0.0,0.0,0.0,0.0,0.0,0.0,0.0,0.0,0.0,0.0,0.0,0.0,0.0,0.0,0.0,0.0,0.0,0.0,0.0,0.0,0.0,0.0,0.0,0.0,0.0,0.0,0.0,0.0,0.0,0.0,0.0,0.0,0.0,0.0,0.0,0.0,0.0,0.0,0.0,0.0,0.0,0.0,0.0,0.0,0.0,0.0,0.0,0.0,0.0,0.0,0.0,0.0,0.0,0.0,0.0,0.0,0.0,0.0,0.0,0.0,0.0,0.0,0.0,0.0,0.0,0.0,0.0,0.0,0.0,0.0,0.0,0.0,0.0,0.0,0.0,0.0,0.0,0.0,0.0,0.0,0.0,0.0,0.0,0.0,0.0,0.0,0.0,0.0,0.0,0.0,0.0,0.0,0.0,0.0,0.0,0.0,0.0,0.0,0.0,0.0,0.0,0.0,0.0,0.0,0.0,0.0,0.0,0.0,0.0,0.0,0.0,0.0,0.0,0.0,0.0,0.0,0.0,0.0,0.0,0.0,0.0,0.0,0.0,0.0,0.0,0.0,0.0,0.0,0.0,0.0,0.0,0.0,0.0,0.0,0.0,0.0,0.0,0.0,0.0,0.0,0.0,0.0,0.0,0.0,0.0,0.0,0.0,0.0,0.0,0.0,0.0,0.0,0.0,0.0,0.0,0.0,0.0,0.0,0.0,0.0,0.0,0.0,0.0,0.0,0.0,0.0,0.0,0.0,0.0,0.0,0.0,0.0,0.0,0.0,0.0,0.0,0.0,0.0,0.0,0.0,0.0,0.0,0.0,0.0,0.0,0.0,0.0,0.0,0.0,0.0,0.0,0.0,0.0,0.0,0.0,0.0,0.0,0.0,0.0,0.0,0.0,0.0,0.0,0.0,0.0,0.0,0.0,0.0,0.0,0.0,0.0,0.0,0.0,0.0,0.0,0.0,0.0,0.0,0.0,0.0,0.0,0.0,0.0,0.0,0.0,0.0,0.0,0.0,0.0,0.0,0.0,0.0,0.0,0.0,0.0,0.0,0.0,0.0,0.0,0.0,0.0,0.0,0.0,0.0,0.0,0.0,0.0,0.0,0.0,0.0,0.0,0.0,0.0,0.0,0.0,0.0,0.0,0.0,0.0,0.0,0.0,0.0,0.0,0.0,0.0,0.0,0.0,0.0,0.0,0.0,0.0,0.0,0.0,0.0,0.0,0.0,0.0,0.0,0.0,0.0,0.0,0.0,0.0,0.0,0.0,0.0,0.0,0.0,0.0,0.0,0.0,0.0,0.0,0.0,0.0,0.0,0.0,0.0,0.0,0.0,0.0,0.0,0.0,0.0,0.0,0.0,0.0,0.0,0.0,0.0,0.0,0.0,0.0,0.0,0.0,0.0,0.0,0.0,0.0,0.0,0.0,0.0,0.0,0.0,0.0,0.0,0.0,0.0,0.0,0.0,0.0,0.0,0.0,0.0,0.0,0.0,0.0,0.0,0.0,0.0,0.0,0.0,0.0,0.0,0.0,0.0,0.0,0.0,0.0,0.0,0.0,0.0,0.0,0.0,0.0,0.0,0.0,0.0,0.0,0.0,0.0,0.0,0.0,0.0,0.0,0.0,0.0,0.0,0.0,0.0,0.0,0.0,0.0,0.0,0.0,0.0,0.0,0.0,0.0,0.0,0.0,0.0,0.0,0.0,0.0,0.0,0.0,0.0,0.0,0.0,0.0,0.0,0.0,0.0,0.0,0.0,0.0,0.0,0.0,0.0,0.0,0.0,0.0,0.0,0.0,0.0,0.0,0.0,0.0,0.0,0.0,0.0,0.0,0.0,0.0,0.0,0.0,0.0,0.0,0.0,0.0,0.0,0.0,0.0,0.0,0.0,0.0,0.0,0.0,0.0,0.0,0.0,0.0,0.0,-0.4451,0.0,0.0,0.0,0.0,0.0,0.0,0.0,0.0,0.0,0.0,0.0,0.0,0.0,0.0,0.0,0.0,0.0,0.0,0.0,0.0,0.0,0.0,0.0,0.0,-0.1706,-0.1718,-0.1748,-0.1668,0.0,0.0,0.0,0.0,0.0,0.0,0.0,0.0,0.0,-0.1759,-0.1744,-0.1971,-0.2028,-0.2055,-0.2239,-0.2353,-0.2501,0.0,0.0,0.0,0.0,0.0,0.0,0.0,0.0,0.0,0.0,0.0,0.0,0.0,0.0,0.0,0.0,0.0,0.0,0.0,0.0,0.0,0.0,0.0,0.0,0.0,0.0,0.0,0.0,0.0,0.0,0.0,0.0,0.0,0.0,0.0,0.0,0.0,0.0,0.0,0.0,0.0,0.0,0.0,0.0,0.0,0.0,0.0,0.0,0.0,0.0,0.0,0.0,0.0,0.0,0.0,0.0,0.0,0.0,0.0,0.0,0.0,0.0,0.0,0.0,0.0,0.0,0.0,0.0,0.0,0.0,0.0,-0.4677,0.0,0.0,0.0,0.0,0.0,0.0,0.0,0.0,0.0,0.0,0.0,0.0,0.0,0.0,0.0,0.0,0.0,0.0,0.0,0.0,0.0,-0.1714,-0.1734,-0.1737,-0.1762,-0.1823,-0.1726,-0.1683,-0.1733,-0.168,0.0,0.0,0.0,0.0,-0.1631,-0.1691,-0.1785,-0.1913,-0.2015,-0.2149,-0.2236,-0.2358,-0.2318,-0.2254,-0.245,0.0,0.0,0.0,0.0,0.0,0.0,0.0,0.0,0.0,0.0,0.0,0.0,0.0,0.0,0.0,0.0,0.0,0.0,0.0,0.0,0.0,0.0,0.0,0.0,0.0,0.0,0.0,0.0,0.0,0.0,0.0,0.0,0.0,0.0,0.0,0.0,0.0,0.0,0.0,0.0,0.0,0.0,0.0,0.0,0.0,0.0,0.0,0.0,0.0,0.0,0.0,0.0,0.0,0.0,0.0,0.0,0.0,0.0,0.0,0.0,0.0,0.0,0.0,0.0,-0.4858,-0.417,-0.4027,-0.3652,-0.3131,-0.4477,-0.4595,-0.3878,0.0,0.0,0.0,0.0,0.0,0.0,0.0,0.0,0.0,0.0,0.0,0.0,0.0,0.0,0.0,0.0,0.0,0.0,0.0,0.0,-0.1745,-0.1847,-0.1858,-0.1883,-0.1943,-0.1886,-0.185,-0.1857,-0.1805,0.0,0.0,0.0,-0.1695,-0.1695,-0.1753,-0.1868,-0.2103,-0.2308,-0.2478,-0.2555,-0.2563,-0.2545,-0.2497,-0.2633,-0.2616,-0.2603,0.0,0.0,0.0,0.0,0.0,0.0,0.0,0.0,0.0,0.0,0.0,0.0,0.0,0.0,0.0,0.0,0.0,0.0,0.0,0.0,0.0,0.0,0.0,0.0,0.0,0.0,0.0,0.0,0.0,0.0,0.0,0.0,0.0,0.0,0.0,0.0,0.0,0.0,0.0,0.0,0.0,-0.5814,-0.516,0.0,0.0,0.0,0.0,0.0,0.0,0.0,0.0,0.0,0.0,0.0,0.0,0.0,0.0,-0.748,-0.73,-0.6639,-0.5542,-0.4989,-0.4218,-0.3226,-0.3276,-0.3214,-0.314,-0.3367,0.0,-0.3219,-0.322,0.0,0.0,0.0,0.0,0.0,0.0,0.0,0.0,0.0,0.0,0.0,0.0,0.0,0.0,0.0,0.0,0.0,0.0,0.0,0.0,0.0,-0.1902,-0.1944,-0.2004,-0.1985,-0.1956,-0.1923,-0.1898,0.0,0.0,-0.1856,-0.1856,-0.1856,-0.195,-0.2101,-0.2315,-0.2549,-0.2677,-0.2704,-0.2738,-0.2668,-0.249,-0.2689,-0.2683,-0.2437,-0.2414,0.0,0.0,0.0,0.0,0.0,0.0,0.0,0.0,0.0,0.0,0.0,0.0,0.0,0.0,0.0,0.0,0.0,0.0,0.0,0.0,0.0,0.0,0.0,0.0,0.0,0.0,0.0,0.0,0.0,0.0,0.0,0.0,0.0,0.0,0.0,0.0,0.0,0.0,0.0,-0.4591,-0.4552,-0.6421,-0.5635,-0.5079,0.0,0.0,0.0,0.0,0.0,0.0,0.0,0.0,0.0,-0.7476,-0.643,-0.6005,-0.6128,-0.5407,-0.4693,-0.4148,-0.3915,-0.3592,-0.3203,-0.323,-0.326,-0.3293,-0.3285,-0.3271,-0.3247,-0.315,-0.306,-0.2974,0.0,0.0,0.0,0.0,0.0,-0.273,0.0,0.0,0.0,0.0,0.0,0.0,0.0,0.0,0.0,0.0,0.0,0.0,-0.1968,-0.2017,-0.2012,-0.2096,-0.2078,-0.2044,-0.2002,-0.1985,-0.2017,-0.202,-0.2082,-0.2082,-0.2082,-0.2168,-0.2347,-0.2557,-0.2725,-0.2807,-0.2808,-0.2853,-0.2784,-0.2512,-0.2826,-0.2612,-0.2115,-0.2279,-0.2231,-0.2142,0.0,0.0,0.0,0.0,0.0,0.0,0.0,0.0,0.0,0.0,0.0,0.0,0.0,0.0,0.0,0.0,0.0,0.0,0.0,0.0,0.0,0.0,0.0,0.0,0.0,0.0,0.0,0.0,0.0,0.0,0.0,0.0,0.0,0.0,0.0,0.0,0.0,-0.4259,-0.4201,-0.7241,-0.6089,-0.5364,0.0,0.0,0.0,0.0,0.0,0.0,-0.7612,-0.7003,-0.6643,-0.6897,-0.5532,-0.488,-0.5023,-0.4261,-0.3778,-0.3483,-0.365,-0.3504,-0.3345,-0.3345,-0.3369,-0.341,-0.3364,-0.3371,-0.3403,-0.3297,-0.3228,-0.3177,-0.3087,-0.3016,-0.2962,-0.2932,-0.2921,-0.2948,0.0,0.0,0.0,0.0,0.0,0.0,0.0,0.0,0.0,0.0,0.0,-0.1844,-0.2004,-0.2094,-0.2232,-0.2245,-0.2241,-0.2252,-0.2249,-0.2268,-0.2277,-0.2214,-0.2211,-0.2211,-0.2211,-0.2373,-0.2555,-0.2683,-0.2808,-0.2869,-0.2869,-0.2873,-0.2875,-0.2873,-0.2871,-0.2387,-0.1549,-0.2473,-0.2671,-0.2459,-0.2403,0.0,0.0,0.0,0.0,0.0,0.0,0.0,0.0,0.0,0.0,0.0,0.0,0.0,0.0,0.0,0.0,0.0,0.0,0.0,0.0,0.0,0.0,0.0,0.0,0.0,0.0,0.0,0.0,0.0,0.0,0.0,0.0,0.0,0.0,0.0,0.0,0.0,0.0,-0.6997,-0.6097,0.0,0.0,0.0,0.0,-0.8396,-0.7544,-0.7074,-0.7208,-0.6429,-0.6,-0.6034,-0.5935,-0.5994,-0.6022,-0.6123,-0.5665,-0.4648,-0.4833,-0.4351,-0.3407,-0.3407,-0.341,-0.3413,-0.3409,-0.341,-0.3407,-0.3343,-0.3315,-0.3312,-0.3305,-0.3266,-0.3219,-0.3274,-0.3294,-0.3305,0.0,0.0,0.0,-0.1713,-0.1688,-0.1674,-0.1621,-0.1617,-0.1687,-0.1778,-0.1888,-0.1674,-0.1,-0.1679,-0.2252,-0.2423,-0.255,-0.266,-0.2692,-0.2558,-0.2388,-0.2254,-0.2362,-0.242,-0.2499,-0.2583,-0.2687,-0.2809,-0.2853,-0.2875,-0.2875,-0.2875,-0.2875,-0.2875,-0.2875,-0.2683,-0.2392,-0.2753,-0.2837,-0.2743,-0.2607,-0.3804,0.0,0.0,0.0,0.0,0.0,0.0,0.0,0.0,0.0,0.0,0.0,0.0,0.0,0.0,0.0,0.0,0.0,0.0,0.0,0.0,0.0,0.0,0.0,0.0,0.0,0.0,0.0,0.0,0.0,0.0,0.0,0.0,0.0,0.0,0.0,0.0,0.0,-0.6845,-0.6295,0.0,-0.74,-0.7967,-0.7854,-0.7047,-0.7237,-0.7022,-0.6493,-0.6159,-0.6079,-0.6165,-0.5574,-0.5218,-0.5415,-0.4773,-0.4285,-0.3967,-0.4036,-0.3851,-0.3526,-0.3565,-0.3583,-0.3586,-0.3625,-0.3642,-0.364,-0.3619,-0.3564,-0.3493,-0.3493,-0.348,-0.3458,-0.344,-0.3435,-0.3448,0.0,0.0,0.0,-0.1744,-0.1737,-0.1743,-0.1652,-0.1686,-0.1707,-0.1787,-0.1867,-0.1402,0.0075,-0.1296,-0.2331,-0.2484,-0.2653,-0.2795,-0.275,-0.2568,-0.2495,-0.2514,-0.255,-0.262,-0.2721,-0.2723,-0.2773,-0.2875,-0.2875,-0.2875,-0.2875,-0.2875,-0.2875,-0.2875,-0.2875,-0.2875,-0.2872,-0.2919,-0.2866,-0.2883,-0.2769,-0.3486,-0.4683,0.0,0.0,0.0,0.0,0.0,0.0,0.0,0.0,0.0,0.0,0.0,0.0,0.0,0.0,0.0,0.0,0.0,0.0,0.0,0.0,0.0,0.0,0.0,0.0,0.0,0.0,0.0,0.0,0.0,0.0,0.0,0.0,0.0,0.0,0.0,-0.4173,-0.6468,-0.6259,-0.6447,-0.7567,-0.7962,-0.7719,-0.6759,-0.6576,-0.6263,-0.5722,-0.5331,-0.5205,-0.5359,-0.4635,-0.436,-0.4543,-0.3834,-0.3538,-0.3557,-0.3598,-0.3628,-0.365,-0.3691,-0.3709,-0.3711,-0.3752,-0.377,-0.3771,-0.3792,-0.3752,-0.3677,-0.3657,-0.3649,-0.3644,-0.3604,-0.3589,-0.36,0.0,0.0,-0.1797,-0.1797,-0.1797,-0.1816,-0.1814,-0.1823,-0.1786,-0.1799,-0.1825,-0.1094,0.0964,-0.1033,-0.2477,-0.2509,-0.2519,-0.252,-0.252,-0.249,-0.2585,-0.287,-0.2867,-0.2811,-0.2697,-0.2786,-0.2815,-0.2875,-0.2875,-0.2875,-0.2875,-0.2875,-0.2875,-0.2875,-0.2875,-0.2875,-0.2875,-0.2875,-0.2839,-0.2781,-0.2722,-0.3155,-0.3869,0.0,0.0,0.0,0.0,0.0,0.0,0.0,0.0,0.0,0.0,0.0,0.0,0.0,0.0,0.0,0.0,0.0,0.0,0.0,0.0,0.0,0.0,0.0,0.0,0.0,0.0,0.0,0.0,0.0,0.0,0.0,0.0,0.0,-0.421,-0.4474,-0.4867,-0.5979,-0.6197,-0.6652,-0.7604,-0.6756,-0.6573,-0.7611,-0.5839,-0.4816,-0.4986,-0.3942,-0.3441,-0.3497,-0.3499,-0.3529,-0.359,-0.359,-0.3621,-0.3681,-0.3681,-0.3711,-0.377,-0.3771,-0.3773,-0.3773,-0.3774,-0.3775,-0.3779,-0.3838,-0.3862,-0.3857,-0.3798,-0.3775,-0.3775,-0.3775,-0.3775,-0.3775,-0.1797,-0.1797,-0.1797,-0.1797,-0.1797,-0.1816,-0.1814,-0.198,-0.2098,-0.2065,-0.2383,-0.231,-0.1531,-0.2068,-0.2523,-0.2477,-0.2518,-0.2545,-0.2791,-0.281,-0.2796,-0.2911,-0.2912,-0.2832,-0.2849,-0.2849,-0.2857,-0.2875,-0.2875,-0.2875,-0.2875,-0.2875,-0.2875,-0.2875,-0.2875,-0.2875,-0.2875,-0.2875,-0.2864,-0.2847,-0.2831,-0.3306,-0.3986,0.0,0.0,0.0,0.0,0.0,0.0,0.0,0.0,0.0,0.0,0.0,0.0,0.0,0.0,0.0,0.0,0.0,0.0,0.0,0.0,0.0,0.0,0.0,0.0,0.0,0.0,0.0,0.0,0.0,0.0,0.0,0.0,-0.501,-0.5275,-0.4892,-0.5274,-0.7168,-0.7521,-0.775,-0.7955,-0.786,-0.7235,-0.5848,-0.5231,-0.4654,-0.3897,-0.358,-0.35,-0.3561,-0.3563,-0.3591,-0.3653,-0.3653,-0.3684,-0.3744,-0.3744,-0.3753,-0.3771,-0.3815,-0.3835,-0.3838,-0.3882,-0.3901,-0.3902,-0.3918,-0.3925,-0.3924,-0.3907,-0.3901,-0.3901,-0.3901,-0.3901,-0.3901,-0.1797,-0.1797,-0.1797,-0.1797,-0.1797,-0.1824,-0.1787,-0.201,-0.2207,-0.2221,-0.2589,-0.2803,-0.2569,-0.2518,-0.2479,-0.2504,-0.2477,-0.2594,-0.2846,-0.2941,-0.2925,-0.2873,-0.2875,-0.2875,-0.2875,-0.3411,-0.3411,-0.2875,-0.2869,-0.2869,-0.2875,-0.2875,-0.2784,-0.2694,-0.2873,-0.2873,-0.2785,-0.2899,-0.2895,-0.2876,-0.2901,-0.3141,-0.3512,-0.3521,-0.3964,-0.4627,-0.4281,-0.4378,-0.4786,-0.497,0.0,0.0,0.0,0.0,0.0,0.0,0.0,0.0,0.0,0.0,0.0,0.0,0.0,0.0,0.0,0.0,0.0,0.0,0.0,0.0,0.0,0.0,0.0,0.0,-0.5537,-0.6006,-0.6569,-0.6278,-0.63,-0.7277,-0.7826,-0.818,-0.8227,-0.7479,-0.6489,-0.5151,-0.462,-0.4116,-0.3531,-0.3534,-0.3563,-0.3624,-0.3625,-0.3654,-0.3717,-0.3717,-0.3747,-0.3807,-0.3807,-0.382,-0.3846,-0.3882,-0.3898,0.0,-0.3935,-0.3951,-0.3951,-0.3951,-0.3951,0.0,0.0,0.0,0.0,0.0,-0.3951,-0.3951,-0.1797,-0.1797,-0.1797,-0.1797,-0.1797,-0.1779,-0.177,-0.2033,-0.223,-0.2223,-0.2636,-0.2835,-0.2561,-0.2505,-0.2549,-0.251,-0.2578,-0.2621,-0.289,-0.2936,-0.2875,-0.2875,-0.2875,-0.2963,-0.3233,-0.4127,-0.4125,-0.3142,-0.2955,-0.2865,-0.2875,-0.288,-0.2793,-0.2522,-0.28,-0.2802,-0.2624,-0.2855,-0.2939,-0.2898,-0.2948,-0.2931,-0.2868,-0.2813,-0.3225,-0.3811,-0.3667,-0.4104,-0.4656,-0.4557,0.0,0.0,0.0,0.0,0.0,0.0,0.0,0.0,0.0,0.0,0.0,0.0,0.0,0.0,0.0,0.0,0.0,0.0,0.0,0.0,0.0,0.0,0.0,0.0,-0.602,-0.6569,-0.7588,-0.7838,-0.7602,-0.6833,-0.7585,-0.8143,-0.8065,-0.6184,-0.5054,-0.4916,-0.4051,-0.353,-0.3585,0.0,0.0,0.0,0.0,-0.3718,-0.3779,-0.3779,-0.3809,-0.3871,-0.3871,-0.3898,-0.3951,-0.3951,-0.3951,-0.3951,-0.3951,-0.3951,-0.3951,-0.3951,-0.3951,-0.3951,-0.3951,-0.3951,-0.3951,-0.3951,-0.3951,0.0,-0.1797,-0.1797,-0.1797,-0.1797,-0.1797,-0.1779,-0.177,-0.203,-0.221,-0.2171,-0.264,-0.2768,-0.2537,-0.2659,-0.2825,-0.2786,-0.2851,-0.2875,-0.2921,-0.2892,-0.2875,-0.2875,-0.2875,-0.3592,-0.5116,-0.395,-0.368,-0.4393,-0.3408,-0.2872,-0.2875,-0.292,-0.2941,-0.2852,-0.2993,-0.3015,-0.3016,-0.3026,-0.3119,-0.3016,-0.3122,-0.2969,-0.2873,-0.2861,-0.2945,-0.3118,-0.3093,-0.3172,-0.3432,-0.4112,-0.4178,-0.4049,-0.4849,-0.4785,0.0,0.0,0.0,0.0,0.0,0.0,0.0,0.0,0.0,0.0,0.0,0.0,0.0,0.0,0.0,0.0,0.0,0.0,0.0,-0.5735,-0.6719,-0.7385,-0.6964,-0.7582,-0.7968,-0.7791,-0.8233,-0.7867,-0.5959,-0.5492,-0.4884,-0.4013,-0.3681,-0.3575,-0.3587,-0.3634,0.0,-0.3677,-0.3726,-0.3781,-0.3842,-0.3842,-0.3873,-0.3933,0.0,0.0,-0.3951,-0.3951,-0.3951,-0.3951,-0.3951,-0.3951,-0.3951,-0.3951,-0.3951,-0.3951,-0.3951,-0.3951,-0.3951,-0.3951,-0.3951,-0.3951,-0.1797,-0.1797,-0.1797,-0.1797,-0.1793,-0.1774,-0.1828,-0.2026,-0.2706,-0.4094,-0.3368,-0.2686,-0.2731,-0.2676,-0.3524,-0.5544,-0.4112,-0.297,-0.2907,-0.2887,-0.3323,-0.422,-0.431,-0.4935,-0.6189,-0.529,-0.475,-0.4569,-0.3944,-0.332,-0.2876,-0.2842,-0.2683,-0.2592,-0.2646,-0.2574,-0.248,-0.26,-0.2692,-0.2672,-0.2793,-0.2835,-0.2736,-0.2917,-0.2899,-0.2875,-0.2875,-0.2875,-0.2963,-0.3409,-0.3447,-0.3386,-0.3729,-0.3729,-0.3456,0.0,0.0,0.0,0.0,0.0,0.0,0.0,0.0,0.0,0.0,0.0,0.0,0.0,0.0,-0.5555,0.0,0.0,-0.7376,-0.691,-0.791,-0.8459,-0.751,-0.7914,-0.8154,-0.7626,-0.7211,-0.6446,-0.5408,-0.479,-0.4257,-0.3699,-0.3587,-0.3601,-0.3631,-0.3661,-0.3706,-0.3767,-0.3798,-0.3843,-0.3905,-0.3905,-0.3921,-0.3951,-0.3951,-0.3951,-0.3951,-0.3951,-0.3951,-0.3951,-0.3951,-0.3951,-0.395,-0.4316,-0.4195,-0.395,-0.4316,-0.4195,-0.3951,-0.3951,-0.3951,-0.3951,-0.2077,-0.1964,-0.1794,-0.1794,-0.1788,-0.1819,-0.1809,-0.249,-0.3804,-0.6106,-0.4585,-0.3313,-0.353,-0.3488,-0.4892,-0.8295,-0.5212,-0.3115,-0.2949,-0.3136,-0.3948,-0.5476,-0.5654,-0.6008,-0.6802,-0.6627,-0.5997,-0.4832,-0.4476,-0.3944,-0.3144,-0.2854,-0.2608,-0.2331,-0.2387,-0.2316,-0.2124,-0.2352,-0.2445,-0.2415,-0.2647,-0.2699,-0.2608,-0.2884,-0.2933,-0.2875,-0.2875,-0.2873,-0.2784,-0.2784,-0.2784,-0.2694,-0.2513,-0.2395,-0.2443,-0.258,-0.2606,0.0,0.0,0.0,0.0,0.0,0.0,0.0,0.0,-0.4033,-0.4949,-0.4234,-0.5572,-0.6661,-0.5834,-0.7429,-0.863,-0.8011,-0.8762,-0.9045,-0.8309,-0.8117,-0.7729,-0.6885,-0.5802,-0.518,-0.5031,-0.4145,-0.3587,-0.3587,-0.3598,-0.3627,-0.3676,-0.37,-0.3759,-0.3857,-0.3871,-0.3901,-0.395,-0.3951,-0.3951,-0.3951,-0.3951,-0.3951,-0.3951,-0.4073,-0.4071,-0.4071,-0.4071,-0.4071,-0.4071,-0.4559,-0.4438,-0.395,-0.4438,-0.4315,-0.3951,-0.3951,-0.3951,-0.3951,-0.3193,-0.2514,-0.1785,-0.1785,-0.1781,-0.18,-0.181,-0.4176,-0.6069,-0.6332,-0.6162,-0.5962,-0.6037,-0.653,-0.741,-0.8496,-0.5097,-0.289,-0.2857,-0.3939,-0.4663,-0.4931,-0.5371,-0.6166,-0.7054,-0.6254,-0.6166,-0.6786,-0.5097,-0.421,-0.4125,-0.3359,-0.304,-0.3045,-0.3061,-0.311,-0.3011,-0.3118,-0.3116,-0.3111,-0.3118,-0.295,-0.2753,-0.2943,-0.297,-0.2875,-0.2875,-0.2784,-0.2513,-0.2513,-0.2424,-0.2244,-0.2243,-0.224,-0.2422,-0.3636,-0.3816,-0.4072,-0.6269,-0.6782,-0.634,-0.4676,-0.4333,-0.4168,0.0,-0.3083,-0.3316,-0.3132,-0.4113,-0.4922,-0.4735,-0.6527,-0.8018,-0.8174,-0.8227,-0.8323,-0.8604,-0.6837,-0.5482,-0.5567,-0.5466,-0.4916,-0.3921,-0.3699,-0.3587,-0.3587,-0.3638,-0.3672,-0.3677,-0.3781,-0.3846,-0.386,-0.3913,-0.3944,-0.3951,-0.3951,-0.3951,-0.3951,-0.3951,-0.3951,-0.3951,-0.4561,-0.4803,-0.4803,-0.4803,-0.4803,-0.4803,-0.4193,-0.395,-0.3951,-0.395,-0.395,-0.3951,-0.3951,-0.3951,-0.3951,-0.3641,-0.3744,-0.3624,-0.2947,-0.2275,-0.2242,-0.36,-0.4912,-0.5746,-0.5767,-0.5736,-0.5944,-0.6359,-0.7068,-0.762,-0.7967,-0.6582,-0.5157,-0.3845,-0.5003,-0.5566,-0.5366,-0.6077,-0.6962,-0.7944,-0.7051,-0.6697,-0.7139,-0.5186,-0.43,-0.4304,-0.327,-0.2841,-0.2818,-0.2765,-0.2708,-0.2683,-0.2711,-0.2725,-0.2723,-0.2892,-0.2832,-0.2664,-0.2729,-0.2875,-0.3014,-0.365,-0.3621,0.0,-0.3406,-0.3408,-0.3102,-0.2284,-0.2465,-0.3106,-0.3774,-0.4336,-0.5132,-0.6748,-0.6678,-0.5979,-0.526,-0.5097,-0.4667,-0.3278,-0.3891,-0.4599,-0.4038,-0.5332,-0.6556,-0.6556,-0.7828,-0.8973,0.0,-0.8695,-0.8141,-0.7696,-0.6262,-0.4997,-0.4475,-0.4369,-0.4145,-0.3699,-0.3587,-0.3602,-0.3638,-0.3664,-0.3709,-0.3781,-0.3833,-0.3876,-0.3912,-0.3937,-0.3951,-0.3951,-0.3951,-0.3951,-0.3951,-0.3951,-0.3951,-0.3951,-0.4559,-0.517,-0.5538,-0.5538,-0.5538,-0.5538,-0.5542,-0.5202,-0.4622,-0.5492,-0.5272,-0.4548,-0.41,-0.3951,-0.3951,-0.4258,-0.4757,-0.503,-0.4229,-0.3356,-0.3317,-0.5057,-0.5329,-0.5235,-0.5045,-0.521,-0.5588,-0.6294,-0.7048,-0.7419,-0.7334,-0.7458,-0.6813,-0.5073,-0.5961,-0.6508,-0.6071,-0.6962,-0.7852,-0.8568,-0.7856,-0.7496,-0.7496,-0.5897,-0.5099,-0.5013,-0.3713,-0.3092,-0.3059,-0.2725,-0.2571,-0.2552,-0.2588,-0.2611,-0.262,-0.2783,-0.2727,-0.2664,-0.2738,-0.2885,-0.3298,-0.4116,-0.4184,-0.3985,-0.4356,-0.4442,-0.4116,-0.3022,-0.3295,-0.4124,-0.4633,-0.5626,-0.6566,-0.6992,-0.6587,-0.5871,-0.5484,-0.552,-0.5201,-0.3435,-0.4628,-0.5836,-0.4886,-0.6407,-0.7955,-0.7955,-0.8841,-0.9701,-0.9925,-0.882,-0.7693,-0.6994,-0.5771,-0.459,-0.3699,-0.3602,-0.3613,-0.3613,-0.3597,-0.3613,-0.3673,-0.3694,-0.3749,-0.3854,-0.3876,-0.3905,-0.395,-0.3951,-0.3951,-0.3951,-0.3951,-0.3951,-0.3951,-0.4071,-0.4195,-0.4195,-0.5051,-0.5784,-0.6399,-0.6056,-0.5945,-0.5945,-0.6343,-0.5771,-0.4818,-0.6082,-0.5868,-0.4756,-0.4156,-0.4123,-0.4248,-0.5266,-0.5262,-0.5313,-0.5242,-0.521,-0.521,-0.5281,-0.5321,-0.5051,-0.4436,-0.4881,-0.5542,-0.6141,-0.6953,-0.733,-0.6974,-0.6889,-0.6694,-0.6301,-0.7052,-0.7309,-0.7051,-0.8032,-0.8564,-0.8568,-0.8564,-0.8568,-0.8568,-0.7496,-0.7051,-0.6966,-0.5204,-0.4334,-0.4338,-0.3495,-0.3086,-0.3041,-0.3044,-0.3077,-0.313,-0.3229,-0.2958,-0.2767,-0.3015,-0.3306,-0.3582,-0.3851,-0.3991,-0.4139,-0.5046,-0.5186,-0.5003,-0.4914,-0.4914,-0.522,-0.6737,-0.8146,-0.893,-0.7527,-0.7255,-0.6963,-0.4901,-0.5232,-0.5591,-0.3518,-0.4724,-0.5958,-0.4888,-0.6437,-0.8014,-0.8014,-0.892,-0.9742,-1.0095,-0.8151,-0.676,-0.71,-0.5142,-0.3587,-0.3587,-0.364,-0.3676,0.0,-0.3623,-0.3613,-0.3673,-0.3733,-0.3794,-0.3857,-0.3916,-0.3948,-0.3951,-0.3951,-0.3951,-0.3951,-0.3951,-0.3951,-0.3951,-0.4561,-0.4926,-0.4926,-0.6276,-0.7255,-0.7755,-0.65,-0.6039,-0.592,-0.5498,-0.4762,-0.4251,-0.5021,-0.4766,-0.4125,-0.4121,-0.4506,-0.5019,-0.5317,-0.5309,-0.5305,-0.5297,-0.5303,-0.5167,-0.4707,-0.5032,-0.5174,-0.4816,-0.5429,0.0,0.0,0.0,0.0,0.0,-0.6965,-0.6764,-0.6514,-0.7358,-0.7617,-0.7149,-0.8055,-0.8568,-0.8568,-0.8568,-0.8568,-0.8568,-0.7584,-0.7187,-0.7285,-0.6048,-0.5169,-0.4522,-0.4289,-0.3844,-0.3142,-0.3183,-0.3211,-0.3228,-0.3187,-0.3024,-0.3055,-0.3793,-0.4093,-0.4296,0.0,-0.6056,-0.5882,-0.6368,-0.635,-0.6113,-0.5363,-0.5757,-0.67,-0.8113,-0.8769,-0.8894,-0.8559,-0.7897,-0.7257,-0.6746,-0.6389,-0.5904,-0.446,-0.5892,-0.7159,-0.6069,-0.7662,-0.9284,-0.9284,-0.9593,-0.988,-1.0123,-0.8154,-0.6736,-0.6893,-0.5048,-0.3647,-0.3647,-0.3702,0.0,0.0,0.0,0.0,-0.3794,-0.3818,-0.3856,-0.3917,-0.394,-0.3951,-0.3951,-0.3951,-0.3951,-0.3951,-0.3951,-0.4071,-0.4561,-0.5295,-0.5784,-0.6276,-0.6644,-0.7298,-0.7994,-0.7533,-0.7469,-0.7412,-0.6807,-0.6088,-0.562,-0.5881,-0.5522,-0.4907,-0.4907,-0.5172,-0.5159,-0.5309,-0.5305,-0.5297,-0.5297,-0.5299,0.0,0.0,0.0,0.0,0.0,0.0,0.0,0.0,0.0,0.0,0.0,0.0,-0.7147,-0.7021,-0.7744,-0.7969,-0.7743,-0.8243,-0.8593,-0.8719,-0.866,-0.8574,-0.864,-0.7937,-0.7665,-0.7825,-0.6968,-0.6194,-0.5548,-0.5347,-0.4918,-0.4215,-0.3872,-0.4022,-0.4362,-0.3734,-0.3769,-0.4325,-0.4795,-0.5162,0.0,-0.6793,-0.7339,-0.7432,-0.7629,-0.7538,-0.7295,-0.6648,-0.7114,-0.7944,-0.8733,-0.9003,-0.8918,-0.8625,-0.8069,-0.7449,-0.7259,-0.7099,-0.6608,-0.5529,-0.6929,-0.8238,-0.7153,-0.8375,-0.964,-0.977,-0.9791,-0.9896,-1.0209,-0.8659,-0.7211,-0.7013,-0.541,-0.4136,-0.3792,-0.3751,-0.3801,0.0,0.0,0.0,-0.3858,-0.386,-0.3887,-0.3947,-0.3951,-0.3951,-0.3951,-0.3951,-0.3951,-0.3951,-0.3951,-0.4316,-0.5293,-0.5661,-0.6396,-0.7258,-0.7052,-0.7356,-0.806,-0.7638,-0.7459,-0.7528,-0.6783,-0.6181,-0.5572,-0.5837,-0.5603,-0.4978,-0.4978,-0.4978,-0.4966,-0.5297,-0.5297,-0.5297,0.0,0.0,0.0,0.0,0.0,0.0,0.0,0.0,0.0,0.0,0.0,0.0,0.0,0.0,0.0,-0.7681,-0.8139,-0.8458,-0.8616,-0.8471,-0.8545,-0.8985,-0.8734,-0.8652,-0.8577,-0.859,-0.861,-0.8544,-0.7807,-0.7427,-0.735,-0.6563,-0.6214,-0.6227,-0.5162,-0.5471,-0.654,-0.4945,-0.5174,-0.6203,-0.5802,-0.6271,-0.7136,-0.7202,-0.7886,-0.8556,-0.8564,-0.858,-0.8597,-0.8597,-0.8832,-0.9076,-0.8901,-0.9084,-0.9076,-0.7823,-0.7684,-0.7617,-0.6748,-0.7331,-0.7819,-0.6714,-0.7997,-0.9064,-0.8004,-0.8471,-0.923,-0.9575,-0.9632,-0.9803,-1.0229,-0.9319,-0.8173,-0.7111,-0.6116,-0.4933,-0.3796,-0.3788,-0.3861,-0.3864,0.0,0.0,-0.3869,0.0,-0.389,-0.3948,-0.3951,-0.3951,-0.3951,-0.3951,-0.3951,-0.3951,-0.395,-0.4685,-0.5906,-0.5906,-0.6641,-0.7875,-0.7373,-0.7556,-0.8084,-0.6895,-0.646,-0.6343,-0.5763,-0.4986,-0.4447,-0.5119,-0.4981,-0.4308,-0.4311,-0.4312,-0.4312,0.0,0.0,0.0,0.0,0.0,0.0,0.0,0.0,0.0,0.0,0.0,0.0,0.0,0.0,0.0,0.0,0.0,0.0,-0.7517,-0.8128,-0.8608,-0.8975,-0.9392,-0.9653,-0.9766,-0.9189,-0.8883,-0.8935,-0.8378,-0.8225,-0.8334,-0.817,-0.7701,-0.7104,-0.6873,-0.6367,-0.558,-0.5307,-0.5478,-0.5881,-0.542,-0.5445,-0.5775,-0.6725,-0.6863,-0.6848,-0.8027,-0.8351,-0.8381,-0.8519,-0.8743,-0.8962,-0.8962,-0.9112,-0.9279,-0.9234,-0.9194,-0.9169,-0.8922,-0.8901,-0.8999,-0.8833,-0.8992,-0.8894,-0.769,-0.8415,-0.9064,-0.8004,-0.865,-0.9559,-0.9778,-0.9713,-0.9457,-0.9007,-0.7827,0.0,-0.5778,-0.4681,-0.3984,-0.3852,-0.3813,-0.3879,-0.3924,-0.3942,0.0,0.0,-0.3928,-0.3935,-0.395,-0.3951,-0.3951,-0.3951,-0.3951,-0.3951,-0.3951,-0.493,-0.5295,-0.517,-0.6644,-0.7258,-0.7138,-0.7622,-0.8025,-0.8334,-0.8083,-0.7838,-0.7303,-0.6639,-0.5924,-0.5193,-0.4784,-0.4483,-0.4313,-0.4358,-0.4375,-0.4375,0.0,0.0,0.0,0.0,0.0,0.0,0.0,0.0,0.0,0.0,0.0,0.0,0.0,0.0,0.0,0.0,0.0,0.0,0.0,-0.7927,-0.8456,-0.9129,-0.955,-0.9859,-1.0081,-0.9661,-0.9495,-0.9522,-0.8827,-0.8531,-0.8582,-0.8294,-0.7935,-0.744,-0.7425,-0.7107,-0.6503,-0.6076,-0.624,0.0,0.0,-0.6037,-0.6675,-0.7165,-0.7228,-0.7097,-0.8046,-0.8325,-0.8329,-0.8589,-0.8865,-0.9112,-0.9185,-0.9222,-0.9254,-0.9332,-0.9234,-0.9137,-0.9307,-0.9064,-0.8717,-0.8882,-0.8477,-0.8126,-0.7909,-0.8286,-0.857,-0.8383,-0.894,-0.9449,-0.962,-0.9236,-0.8829,-0.8532,-0.7404,-0.6264,-0.5316,-0.4762,-0.4197,-0.3872,-0.3823,-0.3884,-0.3946,-0.3951,-0.3951,0.0,-0.3951,-0.3951,-0.3951,-0.3951,-0.3951,-0.3951,-0.3951,-0.3951,-0.3951,-0.5174,-0.5661,-0.5293,-0.6519,-0.7133,-0.7385,-0.7676,-0.7852,-0.79,0.0,-0.7679,-0.6856,-0.6438,-0.5716,-0.4988,-0.4573,-0.4414,-0.4388,-0.4422,-0.4436,-0.4436,0.0,0.0,0.0,0.0,0.0,0.0,0.0,0.0,0.0,-0.6435,-0.629,-0.6257,-0.6257,-0.6339,0.0,0.0,0.0,0.0,0.0,0.0,-0.8297,-0.9202,-0.9403,-0.9679,-1.0079,-1.003,-1.0006,-1.0014,-0.9264,-0.8887,-0.8793,-0.82,-0.784,-0.7848,-0.7873,-0.787,-0.7793,-0.6898,-0.7155,-0.8022,-0.6602,-0.6838,-0.7858,0.0,-0.7301,-0.7443,-0.7679,-0.8004,-0.8381,-0.8739,-0.8962,-0.9125,-0.9275,-0.925,-0.919,-0.9291,-0.9246,-0.9194,-0.9319,-0.8694,-0.806,-0.8167,-0.7309,-0.6763,-0.794,-0.7959,-0.7969,-0.8937,-0.9133,-0.9185,-0.936,-0.8709,-0.8292,-0.8495,-0.7574,-0.6561,-0.5416,-0.5176,-0.4843,-0.3847,-0.3807,-0.3872,-0.3932,-0.3946,-0.3951,-0.3951,-0.3951,-0.3951,-0.3951,-0.3951,-0.3951,-0.3951,-0.395,-0.395,-0.3951,-0.5297,-0.5906,-0.5784,-0.6029,-0.6766,-0.7755,-0.7476,-0.7253,-0.7245,0.0,0.0,-0.5614,-0.5614,-0.5194,-0.4495,-0.4495,-0.4489,-0.4484,-0.4492,-0.4495,-0.4495,0.0,0.0,0.0,0.0,0.0,0.0,0.0,0.0,0.0,0.0,-0.6951,-0.6688,0.0,0.0,0.0,0.0,0.0,0.0,0.0,0.0,0.0,-0.9512,-1.0048,-1.0383,-1.0495,-0.9967,-0.97,-0.9685,-0.8537,-0.7955,-0.7936,-0.7532,-0.7214,-0.7086,-0.7266,-0.7277,-0.7135,-0.6988,-0.7092,-0.7403,-0.708,-0.7155,-0.735,-0.7261,0.0,0.0,-0.7667,-0.8089,-0.8572,-0.893,-0.9072,-0.91,-0.9133,-0.9324,-0.9482,-0.9218,-0.9328,-0.951,-0.9388,-0.9368,-0.9257,-0.9139,-0.8401,-0.787,-0.8733,-0.8287,-0.7998,-0.9088,-0.9311,-0.9364,-0.9547,-0.9385,-0.8924,-0.834,-0.7178,-0.6055,-0.5193,-0.4286,-0.3703,-0.3605,-0.3718,-0.3809,-0.3869,-0.3921,0.0,0.0,0.0,0.0,-0.3951,-0.3951,-0.3951,-0.3951,-0.4438,-0.4438,-0.3951,-0.5788,-0.6151,-0.5047,-0.6766,-0.738,-0.7016,-0.7144,-0.7181,-0.7243,0.0,0.0,-0.5692,-0.5692,-0.5266,-0.4557,-0.4557,-0.4526,-0.4489,-0.454,-0.4557,-0.4557,0.0,0.0,0.0,0.0,0.0,0.0,0.0,-0.8666,-0.8205,-0.8289,-0.8193,-0.7896,-0.7248,-0.748,-0.7443,0.0,0.0,0.0,0.0,0.0,0.0,-0.9583,-1.0077,-1.0338,-1.0338,-1.0215,-1.0128,-1.0128,0.0,-0.8555,-0.8188,-0.7616,-0.709,-0.672,-0.6677,-0.6588,-0.6523,-0.6461,-0.6448,-0.653,-0.653,-0.6583,-0.6664,0.0,0.0,0.0,-0.7643,-0.7983,-0.8361,-0.8913,-0.9096,-0.9112,-0.9202,-0.9348,-0.9453,-0.9283,-0.9352,-0.9486,-0.9494,-0.9162,-0.8784,-0.8624,-0.7804,-0.7302,-0.82,-0.8023,-0.7983,-0.9013,-0.9222,-0.9218,-0.921,-0.881,-0.8437,-0.7997,-0.658,-0.5347,-0.5065,-0.4013,-0.3432,-0.3613,-0.3658,-0.3711,-0.3804,-0.3868,-0.3903,0.0,0.0,0.0,-0.3951,-0.3951,-0.4073,-0.4438,-0.5049,-0.5295,-0.493,-0.6276,-0.6399,-0.5416,-0.6396,-0.6644,-0.6401,-0.65,-0.6398,-0.6189,-0.6406,0.0,-0.5092,-0.5555,-0.5285,-0.4576,-0.4608,-0.4602,-0.458,-0.4609,-0.4621,-0.4621,0.0,0.0,0.0,0.0,0.0,0.0,0.0,-0.984,-0.9321,-0.9552,-0.956,-0.9194,-0.8122,-0.8217,-0.8105,0.0,0.0,0.0,0.0,0.0,0.0,0.0,0.0,0.0,0.0,0.0,0.0,-1.0382,-0.9763,0.0,0.0,0.0,0.0,0.0,-0.634,-0.6121,-0.6117,-0.5944,-0.5888,0.0,0.0,-0.599,0.0,0.0,0.0,0.0,0.0,-0.787,-0.8117,-0.8808,-0.9064,-0.912,-0.9254,-0.9324,-0.9348,-0.9311,-0.9299,-0.9332,-0.9474,-0.8916,-0.8195,-0.8083,-0.7376,-0.6891,-0.7859,-0.7861,-0.7962,-0.8909,-0.9096,-0.9051,-0.8905,-0.8479,-0.8101,-0.8101,-0.6651,-0.5487,-0.5331,-0.4377,-0.3606,-0.3597,-0.3601,-0.363,-0.3739,-0.3816,0.0,0.0,0.0,0.0,-0.3951,-0.4073,-0.4316,-0.4682,-0.5418,-0.5786,-0.5418,-0.6276,-0.6399,-0.5661,-0.5784,-0.5906,-0.591,-0.5878,-0.5623,-0.5248,-0.5734,0.0,0.0,-0.5251,-0.5143,-0.4579,-0.464,-0.4665,-0.4665,-0.4665,-0.4665,-0.4665,0.0,0.0,0.0,0.0,0.0,0.0,0.0,-1.2005,-1.1884,-1.1348,-1.0843,-1.0328,-0.9813,-0.9769,-0.9234,0.0,0.0,0.0,0.0,0.0,0.0,0.0,0.0,0.0,0.0,0.0,0.0,-0.9702,-0.9123,0.0,0.0,0.0,0.0,0.0,0.0,-0.6246,-0.6117,-0.5944,0.0,0.0,0.0,0.0,0.0,0.0,0.0,0.0,0.0,-0.787,-0.8097,-0.8658,-0.8958,-0.91,-0.9116,-0.923,-0.9324,-0.9165,-0.912,-0.9125,-0.9141,-0.9051,-0.8953,-0.8937,-0.8269,-0.7795,-0.8742,-0.8352,-0.7962,-0.8909,-0.9096,-0.9092,-0.9076,-0.9131,-0.926,-0.926,-0.842,-0.7332,-0.6453,-0.5422,-0.4384,-0.3533,-0.3526,-0.3613,-0.368,-0.3792,0.0,0.0,0.0,0.0,0.0,-0.4438,-0.4561,-0.395,-0.5174,-0.5297,-0.4073,-0.5297,-0.5661,-0.5047,-0.5661,-0.5906,-0.591,-0.5379,-0.5085,-0.5042,0.0,0.0,0.0,-0.4669,-0.4715,-0.4579,-0.464,-0.4665,-0.4665,-0.4665,-0.4665,-0.4665,0.0,0.0,0.0,0.0,0.0,0.0,-1.2164,-1.2022,-1.1951,-1.2353,-1.2134,-1.1769,-1.1311,-1.138,-1.0822,-0.9278,0.0,0.0,0.0,0.0,0.0,0.0,0.0,0.0,0.0,0.0,-0.9497,-0.9614,-0.9406,0.0,0.0,0.0,0.0,0.0,0.0,-0.6459,-0.6346,-0.5791,0.0,0.0,0.0,0.0,0.0,0.0,0.0,0.0,0.0,0.0,-0.8081,-0.8519,-0.8783,-0.8966,-0.9181,-0.923,-0.9185,-0.9116,-0.9169,-0.923,-0.9125,-0.9096,-0.9096,-0.9096,-0.8812,-0.8625,-0.9003,-0.8729,-0.8436,-0.8709,-0.8329,-0.7986,-0.8524,-0.8387,-0.8383,-0.9067,-0.8475,-0.776,-0.7425,-0.6575,-0.564,-0.4523,-0.4593,-0.433,0.0,0.0,0.0,0.0,0.0,0.0,0.0,-0.4559,-0.4926,-0.5051,-0.5663,-0.5786,-0.5665,-0.5786,-0.5784,-0.5538,-0.5416,-0.5049,-0.4687,-0.4507,-0.4447,-0.4516,0.0,0.0,0.0,-0.447,-0.4519,-0.4529,-0.4625,-0.4665,-0.4665,-0.4665,-0.4665,-0.4665,0.0,0.0,0.0,0.0,0.0,-1.1607,-1.2587,-1.2444,-1.2409,-1.3188,-1.3151,-1.2849,-1.2357,-1.2209,-1.1794,-1.0869,-1.0709,0.0,0.0,0.0,0.0,0.0,0.0,0.0,0.0,0.0,-0.9665,-0.9753,-0.9855,-0.9685,0.0,0.0,-0.8815,-0.8373,0.0,0.0,0.0,0.0,0.0,0.0,0.0,0.0,0.0,0.0,0.0,0.0,0.0,0.0,0.0,0.0,0.0,-0.88,-0.91,-0.9153,-0.9108,-0.9161,-0.9185,-0.9181,-0.9116,-0.9056,-0.9039,-0.9145,-0.9137,-0.9096,-0.9096,-0.8913,-0.8694,-0.8524,-0.7647,-0.7186,-0.8038,-0.7523,-0.7214,-0.8313,-0.8251,-0.7892,-0.7737,-0.7502,-0.699,-0.592,-0.5782,-0.5298,0.0,0.0,0.0,0.0,0.0,0.0,0.0,-0.4928,-0.5172,-0.5297,-0.5663,-0.5908,-0.6033,-0.5542,-0.5297,-0.5297,-0.4805,-0.4316,-0.3952,-0.4008,-0.4068,-0.413,0.0,0.0,0.0,-0.4454,-0.4499,-0.4495,-0.4617,-0.4665,-0.4665,-0.4665,-0.4665,-0.4665,0.0,0.0,0.0,0.0,0.0,0.0,-1.3353,-1.3777,-1.3938,-1.3871,-1.3725,-1.3426,-1.2969,-1.2155,-1.1871,-1.2398,-1.1326,0.0,0.0,0.0,0.0,0.0,0.0,0.0,0.0,0.0,-0.9775,-1.0097,-1.0419,-1.058,-1.058,-0.9992,-0.9704,-0.9626,0.0,0.0,0.0,0.0,0.0,0.0,0.0,0.0,0.0,0.0,0.0,0.0,0.0,0.0,0.0,0.0,0.0,0.0,0.0,-0.895,-0.9133,-0.9299,-0.9104,-0.8865,-0.9047,-0.8962,-0.8909,-0.9263,-0.9222,-0.9096,-0.9096,-0.8824,-0.8519,-0.8333,-0.7472,-0.7019,-0.7851,-0.684,-0.6195,-0.7054,-0.7788,-0.7938,-0.6997,-0.8143,-0.8706,-0.771,-0.7105,-0.6478,-0.581,0.0,0.0,0.0,0.0,0.0,0.0,-0.5906,-0.5297,-0.395,-0.5174,-0.5297,-0.395,-0.3951,-0.3951,-0.3951,-0.3951,-0.3951,-0.3952,-0.4008,-0.4068,0.0,0.0,0.0,0.0,-0.4499,-0.4537,-0.4495,-0.4617,-0.4665,-0.4665,-0.4665,-0.4665,-0.4665,0.0,0.0,0.0,0.0,0.0,0.0,0.0,-1.2921,-1.3107,-1.3542,-1.3365,-1.3209,-1.3329,-1.2614,-1.2194,-1.2153,-1.1004,0.0,0.0,0.0,0.0,0.0,0.0,0.0,0.0,0.0,-1.0214,-1.0763,-1.0872,-1.0924,-1.0924,-1.0739,-1.05,-1.0293,-0.9387,-0.8492,0.0,0.0,0.0,0.0,0.0,0.0,0.0,0.0,0.0,0.0,0.0,0.0,0.0,0.0,0.0,0.0,0.0,0.0,0.0,-0.9125,-0.9096,-0.9023,-0.9084,-0.8962,-0.8877,-0.912,-0.8954,-0.8735,-0.8735,-0.8548,-0.8292,-0.7988,-0.6813,-0.6128,-0.7185,-0.6197,-0.5651,-0.7125,-0.8084,-0.8504,-0.8185,-0.8557,-0.8364,-0.6964,-0.5485,-0.4462,0.0,0.0,0.0,0.0,0.0,0.0,0.0,0.0,-0.5172,-0.5297,-0.5663,-0.5418,-0.4559,-0.4071,-0.4071,-0.4559,-0.4071,-0.3951,-0.3952,-0.4008,0.0,0.0,0.0,0.0,0.0,-0.4413,-0.4443,-0.4437,-0.4556,-0.4602,-0.4606,-0.4649,-0.4665,-0.4665,0.0,0.0,0.0,0.0,0.0,0.0,0.0,-1.2336,-1.2533,-1.306,-1.295,-1.2899,-1.3104,-1.2548,-1.208,-1.1875,-1.0667,0.0,0.0,0.0,0.0,0.0,0.0,0.0,-1.0097,-1.0338,-1.0843,-1.1619,-1.1743,-1.1933,-1.2175,-1.2175,-1.1867,-1.1311,-1.0641,-0.9695,0.0,0.0,0.0,0.0,0.0,0.0,-0.5921,0.0,0.0,0.0,0.0,0.0,0.0,0.0,0.0,0.0,0.0,0.0,0.0,0.0,-0.8942,-0.9007,-0.908,-0.8962,-0.8865,-0.9051,-0.8832,-0.8568,-0.8568,-0.8264,-0.7923,-0.7699,-0.657,-0.5839,-0.6845,-0.5734,-0.5137,-0.6566,-0.7485,-0.8065,-0.8283,-0.8456,-0.81,-0.6793,-0.5322,0.0,0.0,0.0,0.0,0.0,0.0,0.0,0.0,0.0,-0.5047,-0.5538,-0.5538,-0.5172,-0.4559,-0.4071,-0.4071,-0.4561,-0.4071,-0.3951,-0.3952,-0.3986,0.0,0.0,0.0,0.0,0.0,-0.4373,-0.4398,-0.4407,-0.4501,-0.4553,-0.4578,-0.4616,-0.4645,-0.4665,0.0,0.0,0.0,0.0,0.0,0.0,0.0,-1.1869,-1.2036,-1.2343,-1.2365,-1.235,-1.235,-1.1816,-1.1512,-1.1483,0.0,0.0,0.0,0.0,0.0,0.0,0.0,0.0,-1.017,-1.0785,-1.1597,-1.2592,-1.2892,-1.3367,-1.3982,-1.3982,-1.347,-1.2541,-1.2153,-1.1178,0.0,0.0,0.0,0.0,0.0,-0.5701,0.0,0.0,0.0,0.0,0.0,0.0,0.0,0.0,0.0,0.0,0.0,0.0,0.0,0.0,0.0,0.0,0.0,-0.8922,-0.8861,-0.9035,-0.882,-0.856,-0.8532,-0.8008,0.0,-0.7488,-0.6745,-0.6238,-0.6773,-0.5699,-0.4981,-0.566,-0.6281,-0.6834,-0.7493,-0.7948,-0.778,-0.6882,-0.6139,0.0,0.0,0.0,0.0,0.0,0.0,0.0,0.0,0.0,-0.4803,-0.4803,-0.4803,-0.4559,-0.3951,-0.3951,-0.3951,-0.3951,-0.3951,-0.3951,-0.3951,-0.3951,0.0,0.0,0.0,0.0,0.0,-0.4368,-0.4392,-0.4398,-0.4454,-0.4511,-0.4563,-0.4571,-0.4609,-0.4658,0.0,0.0,0.0,0.0,0.0,0.0,0.0,0.0,0.0,0.0,-1.0821,-1.0667,-1.0667,-1.0536,-1.0346,0.0,0.0,0.0,0.0,0.0,0.0,0.0,0.0,0.0,-1.0836,-1.1238,-1.2043,-1.3265,-1.3345,-1.3587,-1.3982,-1.3982,-1.3594,-1.2884,-1.2419,-1.087,0.0,0.0,0.0,0.0,-0.5345,-0.5519,0.0,0.0,0.0,0.0,-0.6562,-0.6794,0.0,0.0,0.0,0.0,0.0,0.0,0.0,0.0,-0.817,-0.8211,-0.8256,0.0,-0.8832,-0.8873,-0.8727,-0.8491,0.0,-0.8012,-0.7813,-0.7537,-0.7087,-0.6845,-0.7281,-0.6499,-0.6042,-0.6597,-0.6732,-0.6943,-0.7809,-0.7345,-0.6843,-0.6443,-0.4977,-0.4281,0.0,0.0,0.0,0.0,0.0,0.0,0.0,0.0,-0.4195,-0.4195,-0.4195,-0.4073,-0.3951,-0.3951,-0.3951,-0.3951,-0.3951,-0.3951,-0.3951,-0.3951,0.0,0.0,0.0,0.0,-0.4309,-0.4323,-0.433,-0.4335,-0.4395,-0.4427,-0.445,-0.4541,-0.4582,-0.4601,0.0,0.0,0.0,0.0,0.0,0.0,0.0,0.0,0.0,0.0,0.0,-0.9831,-0.9877,-0.976,0.0,0.0,0.0,0.0,0.0,0.0,0.0,0.0,0.0,-1.1004,-1.1502,-1.1984,-1.2862,-1.4157,-1.4157,-1.4399,-1.4867,-1.4867,-1.4443,-1.3645,-1.2591,-1.0697,0.0,0.0,0.0,-0.5297,-0.5297,0.0,0.0,0.0,0.0,0.0,-0.6429,-0.6724,0.0,-0.7066,-0.7338,-0.7618,0.0,0.0,0.0,0.0,-0.7829,-0.7914,-0.7992,-0.8288,-0.8576,-0.8576,-0.8507,-0.839,-0.8187,-0.8012,-0.7841,-0.765,-0.7446,-0.732,-0.723,-0.6668,-0.6332,-0.659,-0.617,-0.602,-0.6497,-0.7128,-0.6902,-0.5625,-0.5037,0.0,0.0,0.0,0.0,0.0,0.0,0.0,0.0,0.0,-0.3951,-0.3951,-0.3951,-0.3951,-0.3951,-0.3951,-0.3951,-0.3951,-0.3951,-0.3951,-0.3951,-0.3951,0.0,0.0,0.0,0.0,-0.4308,-0.4308,-0.4308,-0.4311,-0.4343,-0.4373,-0.4406,-0.447,-0.451,-0.4541,0.0,0.0,0.0,0.0,0.0,0.0,0.0,0.0,0.0,0.0,0.0,0.0,0.0,0.0,0.0,0.0,0.0,0.0,0.0,0.0,0.0,0.0,-1.1165,-1.178,-1.2036,-1.2797,-1.374,-1.486,-1.4911,-1.5238,-1.5827,-1.5827,-1.526,-1.419,-1.2685,-1.0607,0.0,0.0,-0.6942,-0.5297,-0.5297,0.0,0.0,0.0,0.0,0.0,0.0,0.0,0.0,-0.6974,-0.7151,-0.7411,-0.724,0.0,0.0,0.0,0.0,0.0,-0.7886,-0.8085,-0.8256,-0.8284,-0.8292,-0.8292,-0.8292,-0.8057,-0.7833,-0.7805,-0.7926,-0.773,-0.6994,-0.6669,-0.645,-0.6313,-0.5606,-0.4997,-0.507,-0.6698,-0.7196,-0.4951,-0.536,0.0,0.0,0.0,0.0,0.0,0.0,0.0,0.0,0.0,0.0,-0.3951,-0.3951,-0.3951,-0.3951,-0.3951,-0.3951,-0.3951,-0.3951,-0.3951,-0.3951,-0.3951,0.0,0.0,0.0,0.0,-0.4308,-0.4308,-0.4308,-0.4308,-0.4308,-0.4339,-0.4386,-0.4395,-0.4428,-0.4478,0.0,0.0,0.0,0.0,0.0,0.0,0.0,0.0,0.0,0.0,0.0,0.0,0.0,0.0,0.0,0.0,0.0,0.0,0.0,0.0,0.0,-1.1067,-1.1609,-1.2116,-1.2438,-1.336,-1.4194,-1.486,-1.5218,-1.5372,-1.5555,-1.5648,-1.4767,-1.31,-1.2428,-1.0672,-0.8193,-0.808,-0.6942,-0.5297,-0.5297,0.0,0.0,0.0,0.0,0.0,0.0,0.0,0.0,-0.6684,-0.6972,-0.7232,-0.7054,0.0,0.0,0.0,0.0,0.0,-0.7516,-0.7805,-0.8093,-0.8251,-0.8292,-0.8292,-0.8292,-0.8247,-0.8166,-0.8008,-0.8388,-0.8446,-0.7442,-0.7519,-0.7531,-0.6637,-0.6329,-0.5992,-0.5275,-0.5392,-0.5742,-0.6005,0.0,0.0,0.0,0.0,0.0,0.0,0.0,0.0,0.0,0.0,0.0,-0.3951,-0.3951,-0.3951,-0.3951,-0.3951,-0.3951,-0.3951,-0.3951,-0.3951,-0.3951,-0.3951,-0.4014,0.0,0.0,-0.4195,-0.4308,-0.4308,-0.4308,-0.4308,-0.4308,-0.4313,-0.4327,-0.4379,-0.4403,-0.442,0.0,0.0,0.0,0.0,0.0,0.0,0.0,0.0,0.0,0.0,0.0,0.0,0.0,0.0,0.0,0.0,0.0,0.0,0.0,0.0,0.0,-1.0799,-1.1906,-1.2762,-1.3301,-1.3923,-1.4561,-1.5209,-1.5529,-1.5589,-1.5368,-1.5035,-1.4142,-1.2739,-1.2363,-1.0644,-0.808,-0.8027,-0.6942,-0.5297,0.0,0.0,0.0,0.0,0.0,0.0,0.0,0.0,0.0,0.0,-0.6781,-0.7029,-0.6753,0.0,0.0,0.0,0.0,0.0,-0.7407,-0.7675,-0.7967,-0.8345,-0.8438,-0.8467,-0.8556,-0.8576,-0.858,-0.8597,-0.8824,-0.8599,-0.7386,-0.7092,-0.6588,-0.5031,-0.5324,-0.5435,-0.4832,-0.5571,-0.5886,0.0,0.0,0.0,0.0,0.0,0.0,0.0,0.0,0.0,0.0,0.0,0.0,0.0,-0.3951,-0.3951,-0.3951,-0.3951,-0.3951,-0.3951,-0.3951,-0.3951,-0.3951,-0.3951,-0.4014,-0.4125,0.0,-0.4195,-0.4308,-0.4308,-0.4308,-0.4308,-0.4308,-0.4308,-0.4311,-0.4339,-0.4371,-0.4402,0.0,0.0,0.0,0.0,0.0,0.0,0.0,0.0,0.0,0.0,0.0,0.0,0.0,0.0,0.0,0.0,0.0,0.0,0.0,0.0,-0.9959,-1.0425,-1.1857,-1.3,-1.3925,-1.4481,-1.4996,-1.5461,-1.5799,-1.5741,-1.5207,-1.4594,-1.3622,-1.2592,-1.2291,-1.0644,-0.8198,-0.8027,-0.7057,-0.5513,0.0,0.0,0.0,0.0,0.0,0.0,0.0,0.0,0.0,0.0,0.0,0.0,0.0,0.0,0.0,-0.6473,-0.6672,-0.7101,-0.7387,-0.7618,-0.7898,-0.8483,-0.8597,-0.8613,-0.8783,-0.882,-0.8848,-0.8954,-0.8818,-0.8318,-0.7013,-0.6117,-0.525,-0.3917,-0.437,-0.4631,-0.4218,0.0,0.0,0.0,0.0,0.0,0.0,0.0,0.0,0.0,0.0,0.0,0.0,0.0,0.0,0.0,-0.3951,-0.3951,-0.3951,-0.3951,-0.3951,-0.3951,-0.3951,-0.3951,-0.3951,-0.3951,-0.4014,-0.4125,-0.4125,-0.4195,-0.4308,-0.4308,-0.4308,-0.4308,-0.4308,-0.4308,-0.4308,-0.4308,-0.4337,-0.4377,0.0,0.0,0.0,0.0,0.0,0.0,0.0,0.0,0.0,0.0,0.0,0.0,0.0,0.0,0.0,0.0,0.0,0.0,0.0,0.0,-0.9315,-1.0648,-1.1316,-1.2332,-1.3768,-1.4913,-1.5405,-1.5203,-1.6052,-1.6097,-1.5246,-1.4494,-1.3507,-1.2291,-1.2069,-1.0711,-0.8715,-0.8198,-0.7281,-0.61,-0.5513,0.0,0.0,0.0,0.0,0.0,0.0,0.0,0.0,0.0,0.0,0.0,0.0,0.0,-0.666,-0.6473,-0.6672,-0.7101,-0.7387,-0.7618,-0.7927,-0.8629,-0.8682,-0.8613,-0.8783,-0.882,-0.8779,-0.8633,-0.8005,-0.7191,-0.6096,-0.4866,-0.4267,-0.484,-0.4521,-0.4043,0.0,0.0,0.0,0.0,0.0,0.0,0.0,0.0,0.0,0.0,0.0,0.0,0.0,0.0,0.0,0.0,0.0,-0.3951,-0.3951,-0.3951,-0.3951,-0.3951,-0.3951,-0.3951,-0.3951,-0.3951,-0.4014,-0.4125,-0.4125,-0.4195,-0.4308,-0.4308,-0.4308,-0.4308,-0.4308,-0.4308,-0.4308,-0.4308,-0.4311,-0.4313,0.0,0.0,0.0,0.0,0.0,0.0,0.0,0.0,0.0,0.0,0.0,0.0,0.0,0.0,0.0,0.0,0.0,0.0,0.0,-0.8375,-0.8839,-0.9367,-1.0166,-1.1266,-1.2862,-1.4679,-1.5602,-1.5514,-1.5555,-1.5418,-1.5,-1.3978,-1.31,-1.2278,-1.1804,-1.0743,-0.9328,-0.8394,-0.7507,-0.6683,-0.5716,-0.5297,0.0,0.0,0.0,0.0,0.0,0.0,0.0,0.0,-0.6006,-0.6229,-0.6124,-0.629,-0.6485,-0.6302,-0.6664,-0.7151,-0.7285,-0.778,-0.8353,-0.8727,-0.8938,-0.9047,-0.9003,-0.8995,-0.8974,-0.8909,-0.8203,-0.7179,-0.601,-0.454,-0.3739,-0.4402,-0.3993,0.0,0.0,0.0,0.0,0.0,0.0,0.0,0.0,0.0,0.0,0.0,0.0,0.0,0.0,0.0,0.0,0.0,0.0,-0.3951,-0.3951,-0.3951,-0.3951,-0.3951,-0.3951,-0.3951,-0.3951,-0.3951,-0.4014,-0.4125,-0.4125,-0.4195,-0.4308,-0.4308,-0.4308,-0.4308,-0.4308,-0.4308,-0.4308,-0.4308,-0.4308,-0.4308,0.0,0.0,0.0,0.0,0.0,0.0,0.0,0.0,0.0,0.0,0.0,0.0,0.0,0.0,0.0,0.0,0.0,0.0,-0.7634,-0.7944,-0.8261,-0.8466,-0.9081,-1.0193,-1.1899,-1.4009,-1.519,-1.5305,-1.5013,-1.4804,-1.4749,-1.3702,-1.2986,-1.2559,-1.177,-1.0902,-0.9888,-0.8615,-0.7763,-0.7245,-0.5897,-0.5456,0.0,0.0,0.0,0.0,0.0,0.0,0.0,0.0,-0.5774,-0.5986,-0.6038,-0.6225,-0.6416,-0.647,-0.683,-0.7322,-0.7378,-0.7927,-0.8536,-0.8763,-0.9003,-0.9157,-0.9039,-0.9056,-0.8987,-0.8552,-0.7872,-0.6867,-0.5404,-0.4433,-0.3878,0.0,-0.3797,0.0,0.0,0.0,0.0,0.0,0.0,0.0,0.0,0.0,0.0,0.0,0.0,0.0,0.0,0.0,0.0,0.0,0.0,0.0,-0.3951,-0.3951,-0.3951,-0.3951,-0.3951,-0.3951,-0.3951,-0.3951,-0.4014,-0.4125,-0.4125,-0.4195,-0.4308,-0.4308,-0.4308,-0.4308,-0.4308,-0.4308,-0.4308,-0.4308,-0.4308,-0.4308,0.0,0.0,0.0,0.0,0.0,0.0,0.0,0.0,0.0,0.0,0.0,0.0,0.0,0.0,0.0,0.0,0.0,0.0,-0.7634,-0.7381,-0.7532,-0.8173,-0.8367,-0.9201,-1.0723,-1.2835,-1.4078,-1.4529,-1.4529,-1.4522,-1.4489,-1.3621,-1.3206,-1.3146,-1.1957,-1.1102,-1.0478,-0.885,-0.8066,-0.7741,-0.6215,-0.5841,-0.61,0.0,0.0,0.0,0.0,0.0,0.0,0.0,-0.5608,-0.5705,-0.6245,-0.6416,-0.6489,-0.6851,-0.7208,-0.7525,-0.7711,-0.8024,-0.8377,-0.8731,-0.882,-0.8824,-0.8824,-0.8966,-0.8765,-0.7478,-0.6747,-0.5804,-0.442,-0.463,0.0,-0.4341,0.0,0.0,0.0,0.0,0.0,0.0,0.0,0.0,0.0,0.0,0.0,0.0,0.0,0.0,0.0,0.0,0.0,0.0,0.0,0.0,-0.3951,-0.3951,-0.3951,-0.3951,-0.3951,-0.3951,-0.3951,-0.3951,-0.4014,-0.4125,-0.4125,-0.4195,-0.4308,-0.4308,-0.4308,-0.4308,-0.4308,-0.4308,-0.4308,-0.4308,-0.4308,-0.4308,0.0,0.0,0.0,0.0,0.0,0.0,0.0,0.0,0.0,0.0,0.0,0.0,0.0,0.0,0.0,0.0,0.0,0.0,-0.7634,-0.7121,-0.688,-0.6953,-0.792,-0.8626,-0.9018,-1.1239,-1.3283,-1.5137,-1.493,-1.4516,-1.3901,-1.3634,-1.3066,-1.2251,-1.1897,-1.1303,-1.0478,-0.885,-0.8089,-0.7868,-0.637,-0.5735,-0.558,0.0,0.0,0.0,0.0,0.0,0.0,0.0,0.0,0.0,-0.6095,-0.6314,-0.6513,-0.7001,-0.7399,-0.7691,-0.7744,-0.8203,-0.8658,-0.8645,-0.8828,-0.9015,-0.9015,-0.8487,-0.7535,-0.5769,-0.5236,-0.4922,-0.4219,-0.3932,0.0,0.0,0.0,0.0,0.0,0.0,0.0,0.0,0.0,0.0,0.0,0.0,0.0,0.0,0.0,0.0,0.0,0.0,0.0,0.0,0.0,0.0,-0.3951,-0.3951,-0.3951,-0.3951,-0.3951,-0.3951,-0.3951,-0.3951,-0.4014,-0.4125,-0.4125,-0.4195,-0.4308,-0.4308,-0.4308,-0.4308,-0.4308,-0.4308,-0.4308,-0.4308,-0.4308,-0.4308,0.0,0.0,0.0,0.0,0.0,0.0,0.0,0.0,0.0,0.0,-0.8697,-0.8804,0.0,0.0,0.0,0.0,0.0,0.0,-0.7849,-0.7285,-0.6862,-0.6785,-0.7386,-0.8025,-0.8572,-0.9873,-1.1678,-1.3998,-1.3853,-1.3646,-1.3467,-1.302,-1.2655,-1.2385,-1.2031,-1.145,-1.0651,-0.907,-0.8265,-0.7946,-0.651,-0.5831,-0.575,0.0,0.0,0.0,0.0,0.0,0.0,0.0,0.0,0.0,-0.5929,-0.6164,-0.6416,-0.696,-0.7423,-0.7793,-0.7931,-0.8385,-0.8796,-0.8694,-0.8828,-0.893,-0.86,-0.803,-0.7224,-0.5572,-0.5344,-0.5107,-0.3929,-0.3878,0.0,0.0,0.0,0.0,0.0,0.0,0.0,0.0,0.0,0.0,0.0,0.0,0.0,0.0,0.0,0.0,0.0,0.0,0.0,0.0,0.0,0.0,-0.3951,-0.3951,-0.3951,-0.3951,-0.3951,-0.3951,-0.3951,-0.3951,-0.4014,-0.4128,-0.4177,-0.424,-0.4308,-0.4308,-0.4308,-0.4308,-0.4308,-0.4308,-0.4308,-0.4308,-0.4308,-0.4308,0.0,0.0,0.0,0.0,0.0,0.0,0.0,0.0,0.0,-0.8764,-0.8744,-0.8724,0.0,0.0,0.0,-0.8724,-0.8698,-0.8511,-0.8175,-0.7633,-0.7303,-0.7233,-0.6903,-0.7432,-0.9036,-0.8962,-0.9805,-1.1708,-1.1823,-1.233,-1.3002,-1.2092,-1.2085,-1.2975,-1.2238,-1.151,-1.083,-0.9344,-0.8476,-0.7958,-0.6525,-0.6125,-0.6308,-0.5772,0.0,0.0,0.0,0.0,0.0,0.0,0.0,0.0,-0.5774,-0.6068,-0.6322,-0.6884,-0.7425,-0.7841,-0.8215,-0.8552,-0.88,-0.8816,-0.8832,-0.8654,-0.7934,-0.7914,-0.7637,-0.6382,-0.6348,-0.5846,-0.3643,0.0,0.0,0.0,0.0,0.0,0.0,0.0,0.0,0.0,0.0,0.0,0.0,0.0,0.0,0.0,0.0,0.0,0.0,0.0,0.0,0.0,0.0,0.0,-0.3951,-0.3951,-0.3951,0.0,-0.3951,-0.3951,-0.3951,-0.3951,-0.4014,-0.4132,-0.4248,-0.4303,-0.4308,-0.4308,-0.4308,-0.4308,-0.4308,-0.4308,-0.4308,-0.4308,-0.4308,-0.4308,0.0,0.0,0.0,0.0,0.0,0.0,0.0,0.0,-0.847,-0.847,-0.8263,-0.8074,-0.8074,-0.8074,0.0,-0.8074,-0.7917,-0.7789,-0.7901,-0.7544,-0.7165,-0.6824,-0.675,-0.7427,-0.8891,-0.9224,-0.9561,-1.0013,-1.1064,-1.1701,-1.1905,-1.2312,-1.208,-1.1267,-1.1664,-1.1283,-1.019,-0.907,-0.7979,-0.7045,-0.6382,-0.5847,-0.5441,-0.5563,-0.5446,0.0,0.0,0.0,0.0,0.0,0.0,0.0,-0.5774,-0.6068,-0.6342,-0.6964,-0.7447,-0.787,-0.8373,-0.8564,-0.8653,-0.8787,-0.893,-0.8999,-0.9017,-0.9073,-0.8411,-0.5698,-0.5185,-0.4756,0.0,0.0,0.0,0.0,0.0,0.0,0.0,0.0,0.0,0.0,0.0,0.0,0.0,0.0,0.0,0.0,0.0,0.0,0.0,0.0,0.0,0.0,0.0,-0.3951,-0.3951,-0.3951,-0.3951,0.0,-0.3951,-0.3951,-0.3951,-0.3951,-0.4014,-0.413,-0.4204,-0.4263,-0.4308,-0.4308,-0.4308,-0.4308,-0.4308,-0.4308,-0.4308,-0.4308,-0.4308,-0.4308,0.0,0.0,0.0,0.0,0.0,0.0,0.0,0.0,-0.8427,-0.8427,-0.8116,-0.7882,-0.7882,-0.7882,0.0,0.0,-0.7772,-0.7822,-0.8055,-0.7728,-0.7359,-0.7011,-0.683,-0.7005,-0.7624,-0.816,-0.8638,-0.8948,-0.9697,-1.0454,-1.1253,-1.1331,-1.1249,-1.1013,-1.1372,-1.0817,-0.9688,-0.8765,-0.7708,-0.6628,-0.6194,-0.5746,-0.5356,-0.5543,-0.5446,-0.5297,-0.5297,0.0,0.0,0.0,0.0,0.0,0.0,0.0,-0.5998,-0.6546,-0.7086,-0.7638,-0.8264,-0.8499,-0.8589,-0.8678,-0.8901,-0.912,-0.921,-0.9437,-0.895,-0.6807,-0.5967,0.0,0.0,0.0,0.0,0.0,0.0,0.0,0.0,0.0,0.0,0.0,0.0,0.0,0.0,0.0,0.0,0.0,0.0,0.0,0.0,0.0,0.0,0.0,-0.3951,-0.3951,-0.3951,-0.3951,-0.3951,-0.3951,-0.3951,-0.3951,-0.3951,-0.3978,-0.404,-0.413,-0.4189,-0.4251,-0.4308,-0.4308,-0.4308,-0.4308,-0.4308,-0.4308,-0.4308,-0.4308,-0.4308,-0.4308,0.0,0.0,0.0,0.0,0.0,0.0,0.0,0.0,0.0,-0.8303,-0.8036,-0.7829,-0.7729,-0.7729,-0.7729,0.0,0.0,0.0,-0.8277,-0.7921,-0.7609,-0.7295,-0.6968,-0.6682,-0.6488,-0.7189,-0.7885,-0.8632,-0.857,-0.9303,-1.0842,-1.0233,-1.0336,-1.1132,-1.0983,-1.0263,-0.9175,-0.8477,-0.7475,-0.6445,-0.6075,-0.5787,-0.5571,-0.56,-0.5446,-0.5297,-0.5297,0.0,0.0,0.0,0.0,0.0,0.0,0.0,-0.5681,-0.6104,-0.6635,-0.733,-0.8012,-0.8381,-0.858,-0.8645,-0.8881,-0.9104,-0.9137,-0.9393,-0.9327,-0.8223,0.0,0.0,0.0,0.0,0.0,0.0,0.0,0.0,0.0,0.0,0.0,0.0,0.0,0.0,0.0,0.0,0.0,0.0,0.0,0.0,0.0,0.0,-0.3951,-0.3951,-0.3951,-0.3951,-0.3951,-0.3951,-0.3951,-0.3951,-0.3951,-0.3951,-0.3952,-0.3999,-0.4053,-0.4113,-0.4174,-0.4236,-0.4293,-0.4304,-0.4308,-0.4308,-0.4308,-0.4308,-0.4308,-0.4308,-0.4308,-0.4308,0.0,0.0,0.0,0.0,0.0,0.0,0.0,0.0,0.0,0.0,-0.7722,-0.7428,-0.7174,-0.7069,-0.7032,-0.7032,-0.7255,-0.7524,-0.7758,0.0,0.0,-0.73,-0.7219,-0.7359,-0.756,-0.8263,-0.8925,-0.9506,-0.923,-0.9464,-1.0241,-1.0431,-1.0315,-1.0038,-1.0484,-0.9965,-0.8841,-0.8287,-0.7323,-0.6248,-0.6155,-0.5819,-0.5349,-0.5555,-0.5446,-0.5297,-0.5297,-0.5297,-0.5297,-0.5297,-0.5297,0.0,0.0,0.0,-0.5681,-0.6104,-0.6613,-0.7183,-0.7679,-0.8191,-0.8641,-0.895,-0.906,-0.9137,-0.9287,-0.9482,-0.9327,0.0,0.0,0.0,0.0,0.0,0.0,0.0,0.0,0.0,0.0,0.0,0.0,0.0,0.0,0.0,0.0,0.0,0.0,0.0,0.0,0.0,0.0,-0.3884,-0.3951,-0.3951,-0.3951,-0.3951,-0.3951,-0.3951,-0.3951,-0.3951,-0.3951,-0.3951,-0.3951,-0.3958,-0.3993,-0.405,-0.4112,-0.4172,-0.4233,-0.4286,-0.4308,-0.4308,-0.4308,-0.4308,-0.4308,-0.4308,-0.4308,-0.4172,0.0,0.0,0.0,0.0,0.0,0.0,0.0,0.0,0.0,0.0,0.0,-0.7459,-0.7281,-0.7085,-0.6943,-0.6943,-0.7062,-0.7333,-0.7795,-0.7554,-0.7461,-0.7652,-0.7335,-0.7279,-0.7386,-0.8003,-0.8429,-0.8675,-0.8731,-0.9225,-1.0114,-1.0087,-1.0128,-1.0212,-1.0151,-0.9436,-0.8322,-0.7952,-0.7037,-0.5867,-0.6092,-0.6067,-0.5888,-0.5917,-0.5986,-0.6079,-0.5986,-0.5823,-0.5653,-0.5653,-0.5466,-0.5297,-0.5297,0.0,0.0,0.0,-0.6156,-0.6684,-0.7529,-0.8154,-0.8605,-0.8763,-0.8873,-0.8991,-0.9169,-0.9348,-0.9405,0.0,0.0,0.0,0.0,0.0,0.0,0.0,0.0,0.0,0.0,0.0,0.0,0.0,0.0,0.0,0.0,0.0,0.0,0.0,0.0,0.0,0.0,-0.3884,-0.3951,-0.3951,-0.3951,0.0,-0.3951,-0.3951,-0.3951,-0.3951,-0.3951,-0.3951,-0.3951,-0.3951,-0.3981,-0.4036,-0.4063,-0.4128,-0.4218,-0.4245,-0.4277,-0.4308,-0.4308,-0.4308,-0.4308,-0.4308,-0.3902,-0.3363,0.0,0.0,0.0,0.0,0.0,0.0,0.0,0.0,0.0,0.0,0.0,-0.7479,-0.7361,0.0,0.0,0.0,-0.6985,-0.7211,-0.7782,-0.7604,-0.7572,-0.7763,-0.7469,-0.7295,-0.7295,-0.7759,-0.8106,-0.8249,-0.8339,-0.8971,-1.0107,-0.982,-1.0,-1.0604,-1.0107,-0.9223,-0.7968,-0.7789,-0.6937,-0.5778,-0.6203,-0.6339,-0.6416,-0.6363,-0.6352,-0.6386,-0.6463,-0.6181,-0.5751,-0.5872,-0.5709,0.0,0.0,0.0,0.0,0.0,0.0,-0.6367,-0.7407,-0.7983,-0.8345,-0.8576,-0.8727,-0.8869,-0.9056,0.0,-0.934,0.0,0.0,0.0,0.0,0.0,0.0,0.0,0.0,0.0,0.0,0.0,0.0,0.0,0.0,0.0,0.0,0.0,0.0,0.0,0.0,0.0,-0.3768,-0.3869,-0.3935,-0.395,-0.3951,-0.3951,-0.3951,-0.3951,-0.3951,-0.3951,-0.3951,-0.3951,-0.3951,-0.3951,-0.3974,-0.4014,-0.4029,-0.4086,-0.4172,-0.4204,-0.4243,-0.4286,-0.4301,-0.4308,-0.4307,-0.4038,-0.3363,-0.2555,0.0,0.0,0.0,0.0,0.0,0.0,0.0,0.0,0.0,0.0,0.0,-0.7361,-0.7074,-0.6956,-0.6914,-0.6914,-0.6914,-0.7082,-0.7468,-0.7492,-0.7488,-0.7506,-0.7739,0.0,-0.7871,-0.8216,-0.8612,-0.9108,-0.8651,-0.8971,-1.0107,-0.982,-1.0,-1.0624,-1.0591,-0.9513,-0.7849,-0.796,-0.7303,-0.6211,-0.6518,-0.6566,-0.6457,-0.6786,-0.6324,-0.551,-0.639,-0.6097,-0.54,0.0,0.0,0.0,0.0,0.0,0.0,0.0,0.0,0.0,-0.7253,-0.7516,-0.7744,-0.8597,-0.8812,-0.8869,-0.9056,0.0,0.0,0.0,0.0,0.0,0.0,0.0,0.0,0.0,0.0,0.0,0.0,0.0,0.0,0.0,0.0,0.0,0.0,0.0,0.0,0.0,0.0,0.0,-0.3766,-0.383,-0.3891,-0.3948,-0.3951,-0.3951,-0.3951,-0.3951,-0.3951,-0.3951,-0.3951,-0.3951,-0.3951,-0.3951,-0.3952,-0.3958,-0.4011,-0.4038,-0.4053,-0.4169,-0.4218,-0.4228,-0.4285,-0.4308,-0.4172,-0.3094,-0.269,-0.2421,0.0,0.0,0.0,0.0,0.0,0.0,0.0,0.0,0.0,0.0,0.0,0.0,0.0,-0.7218,-0.6943,-0.6943,-0.6943,-0.7111,-0.7493,-0.7661,-0.7869,-0.8049,-0.7949,-0.801,-0.821,-0.8126,-0.8191,-0.8346,-0.8383,-0.8778,-0.9495,-0.9446,-0.9713,-1.0254,-0.988,-0.9045,-0.7898,-0.7597,-0.6883,-0.6022,-0.6501,-0.6859,-0.7114,-0.7244,-0.6927,-0.6341,-0.6553,-0.6311,-0.5811,0.0,0.0,0.0,0.0,0.0,0.0,-0.5374,-0.5701,-0.6099,-0.6652,-0.7054,-0.7476,-0.8138,-0.839,-0.8556,-0.8852,-0.8922,0.0,0.0,0.0,0.0,0.0,0.0,0.0,0.0,0.0,0.0,0.0,0.0,0.0,0.0,0.0,0.0,0.0,0.0,0.0,0.0,0.0,0.0,-0.3766,-0.3827,-0.3888,-0.3948,-0.3951,-0.3951,-0.3951,-0.3951,-0.3951,-0.3951,-0.3951,-0.3951,-0.3951,-0.3951,-0.3951,-0.3952,-0.3971,-0.4001,-0.4041,-0.4124,-0.4181,-0.4222,-0.4283,-0.4308,-0.4172,-0.3094,-0.2286,-0.1479,0.0,0.0,0.0,0.0,0.0,0.0,0.0,0.0,0.0,-0.9055,0.0,0.0,0.0,0.0,-0.7168,-0.7168,-0.7168,-0.7255,-0.75,-0.7662,-0.7862,-0.8111,-0.7986,-0.7999,-0.823,-0.7948,-0.7853,-0.8076,-0.807,-0.847,-0.9183,-0.9084,-0.9412,-0.9947,-0.9359,-0.8627,-0.7898,-0.741,-0.6754,-0.6026,-0.6631,-0.7045,-0.7346,-0.7707,-0.7484,0.0,0.0,0.0,0.0,0.0,0.0,0.0,0.0,0.0,0.0,-0.5317,-0.5466,-0.5787,-0.6144,-0.6591,-0.711,-0.7764,-0.802,-0.8235,-0.871,-0.8727,0.0,0.0,0.0,0.0,0.0,0.0,0.0,0.0,0.0,0.0,0.0,0.0,0.0,0.0,0.0,0.0,0.0,0.0,0.0,0.0,0.0,0.0,-0.3736,-0.3797,-0.3867,-0.3948,-0.3951,-0.3951,-0.3951,-0.3951,-0.3951,-0.3951,-0.3951,-0.3951,-0.3951,-0.3951,-0.3951,-0.3951,-0.3951,-0.3971,-0.4011,-0.4071,-0.4131,-0.4192,-0.4253,-0.402,-0.3632,-0.2555,-0.1479,-0.0403,0.0,0.0,0.0,0.0,0.0,0.0,0.0,0.0,-0.9606,-0.9606,0.0,0.0,0.0,0.0,0.0,-0.7527,-0.7513,-0.7513,-0.7513,-0.7513,-0.7513,-0.7513,-0.7762,-0.7882,-0.7868,-0.7629,-0.7815,-0.8357,-0.7822,-0.8083,-0.9163,-0.8938,-0.9112,-0.9633,-0.9058,-0.8386,-0.7758,-0.7333,-0.6818,-0.6281,0.0,-0.7123,-0.7171,0.0,0.0,0.0,-0.8208,-0.7404,0.0,-0.6054,0.0,0.0,0.0,0.0,0.0,-0.5357,-0.5305,-0.5374,0.0,0.0,0.0,-0.7508,-0.7736,0.0,-0.8637,0.0,0.0,0.0,0.0,0.0,0.0,0.0,0.0,0.0,0.0,0.0,0.0,0.0,0.0,0.0,0.0,0.0,0.0,0.0,0.0,0.0,0.0,-0.3615,-0.3674,-0.3737,-0.3826,-0.3944,-0.395,-0.3951,-0.3951,-0.3951,-0.3951,-0.3951,-0.3951,-0.3951,-0.3951,-0.3951,-0.3951,-0.3951,-0.3951,-0.3951,-0.3955,-0.4011,-0.407,-0.413,-0.4192,-0.3586,-0.2554,-0.1478,-0.0403,0.0673,0.0,0.0,0.0,0.0,0.0,-1.0186,-1.0186,-1.0186,-1.0186,0.0,0.0,0.0,-0.962,-0.8894,-0.8201,-0.7849,-0.7595,-0.7513,-0.7513,-0.7513,-0.7513,-0.7513,-0.7762,-0.7822,-0.7595,-0.7729,-0.7882,-0.8049,-0.8193,-0.8541,-0.9078,-0.8996,-0.9051,-0.9146,-0.8485,-0.7741,-0.709,-0.7167,-0.6899,-0.6384,-0.6842,-0.7305,0.0,0.0,0.0,0.0,0.0,-0.6163,-0.5772,0.0,-0.5716,-0.579,0.0,0.0,-0.5774,-0.5592,-0.5398,-0.5349,-0.5628,0.0,0.0,0.0,0.0,0.0,0.0,0.0,0.0,0.0,0.0,0.0,0.0,0.0,0.0,0.0,0.0,0.0,0.0,0.0,0.0,0.0,0.0,0.0,0.0,0.0,0.0,0.0,0.0,-0.3615,-0.3674,-0.3778,-0.385,-0.3884,-0.3928,-0.3951,-0.3951,-0.3951,-0.3951,-0.3951,-0.3951,-0.3951,-0.3951,-0.3951,-0.3951,-0.3951,-0.3951,-0.3951,-0.3955,-0.4011,-0.4045,-0.3943,-0.326,-0.2904,-0.2386,-0.067,0.0269,0.0673,0.0,0.0,-1.1619,-1.1619,-1.1351,-1.1192,-1.1345,-1.137,-1.143,0.0,0.0,0.0,-1.0148,-0.9365,-0.8713,-0.8136,-0.7949,-0.7836,-0.7669,-0.7662,-0.7647,-0.7565,-0.7809,-0.7875,-0.7661,-0.7664,-0.7813,-0.8065,-0.8215,-0.8504,-0.8875,-0.8947,-0.9008,-0.8956,-0.8474,-0.7838,-0.7121,-0.7378,-0.6954,0.0,-0.6879,0.0,0.0,-0.8182,-0.813,0.0,0.0,0.0,-0.6563,-0.6198,-0.6213,0.0,0.0,0.0,0.0,-0.5823,-0.56,-0.541,-0.5438,-0.5636,-0.588,-0.6339,0.0,0.0,0.0,-0.8126,0.0,0.0,0.0,0.0,0.0,0.0,0.0,0.0,0.0,0.0,0.0,0.0,0.0,0.0,0.0,0.0,0.0,0.0,0.0,0.0,-0.3587,-0.3615,-0.3674,-0.3745,-0.3808,-0.3858,-0.3894,-0.3925,-0.3951,-0.3951,-0.3951,-0.3951,-0.3951,-0.3951,-0.3951,-0.3951,-0.3951,-0.3951,-0.3951,-0.3703,-0.3334,-0.3362,-0.3386,-0.341,-0.2827,-0.2084,-0.1186,-0.0,0.0804,0.1346,0.0,0.0,-1.2076,-1.2076,-1.2076,-1.2223,-1.2724,-1.2752,-1.2899,0.0,-1.3019,-1.218,-1.0661,-0.993,-0.9275,-0.8718,-0.8481,-0.8277,-0.8043,-0.7936,-0.7822,-0.767,-0.7969,-0.8082,-0.794,-0.7659,-0.7748,-0.8294,-0.8067,-0.8229,-0.8699,-0.8933,-0.8974,-0.8956,-0.8857,-0.83,-0.7359,-0.7746,-0.701,-0.575,-0.6985,-0.7427,0.0,0.0,-0.8775,-0.8796,-0.8721,-0.8257,-0.767,-0.7227,-0.6949,0.0,0.0,0.0,0.0,0.0,-0.5783,-0.5482,-0.541,-0.5454,-0.5693,-0.6092,0.0,0.0,-0.7642,-0.7797,0.0,0.0,0.0,0.0,0.0,0.0,0.0,0.0,0.0,0.0,0.0,0.0,0.0,0.0,0.0,0.0,0.0,0.0,0.0,-0.3576,-0.3583,-0.361,-0.3665,-0.3674,-0.3728,-0.3837,-0.3853,-0.3886,-0.394,-0.3947,-0.3951,-0.3951,-0.3951,-0.3951,-0.3951,-0.3951,-0.3951,-0.3951,-0.3951,-0.3455,-0.259,-0.259,-0.2487,-0.2392,-0.227,-0.1154,0.0525,0.0658,0.1327,0.2145,-1.1902,-1.207,-1.2076,-1.2076,-1.2076,-1.2324,-1.3057,-1.2883,-1.3101,-1.413,-1.415,-1.3696,-1.2651,-1.1912,-1.118,-1.0353,-0.9093,-0.8501,-0.8772,-0.8112,-0.7877,-0.815,-0.8219,-0.8266,-0.8203,-0.8147,-0.8175,-0.8294,-0.8371,-0.8528,-0.8841,-0.8898,-0.8762,-0.8527,-0.8956,-0.8031,-0.6261,-0.7389,-0.7136,-0.6103,-0.711,0.0,-0.8105,-0.8312,-0.8487,-0.8545,-0.7948,-0.7479,-0.7214,-0.716,-0.7454,-0.7938,0.0,0.0,0.0,-0.6474,-0.5866,-0.5226,-0.5687,-0.5697,-0.5665,-0.5884,-0.6071,0.0,-0.6838,-0.7257,-0.7659,0.0,0.0,0.0,0.0,0.0,0.0,0.0,0.0,0.0,0.0,0.0,0.0,0.0,0.0,0.0,0.0,0.0,-0.3466,-0.3511,-0.3559,-0.3593,-0.3604,-0.3651,-0.3689,-0.3713,-0.3809,-0.3865,-0.3877,-0.3927,-0.3951,-0.3951,-0.3951,-0.3951,-0.3951,-0.3951,-0.3951,-0.3951,-0.3951,-0.3826,-0.358,-0.2837,-0.1977,-0.124,-0.0377,0.0127,0.0638,0.1437,0.1966,0.2085,-1.1783,-1.1938,-1.2076,-1.2076,-1.2291,-1.2645,-1.3461,-1.3589,-1.3947,-1.4964,-1.4782,-1.4266,-1.3447,-1.2472,-1.1473,-1.0512,-0.959,-0.9079,-0.9234,-0.8673,-0.8497,-0.8841,-0.8693,-0.8663,-0.8726,-0.8726,-0.8576,-0.8253,-0.8504,-0.8497,-0.8299,-0.8622,-0.8703,-0.854,-0.853,-0.8057,-0.7356,-0.8066,-0.786,-0.7103,-0.7411,0.0,-0.8174,-0.8357,-0.854,-0.8613,-0.8242,-0.8035,-0.7968,-0.7968,-0.8182,0.0,0.0,-0.736,-0.6551,0.0,-0.6128,-0.5266,-0.586,-0.5884,-0.577,-0.5864,-0.5953,0.0,0.0,0.0,-0.7102,0.0,0.0,0.0,0.0,0.0,0.0,0.0,0.0,0.0,0.0,0.0,0.0,0.0,0.0,0.0,0.0,0.0,-0.3391,-0.345,-0.351,-0.3542,-0.3542,-0.36,-0.3647,-0.3677,-0.3737,-0.3783,-0.3815,-0.3875,-0.3905,-0.3906,-0.3936,-0.3951,-0.3951,-0.3951,-0.3951,-0.3828,-0.3455,-0.2961,-0.2343,-0.1356,-0.037,0.0494,0.0497,0.0752,0.1264,0.1796,0.2064,0.2066,-1.1663,-1.1856,-1.2076,-1.2076,-1.2457,-1.2991,-1.3754,-1.424,-1.4827,-1.5698,-1.5283,-1.4655,-1.4053,-1.2756,-1.1594,-1.0725,-1.0194,-0.9931,-0.9797,-0.9494,-0.9402,-0.9599,-0.9291,-0.9228,-0.9351,-0.9233,-0.8853,-0.8202,-0.8465,-0.829,-0.7734,-0.84,-0.8664,-0.8531,-0.8257,-0.8158,-0.8276,-0.8756,0.0,-0.7912,0.0,-0.7957,-0.8158,-0.8528,-0.8775,-0.8917,-0.8885,-0.8873,-0.8873,-0.8873,-0.8848,-0.8775,-0.8528,-0.7808,0.0,0.0,0.0,-0.5604,-0.6102,-0.612,-0.5982,-0.5945,-0.5912,-0.6002,0.0,0.0,0.0,0.0,0.0,0.0,0.0,0.0,0.0,0.0,0.0,0.0,0.0,0.0,0.0,0.0,0.0,0.0,0.0,0.0,-0.3361,-0.3376,-0.3473,-0.3521,-0.3497,-0.3544,-0.3598,-0.3658,-0.3672,-0.3702,-0.3751,-0.3812,-0.3842,-0.3843,-0.3903,-0.3933,-0.3933,-0.3698,-0.358,-0.358,-0.259,-0.1726,-0.0863,0.0123,0.0987,0.1605,0.0987,0.1243,0.2011,0.2016,0.2031,0.2048,-1.2021,-1.2098,-1.2076,-1.2076,-1.2457,-1.2991,-1.3754,-1.424,-1.4928,-1.6092,-1.5919,-1.5564,-1.5424,-1.3863,-1.2804,-1.2575,-1.1496,0.0,-1.085,-1.0551,-1.0427,-1.0435,-1.0163,-0.9994,-0.9994,-0.946,-0.8853,-0.8202,-0.8238,-0.807,-0.7734,-0.8376,-0.8456,-0.8017,-0.8676,-0.808,-0.6789,0.0,-0.8514,0.0,-0.8673,-0.8914,0.0,-0.8901,-0.9145,-0.9275,-0.912,-0.9064,-0.9064,0.0,-0.8958,-0.884,0.0,-0.8246,-0.7392,-0.7836,0.0,-0.6244,-0.653,-0.6497,-0.6319,0.0,-0.6002,0.0,0.0,0.0,-0.6014,0.0,0.0,0.0,0.0,0.0,0.0,0.0,0.0,0.0,0.0,0.0,0.0,0.0,0.0,0.0,0.0,0.0,0.0,-0.3263,-0.3503,-0.361,-0.3501,-0.3503,-0.3536,-0.3595,-0.365,-0.3681,-0.3688,-0.3749,-0.3779,-0.3781,-0.3841,-0.3871,-0.3872,-0.3065,-0.2714,-0.259,-0.1603,-0.1109,-0.0863,0.0123,0.0616,0.074,0.1481,0.1855,0.1984,0.2009,0.2005,0.199,-1.2129,-1.2076,-1.2076,-1.2076,-1.2608,-1.3222,-1.38,-1.4836,-1.5909,-1.6872,-1.6422,-1.5948,-1.5659,-1.439,-1.3316,-1.2889,0.0,-1.158,0.0,0.0,-1.0732,-1.115,-1.0294,-0.9907,-1.0097,-0.9658,-0.9029,-0.8202,-0.8202,-0.7938,-0.7408,-0.8012,-0.8242,-0.8189,-0.8434,-0.8364,-0.8103,0.0,-0.8909,0.0,0.0,0.0,0.0,-0.8958,-0.9112,-0.9332,-0.9161,-0.9161,-0.923,0.0,-0.9181,0.0,0.0,0.0,0.0,-0.8257,0.0,0.0,0.0,0.0,0.0,0.0,0.0,0.0,-0.5835,0.0,-0.5746,0.0,0.0,0.0,0.0,0.0,0.0,0.0,0.0,0.0,0.0,0.0,0.0,0.0,0.0,0.0,0.0,0.0,0.0,0.0,0.0,-0.3501,-0.345,-0.3478,-0.3525,-0.3585,-0.3612,-0.3625,-0.3625,-0.3685,-0.3717,-0.3718,-0.3778,-0.3569,-0.2975,-0.2658,-0.2191,-0.1582,-0.0614,-0.0123,-0.0,0.0987,0.1358,0.1358,0.1853,0.1977,0.1978,0.199,0.1987,0.1978,-1.2253,-1.2248,-1.2224,-1.2126,-1.2755,-1.3543,-1.4268,-1.5541,-1.6665,-1.7394,-1.6698,-1.6088,-1.5854,-1.45,-1.3376,-1.2943,-1.2485,-1.231,0.0,0.0,-1.1474,-1.1884,-1.0785,-1.0202,-1.0378,-0.978,-0.9116,-0.8334,-0.8158,-0.7873,-0.7466,-0.799,-0.829,-0.8517,-0.8462,-0.8679,-0.9074,0.0,-0.9214,-0.9008,-0.999,-0.9912,-0.9267,-0.9104,-0.9173,-0.9344,-0.9271,-0.9291,-0.9344,-0.9267,-0.938,0.0,-0.9092,0.0,-0.839,0.0,0.0,0.0,-0.7337,0.0,0.0,0.0,0.0,0.0,0.0,0.0,0.0,0.0,0.0,0.0,0.0,0.0,0.0,0.0,0.0,0.0,0.0,0.0,0.0,0.0,0.0,0.0,0.0,0.0,0.0,0.0,0.0,0.0,-0.3367,-0.3433,-0.35,-0.3561,-0.3579,-0.3587,-0.3587,-0.3631,-0.3653,-0.3654,-0.3482,-0.3041,-0.2339,-0.1902,-0.132,-0.0603,0.0488,0.086,0.0987,0.1729,0.1977,0.1977,0.1977,0.1977,0.1977,0.1977,0.1977,0.1977,-1.2593,-1.2578,-1.2578,-1.2175,-1.2755,-1.3818,-1.5386,-1.6216,0.0,0.0,0.0,0.0,0.0,0.0,0.0,0.0,0.0,-1.2997,-1.2627,0.0,-1.3056,-1.2764,-1.1984,-1.1439,0.0,-0.9872,-0.9021,-0.867,-0.8041,-0.788,-0.818,-0.8516,-0.875,-0.8869,-0.917,-0.8965,-0.8527,-0.9691,-0.9368,-0.8135,-0.9452,-0.9589,-0.9141,0.0,-0.9498,-0.9376,-0.9551,0.0,0.0,-0.9551,-0.9498,0.0,0.0,0.0,0.0,0.0,0.0,0.0,0.0,0.0,0.0,-0.7525,0.0,0.0,0.0,0.0,-0.6245,0.0,0.0,0.0,0.0,0.0,0.0,0.0,0.0,0.0,0.0,0.0,0.0,0.0,0.0,0.0,0.0,0.0,0.0,0.0,0.0,0.0,-0.3248,-0.335,-0.3441,-0.3497,-0.3556,-0.3587,-0.3587,-0.359,-0.359,-0.3591,-0.2737,-0.2299,-0.2299,-0.0468,0.0356,0.0361,0.1448,0.1949,0.1977,0.1977,0.1977,0.1977,0.1977,0.1977,0.1977,0.1977,0.1977,0.1977,-1.2711,-1.2616,-1.2541,-1.2054,-1.2484,-1.3479,-1.5232,-1.6002,0.0,0.0,0.0,0.0,0.0,-1.3987,-1.3093,0.0,0.0,-1.2889,-1.2832,-1.2954,0.0,0.0,0.0,-1.1645,0.0,0.0,0.0,-0.9007,-0.8575,-0.8414,-0.8524,-0.8633,-0.8743,-0.8767,-0.9382,-0.9192,0.0,0.0,0.0,0.0,0.0,-0.9581,-0.9579,0.0,0.0,-0.9527,-0.947,-0.9486,0.0,-0.9608,-0.9661,-0.9665,-0.9429,-0.8987,-0.8466,-0.7767,-0.7009,0.0,0.0,0.0,-0.5109,-0.5764,0.0,0.0,0.0,0.0,0.0,0.0,0.0,0.0,0.0,0.0,0.0,0.0,0.0,0.0,0.0,0.0,0.0,0.0,0.0,0.0,0.0,0.0,0.0,0.0,0.0,0.0,0.0,-0.3308,-0.3397,-0.3493,-0.3516,-0.3546,-0.3587,-0.3548,-0.3214,-0.2688,-0.2366,-0.1581,-0.0452,0.0115,0.0814,0.1403,0.1773,0.1918,0.1947,0.1947,0.1958,0.1977,0.1977,0.1977,0.1977,0.1977,0.1977,0.1977,-1.2734,-1.2732,-1.2628,-1.1865,-1.2401,0.0,0.0,0.0,0.0,0.0,-1.6149,0.0,-1.4887,0.0,-1.3317,0.0,-1.3108,-1.3101,-1.3209,-1.3168,0.0,-1.3471,-1.2763,0.0,0.0,0.0,0.0,0.0,0.0,-0.8751,-0.886,-0.886,-0.8802,-0.8758,-0.9576,-0.947,-0.8638,-0.9236,-0.9237,0.0,0.0,-0.9287,0.0,0.0,-0.9348,0.0,0.0,-0.9567,-0.9709,-0.9648,-0.9742,-0.9823,-0.9466,-0.8826,-0.8048,-0.7411,-0.6421,-0.5489,-0.5418,-0.4885,0.0,-0.5162,-0.4853,0.0,-0.4752,0.0,0.0,0.0,0.0,0.0,0.0,0.0,0.0,0.0,0.0,0.0,0.0,0.0,0.0,0.0,0.0,0.0,0.0,0.0,0.0,0.0,0.0,0.0,0.0,0.0,-0.3343,-0.3463,-0.3486,-0.3515,-0.3555,-0.3538,-0.3095,-0.2221,-0.19,-0.1009,0.0449,0.0794,0.1258,0.1841,0.1861,0.1887,0.1916,0.1926,0.1943,0.1962,0.1973,0.1977,0.1977,0.1977,0.1977,0.1977,-1.2668,-1.2857,-1.2857,0.0,-1.2586,0.0,0.0,0.0,-1.6112,0.0,-1.5952,-1.5329,-1.4784,-1.4194,-1.3599,-1.3092,-1.3331,0.0,-1.3601,-1.36,0.0,0.0,-1.3498,-1.3054,-1.3223,0.0,0.0,0.0,0.0,0.0,-0.9197,-0.9197,-0.9014,-0.8743,-0.9854,0.0,-0.8685,-0.9442,-0.9336,-0.858,-0.858,-0.8804,-0.9153,-0.9403,0.0,-1.0132,-0.9778,-0.9762,-0.9876,-0.9709,-0.9762,-0.9839,-0.9502,-0.8717,-0.7621,-0.6521,-0.5434,-0.4573,-0.4575,-0.4356,-0.4334,-0.5509,0.0,0.0,0.0,0.0,-0.5017,0.0,0.0,0.0,0.0,0.0,0.0,0.0,0.0,0.0,0.0,0.0,0.0,0.0,0.0,0.0,0.0,0.0,0.0,0.0,0.0,0.0,0.0,0.0,0.0,-0.3403,-0.3463,-0.3493,-0.3496,-0.3555,-0.3112,-0.2081,-0.1224,-0.0336,0.0449,0.1346,0.181,0.1838,0.1838,0.1855,0.1886,0.1917,0.193,0.1934,0.1964,0.1977,0.1977,0.1977,0.1977,0.1977,-1.2765,-1.2733,-1.281,0.0,-1.3753,-1.4582,0.0,0.0,0.0,0.0,-1.5583,-1.4907,-1.4137,-1.3691,-1.3544,-1.3691,-1.3782,0.0,0.0,0.0,0.0,-1.377,-1.3959,-1.3608,-1.2683,-1.2169,0.0,-1.1077,0.0,0.0,-0.9504,-0.9504,-0.9211,-0.8743,-0.9962,-0.9836,-0.868,-0.9588,-0.9494,-0.8755,-0.8935,-0.9316,0.0,0.0,-1.0095,-1.0335,-1.0107,-1.0054,-1.0083,-1.0038,-1.0054,-1.0075,-0.9981,-0.9229,-0.8289,-0.8044,-0.6472,-0.4858,-0.4858,-0.4096,-0.3443,-0.3786,-0.3748,-0.3704,0.0,0.0,0.0,0.0,0.0,0.0,0.0,0.0,0.0,0.0,0.0,0.0,0.0,0.0,0.0,0.0,0.0,0.0,0.0,0.0,0.0,0.0,0.0,0.0,0.0,0.0,0.0,-0.3343,-0.3402,-0.3454,-0.3496,-0.2855,-0.21,-0.1226,-0.0336,0.0561,0.1458,0.1683,0.1799,0.1806,0.1806,0.1824,0.1854,0.1885,0.1911,0.1934,0.1964,0.1977,0.1977,0.1977,0.1977,0.1977,-1.3368,-1.339,0.0,-1.4389,0.0,0.0,-1.6069,0.0,0.0,-1.7072,-1.6138,0.0,-1.4877,-1.4337,-1.4024,-1.4059,-1.4115,0.0,-1.4216,0.0,0.0,-1.4255,-1.42,-1.4023,-1.3606,-1.2899,0.0,-1.1919,0.0,0.0,-0.9607,-0.9482,-0.9241,-0.8955,-1.0082,-1.0134,-0.9366,-0.9922,-0.9707,-0.9173,-0.9182,0.0,0.0,-0.9998,-1.0319,-1.0636,-1.0482,-1.0347,-1.027,-1.0188,-1.0213,-1.0266,-1.0188,-0.9418,-0.8573,-0.8573,-0.6894,-0.5039,-0.5099,-0.4124,-0.3165,-0.3104,-0.3068,-0.3046,-0.304,-0.2986,-0.2932,0.0,0.0,0.0,0.0,0.0,0.0,0.0,0.0,0.0,0.0,0.0,0.0,0.0,0.0,0.0,0.0,0.0,0.0,0.0,0.0,0.0,0.0,0.0,0.0,-0.3281,-0.3417,-0.348,-0.3461,-0.2673,-0.1797,-0.0887,-0.0,0.0897,0.1795,0.1795,0.1795,0.1795,0.1795,0.1805,0.1824,0.1868,0.1896,0.1916,0.196,0.1977,0.1977,0.1977,0.1977,0.1977,-1.4373,-1.471,0.0,0.0,0.0,0.0,0.0,-1.7447,0.0,-1.8087,0.0,-1.5746,-1.5952,-1.5328,-1.4765,-1.4374,0.0,-1.4707,-1.4803,-1.4571,-1.4648,-1.5063,-1.443,-1.4321,-1.4954,-1.3658,0.0,0.0,0.0,-1.0485,-0.9797,-0.9453,-0.9277,-0.9277,-1.0272,0.0,0.0,-1.0359,-1.0019,0.0,-0.9469,-0.9534,-0.9783,-1.0099,-1.0474,-1.0937,-1.0779,-1.0595,-1.0444,-1.0286,-1.0339,-1.044,-1.0282,-0.9591,-0.8846,-0.8737,-0.7137,-0.5415,-0.5229,-0.422,-0.324,-0.3179,-0.3119,-0.3085,-0.3129,-0.3127,-0.3105,-0.3068,-0.3007,0.0,0.0,0.0,0.0,0.0,0.0,0.0,0.0,0.0,0.0,0.0,0.0,0.0,0.0,0.0,0.0,0.0,0.0,0.0,0.0,0.0,0.0,-0.3229,-0.3432,0.0,-0.3424,0.0,-0.1715,-0.077,0.0111,0.1009,0.1795,0.1795,0.1795,0.1795,0.1795,0.1795,0.18,0.1856,0.1884,0.1897,0.1954,0.1977,0.1977,0.2099,0.2099,0.2099,-1.5612,-1.6689,-1.7456,0.0,0.0,-1.928,-1.8488,-1.7579,-1.6865,-1.6616,-1.551,-1.4806,-1.5065,-1.5021,-1.4947,-1.5158,-1.5231,0.0,0.0,0.0,0.0,-1.47,-1.4957,-1.4895,-1.4403,-1.4453,-1.4263,0.0,0.0,-1.1714,-1.0806,-1.0214,-0.9797,-0.9592,-1.0836,0.0,-1.1216,-1.1218,0.0,-0.942,-0.989,-0.9956,-0.9894,-1.0645,-1.0999,-1.1041,-1.0995,-1.1,-1.0967,-1.0716,-1.0619,-1.0639,-1.0611,-1.049,-1.0159,-0.917,-0.788,-0.6496,-0.5513,-0.4381,-0.3367,-0.3305,-0.3244,-0.3188,-0.3149,-0.3063,-0.3015,-0.3105,-0.3035,-0.2973,-0.3118,0.0,0.0,0.0,0.0,0.0,0.0,0.0,0.0,0.0,0.0,0.0,0.0,0.0,0.0,0.0,0.0,0.0,0.0,0.0,0.0,0.0,0.0,0.0,0.0,0.0,0.0,-0.091,0.0789,0.1683,0.1795,0.1795,0.1795,0.1795,0.1795,0.1795,0.1797,0.1834,0.1878,0.1926,0.1962,0.1977,0.2099,0.2592,0.2838,0.2838,-1.7369,-1.8285,-1.8998,-1.8522,0.0,0.0,0.0,-1.8461,0.0,-1.7778,-1.6653,-1.5955,-1.6296,-1.5771,-1.5479,-1.5811,-1.5757,-1.5745,-1.5906,-1.5913,-1.5689,-1.5293,-1.5347,0.0,-1.4562,-1.478,-1.4626,-1.3982,0.0,-1.2614,-1.1809,-1.0989,-1.0792,-1.1112,-1.1826,-1.1935,0.0,0.0,0.0,-0.9874,-1.0157,-1.0205,-1.0268,-1.0883,-1.1235,-1.1349,-1.1212,-1.124,-1.1236,-1.0802,-1.0692,-1.0692,-1.0692,-1.0692,-1.0468,-0.9254,-0.8094,-0.6835,-0.5634,-0.4371,-0.3448,-0.342,-0.3368,-0.3318,-0.3288,-0.3211,-0.3146,-0.314,-0.3093,-0.3052,-0.3049,-0.3004,0.0,0.0,0.0,0.0,0.0,0.0,0.0,0.0,0.0,0.0,0.0,0.0,0.0,0.0,0.0,0.0,0.0,0.0,0.0,0.0,0.0,0.0,0.0,0.0,0.0,-0.0227,0.1126,0.1795,0.1795,0.1795,0.1795,0.1795,0.1795,0.1795,0.1798,0.1845,0.1891,0.1934,0.1964,0.2223,0.2592,0.2838,0.3453,0.3944,-1.9057,-1.9686,-2.0114,0.0,-2.005,0.0,-2.0172,-1.9264,-1.8751,-1.9003,-1.7806,-1.7066,-1.7338,-1.6391,-1.5959,-1.6297,-1.6163,-1.6132,-1.6441,-1.6463,-1.6352,-1.6023,-1.5709,-1.5379,-1.4969,-1.505,-1.4765,0.0,0.0,0.0,0.0,-1.1816,-1.1963,0.0,0.0,0.0,0.0,0.0,-1.0799,-1.022,-1.04,-1.0537,-1.0712,-1.1141,-1.1504,-1.1831,-1.1333,-1.1345,-1.1459,-1.0911,-1.0692,-1.0692,-1.0692,-1.0692,-1.0359,-0.892,-0.7808,-0.6808,-0.5369,-0.4325,-0.3516,-0.3516,-0.3473,-0.3431,-0.3431,-0.3364,-0.3279,-0.3195,-0.3158,-0.3125,-0.3076,-0.3108,0.0,0.0,0.0,0.0,0.0,0.0,0.0,0.0,0.0,0.0,0.0,0.0,0.0,0.0,0.0,0.0,0.0,0.0,0.0,0.0,0.0,-0.2653,-0.1832,0.0,-0.0338,0.0,0.1346,0.1795,0.1795,0.1795,0.1907,0.202,0.1907,0.1795,0.18,0.1861,0.2018,0.2165,0.2207,0.2592,0.3207,0.333,0.4067,0.4803,0.0,0.0,0.0,0.0,0.0,0.0,0.0,-1.9555,-1.8956,-1.8193,-1.7414,-1.6773,-1.6343,-1.611,-1.6224,-1.6568,-1.6513,-1.6564,-1.672,-1.6742,-1.6639,-1.633,-1.603,-1.5716,-1.5394,-1.5387,-1.5211,0.0,0.0,0.0,0.0,-1.276,0.0,0.0,0.0,0.0,0.0,-1.1984,-1.1369,-1.005,-1.0806,-1.1009,-1.0934,-1.1553,-1.1921,-1.2032,-1.1711,-1.1568,-1.1459,-1.0911,-1.0692,-1.0692,-1.0692,-1.0692,-1.0245,-0.7916,-0.7138,-0.6584,-0.4365,-0.3695,-0.3579,-0.3579,-0.3533,-0.3489,-0.3489,-0.336,-0.3252,-0.3296,-0.3217,-0.3138,-0.3132,-0.3135,-0.3189,0.0,0.0,0.0,0.0,0.0,0.0,0.0,0.0,0.0,0.0,0.0,0.0,0.0,0.0,0.0,0.0,0.0,0.0,-0.2006,0.0,-0.1779,-0.1004,-0.0109,0.0,0.0336,0.1346,0.1795,0.1795,0.1795,0.2132,0.2581,0.202,0.1795,0.18,0.1861,0.224,0.2841,0.2928,0.333,0.3944,0.4558,0.4803,0.4926,0.0,0.0,0.0,0.0,0.0,0.0,0.0,-2.0737,-2.0468,-2.0008,-1.8584,-1.7524,-1.6994,-1.6947,-1.7086,-1.7339,-1.7274,-1.7242,-1.731,-1.7333,-1.7145,-1.6757,-1.636,-1.595,-1.5438,-1.5431,-1.527,0.0,0.0,0.0,0.0,0.0,0.0,0.0,0.0,-1.1912,-1.1257,-1.1102,-1.0696,-1.0182,-1.0641,-1.0924,-1.1132,-1.1628,-1.195,-1.206,-1.1715,-1.1568,-1.1459,-1.0911,-1.0692,-1.0692,-1.0692,-1.0249,-0.9251,-0.7584,-0.6586,-0.5701,-0.4033,-0.3587,-0.3587,-0.3587,-0.357,-0.355,-0.355,-0.3441,-0.3337,-0.3324,-0.3166,-0.3042,-0.3078,-0.3086,-0.3109,0.0,0.0,0.0,0.0,0.0,0.0,0.0,0.0,0.0,0.0,0.0,0.0,0.0,0.0,0.0,0.0,0.0,0.0,-0.1972,0.0,-0.0822,-0.0,0.0323,0.0643,0.1234,0.1554,0.1777,0.1795,0.1795,0.2132,0.2693,0.2469,0.2356,0.2362,0.2441,0.2708,0.2951,0.3411,0.3944,0.4558,0.4803,0.5174,0.5544,-2.0861,0.0,-2.1156,0.0,-2.0964,-2.1436,-2.1589,-2.1814,-2.1896,-2.1585,-2.0052,-1.8778,-1.811,-1.7787,-1.7666,-1.8002,-1.7854,-1.7728,-1.7792,-1.7721,-1.7524,-1.7004,-1.6682,0.0,-1.5584,-1.557,-1.5365,-1.486,-1.5599,0.0,0.0,0.0,0.0,0.0,-1.1787,-1.1192,-1.1004,-1.0372,-1.0187,-1.0301,-1.0627,-1.0972,-1.1331,-1.1685,-1.1987,-1.214,-1.1738,-1.1568,-1.1459,-1.0911,-1.0692,-1.0692,-1.0692,-1.0139,-0.914,-0.7584,-0.6475,-0.559,-0.4033,-0.3587,-0.3587,-0.3587,-0.3587,-0.3587,-0.3587,-0.3496,-0.3386,-0.3288,-0.3146,-0.3046,-0.3071,-0.309,-0.3102,0.0,0.0,0.0,0.0,0.0,0.0,0.0,-0.3164,-0.3123,0.0,0.0,0.0,0.0,0.0,0.0,0.0,0.0,0.0,0.0,0.0,0.0,0.0,0.0,0.1065,0.1768,0.1765,0.1774,0.1795,0.2131,0.2468,0.2693,0.2918,0.2918,0.2701,0.2789,0.3178,0.3542,0.4018,0.4558,0.5174,0.5174,0.5544,0.5916,-2.2056,-2.1324,-2.0749,-2.0442,-2.1197,-2.1807,-2.1807,-2.2584,-2.2992,-2.2467,-2.1579,-2.0494,-1.935,-1.837,-1.7914,-1.8271,-1.8034,-1.791,-1.8064,-1.7815,-1.7621,0.0,0.0,-1.655,-1.5921,-1.5913,-1.5592,-1.486,0.0,0.0,-1.3038,-1.2084,-1.1629,-1.165,-1.1424,-1.0942,-1.0282,-1.048,-1.0452,-1.0324,-1.0943,-1.1321,-1.1534,-1.1742,-1.2072,-1.2327,-1.1787,-1.1568,-1.1459,-1.0911,-1.0692,-1.0692,-1.0692,-1.0692,-1.0245,-0.7802,-0.7138,-0.6586,-0.4255,-0.3587,-0.3587,-0.3587,-0.3587,-0.3587,-0.3587,-0.3496,-0.3361,-0.318,-0.3187,-0.3209,-0.315,-0.3188,-0.3229,-0.3229,0.0,0.0,0.0,0.0,0.0,0.0,-0.3473,-0.3511,-0.3334,0.0,0.0,0.0,0.0,0.0,0.0,0.0,0.0,0.0426,0.0308,0.0,0.1705,0.1705,0.1704,0.1706,0.1766,0.1795,0.1795,0.3027,0.3253,0.2693,0.3365,0.3253,0.2701,0.2789,0.3648,0.484,0.4868,0.5297,0.5916,0.5916,0.5916,0.5916,-2.1429,-2.1447,-2.1566,-2.1807,-2.2335,-2.2749,-2.2749,-2.3267,-2.3619,-2.3408,-2.281,-2.2051,-2.1056,-1.946,-1.8533,0.0,-1.8569,-1.8441,0.0,-1.8094,-1.7807,-1.7621,-1.7117,-1.6762,-1.6565,-1.6133,-1.5818,-1.5606,0.0,0.0,0.0,-1.3487,-1.2668,-1.2622,-1.1081,-1.0333,-1.0277,-1.0343,-1.0494,-1.0716,-1.091,-1.1283,-1.1728,-1.1794,-1.1971,-1.211,-1.1896,-1.1568,-1.1236,-1.1021,-1.0802,-1.0692,-1.0692,-1.0139,-0.914,-0.7584,-0.6589,-0.559,-0.4033,-0.3587,-0.3587,-0.3587,-0.3587,-0.3587,-0.3587,-0.3496,-0.3372,-0.323,-0.3184,-0.3162,-0.3143,-0.3121,-0.312,-0.3162,0.0,0.0,0.0,0.0,0.0,0.0,-0.3174,-0.2955,0.0,0.0,0.0,0.0,0.0,0.0,0.0,0.0,0.0,0.0,0.0909,0.0,0.1765,0.1706,0.1696,0.1735,0.1755,0.1997,0.2469,0.3698,0.3923,0.3365,0.3921,0.3921,0.337,0.3901,0.431,0.4835,0.5296,0.5618,0.5916,0.5916,0.5916,0.5916,-2.189,-2.2128,-2.2418,-2.2787,-2.3223,-2.3535,-2.3524,-2.3919,-2.4126,-2.4126,-2.3564,-2.2921,-2.2306,-2.0529,0.0,-1.8827,-1.8743,0.0,-1.8481,-1.8187,-1.7908,-1.7729,-1.7235,-1.6974,-1.6857,0.0,0.0,-1.6082,-1.6082,-1.6002,-1.5828,-1.4464,-1.3551,-1.2829,-1.1426,-1.0661,-1.0508,-1.0508,-1.0655,-1.0905,-1.0976,-1.1335,-1.1817,-1.1817,-1.1971,-1.2114,-1.2005,-1.1678,-1.124,-1.1126,-1.0907,-1.0692,-1.0692,-0.9919,-0.8699,-0.7473,-0.6586,-0.5701,-0.4033,-0.3587,-0.3587,-0.3587,-0.3587,-0.3576,-0.3531,-0.3447,-0.335,-0.3251,-0.32,-0.3174,-0.3174,-0.3143,-0.3123,-0.3136,0.0,-0.3094,-0.3124,0.0,0.0,0.0,0.0,0.0,0.0,-0.1869,0.0,0.0,0.0,0.0,0.0,0.0,0.0,0.0848,0.1298,0.0,0.1744,0.17,0.1702,0.175,0.1981,0.2554,0.3363,0.4145,0.4257,0.3921,0.4369,0.4257,0.3927,0.4448,0.4754,0.5184,0.5626,0.5816,0.587,0.5904,0.5874,0.5818,-2.3225,-2.3236,0.0,0.0,-2.3804,0.0,-2.4169,-2.4355,-2.454,-2.454,-2.3724,-2.3183,-2.3096,-2.1498,-1.9985,-1.9004,0.0,0.0,0.0,-1.8009,-1.7721,-1.7721,-1.7426,0.0,-1.6894,-1.6865,-1.6696,-1.6367,-1.6367,-1.5917,-1.5109,-1.493,-1.4072,-1.2449,-1.2124,-1.161,-1.0896,-1.0896,-1.0905,-1.0934,-1.1137,-1.1458,-1.1817,-1.1836,-1.2091,-1.2327,-1.2114,-1.1787,-1.1459,-1.1236,-1.0907,-1.0692,-1.0692,-0.9919,-0.8699,-0.7473,-0.7027,-0.6475,-0.4255,-0.3587,-0.3587,-0.3587,-0.3583,-0.3552,-0.3439,-0.3365,-0.3304,-0.3243,-0.323,-0.323,-0.323,-0.323,-0.3211,-0.3155,-0.3142,-0.31,-0.2986,0.0,0.0,0.0,0.0,0.0,0.0,-0.1647,-0.1009,0.0,0.0,0.0,0.0,0.0,0.1465,0.1615,0.1588,0.1603,0.1766,0.1798,0.183,0.1972,0.2561,0.3363,0.448,0.4592,0.4592,0.448,0.4592,0.4592,0.4485,0.4557,0.4976,0.5643,0.5729,0.5765,0.5782,0.5867,0.579,0.5657,0.0,0.0,-2.3826,-2.4157,-2.4312,-2.4385,-2.4385,-2.4478,-2.454,-2.454,-2.4272,-2.3907,-2.3183,-2.2041,-2.097,-1.9985,-1.9188,-1.8743,-1.8743,-1.8473,-1.8195,-1.7994,-1.7714,-1.749,-1.7216,-1.6974,-1.6696,-1.6367,-1.6367,-1.6279,-1.6006,-1.4565,-1.361,-1.3209,-1.16,-1.0968,-1.0896,-1.0896,-1.0981,-1.1142,-1.1354,-1.1595,-1.1836,-1.2002,-1.1898,-1.1787,-1.2005,-1.1568,-1.0911,-1.1017,-1.0907,-1.0692,-1.0692,-0.9919,-0.8699,-0.7473,-0.6478,-0.5481,-0.4033,-0.3587,-0.3587,-0.3587,-0.3552,-0.3499,-0.3428,-0.3365,-0.3304,-0.3243,-0.323,-0.323,-0.323,-0.323,-0.3226,-0.3211,-0.3169,-0.3129,-0.3101,-0.307,0.0,0.0,-0.2778,-0.2491,-0.1653,-0.0575,0.0387,0.0,0.0,0.0,0.0,0.2322,0.2083,0.1585,0.1598,0.1826,0.2386,0.2355,0.2631,0.3232,0.3802,0.4257,0.448,0.4931,0.4931,0.448,0.5043,0.4931,0.4482,0.5064,0.5348,0.5543,0.5563,0.5614,0.5678,0.57,0.568,0.5647,-2.4294,-2.4346,-2.4503,-2.4925,-2.4871,-2.4871,-2.4967,-2.4871,-2.4786,-2.47,-2.47,-2.4433,-2.382,-2.2931,-2.1952,-2.106,-1.9637,-1.8827,-1.8827,-1.8566,-1.8381,-1.8087,-1.7815,-1.7527,-1.7333,-1.7157,-1.6982,-1.6806,-1.6806,-1.6806,-1.6806,-1.5232,-1.4309,-1.3845,-1.2256,-1.1392,-1.1033,-1.1033,-1.1094,-1.1203,-1.1326,-1.1447,-1.1624,-1.174,-1.175,-1.1559,-1.1688,-1.1385,-1.0899,-1.0925,-1.0514,-0.9919,-0.9919,-0.8699,-0.7146,-0.6478,-0.5924,-0.5148,-0.3921,-0.3587,-0.3587,-0.3587,-0.3501,-0.3416,-0.3413,-0.3343,-0.327,-0.3237,-0.323,-0.323,-0.323,-0.323,-0.323,-0.323,-0.3203,-0.3073,-0.2947,-0.3013,0.0,-0.2481,-0.257,-0.2196,-0.0868,-0.0289,0.0588,0.1633,0.0,0.0,0.2183,0.2185,0.2053,0.1594,0.1925,0.227,0.2626,0.2937,0.3333,0.4033,0.4369,0.4592,0.4931,0.5268,0.5268,0.4931,0.5268,0.5268,0.4931,0.5268,0.5431,0.5508,0.5508,0.5539,0.5586,0.5629,0.5594,0.5529,-2.4861,-2.4946,-2.5031,-2.5475,-2.538,-2.5285,-2.5475,-2.538,-2.5115,-2.4946,-2.4861,-2.4786,-2.454,-2.3637,-2.2746,-2.1784,-2.0085,-1.9004,-1.8827,-1.8658,-1.8381,-1.8087,-1.7908,-1.7621,-1.7333,-1.7326,-1.7326,-1.7326,-1.7326,-1.7232,-1.7239,-1.6082,-1.5127,-1.4178,-1.3017,-1.196,-1.1194,-1.1194,-1.1194,-1.1198,-1.1231,-1.1271,-1.1408,-1.144,-1.1469,-1.1546,-1.128,-1.1216,-1.0996,-1.0737,-0.9806,-0.892,-0.8699,-0.7146,-0.5371,-0.5371,-0.526,-0.4925,-0.3923,-0.358,-0.3574,-0.3574,-0.3447,-0.3335,-0.3387,-0.3312,-0.323,-0.323,-0.323,-0.323,-0.323,-0.323,-0.3243,-0.3177,-0.316,-0.303,-0.2699,0.0,-0.2738,-0.22,-0.2419,-0.2053,-0.0588,-0.0199,0.0302,0.1311,0.1615,0.0,0.0,0.1718,0.172,0.1724,0.2271,0.2735,0.2899,0.3537,0.4147,0.4592,0.4592,0.4929,0.5382,0.5382,0.5382,0.5382,0.5382,0.5382,0.5382,0.5382,0.5424,0.5488,0.5488,0.5488,0.5498,0.5576,0.551,0.5392,-2.5115,-2.5115,-2.52,-2.5285,-2.52,-2.52,-2.5285,-2.52,-2.5115,-2.4946,-2.4861,-2.4786,-2.454,-2.3637,-2.2746,-2.1784,-2.0709,-1.972,-1.8827,-1.8735,-1.855,-1.8087,-1.8087,-1.7807,-1.7333,-1.7326,-1.7326,-1.7326,-1.7326,-1.7239,-1.6972,-1.533,-1.437,-1.3902,-1.216,-1.1389,-1.1194,-1.1194,-1.1194,-1.1212,-1.1093,-1.1203,-1.1421,-1.1388,-1.1272,-1.1126,-1.1097,-1.0996,-1.0574,-0.9556,-0.9123,-0.8699,-0.7695,-0.6478,-0.5371,-0.5371,-0.4702,-0.381,-0.3699,-0.3549,-0.3511,-0.3511,-0.3416,-0.3324,-0.3334,-0.3281,-0.323,-0.323,-0.323,-0.323,-0.323,-0.323,-0.3194,-0.3064,-0.2981,-0.2817,-0.2573,0.0,-0.2381,-0.2012,-0.2008,-0.1832,-0.147,0.0295,0.1091,0.0303,0.1918,0.2524,0.1617,0.2019,0.2337,0.2478,0.2524,0.3124,0.4221,0.4806,0.5156,0.5268,0.5268,0.5268,0.5382,0.5382,0.5382,0.5382,0.5382,0.5382,0.5382,0.5382,0.539,0.5402,0.5402,0.5402,0.5402,0.5416,0.5404,0.5384,-2.538,-2.538,-2.5464,-2.5549,-2.5549,-2.5549,-2.5549,-2.5549,-2.5464,-2.5295,-2.5295,-2.5126,-2.4786,-2.4337,-2.3454,-2.1872,-2.1774,-2.0962,-1.8912,-1.8827,-1.855,-1.8087,-1.8087,-1.7893,-1.7333,-1.7326,-1.7326,-1.7326,-1.7326,-1.7239,-1.7153,-1.5032,-1.398,-1.3794,-1.1868,-1.0998,-1.0998,-1.11,-1.1096,-1.1007,-1.0911,-1.0869,-1.0861,-1.0845,-1.0759,-1.0634,-1.0733,-1.0662,-1.0446,-0.9899,-0.8961,-0.7808,-0.7249,-0.5922,-0.448,-0.448,-0.4033,-0.358,-0.3548,-0.3496,-0.3451,-0.3451,-0.3361,-0.3281,-0.3313,-0.3274,-0.323,-0.323,-0.313,-0.3027,-0.3027,-0.2826,-0.2764,-0.278,-0.2719,0.0,0.0,-0.2374,-0.2206,-0.1776,-0.187,-0.1679,-0.0796,0.0398,0.1199,0.1311,0.222,0.2523,0.2019,0.2019,0.2128,0.2452,0.3178,0.4043,0.4929,0.5268,0.5382,0.5382,0.5382,0.5382,0.5382,0.5382,0.5382,0.5382,0.5382,0.5382,0.5382,0.5382,0.5382,0.5382,0.5382,0.5382,0.5382,0.5382,0.5382,0.5382,-2.5801,-2.5728,-2.5728,-2.5895,-2.5895,-2.5895,-2.5895,-2.5895,-2.5822,-2.5644,-2.5559,-2.5391,-2.4946,-2.4861,-2.4069,-2.1872,-2.2394,-2.1676,-1.9004,-1.8827,-1.855,-1.8087,-1.7986,-1.7707,-1.7333,-1.7326,-1.7326,-1.7326,-1.7326,-1.7138,-1.6756,-1.4835,-1.3686,-1.3307,-1.1575,-1.0801,-1.0806,-1.1002,-1.0998,-1.0801,-1.0703,-1.0531,-1.0327,-1.0406,-1.0369,-1.0193,-1.0416,-1.0469,-1.0333,-1.0154,-0.8934,-0.7467,-0.6887,-0.546,-0.3918,-0.3681,-0.3567,-0.3556,-0.351,-0.3455,-0.3409,-0.3395,-0.3311,-0.3243,-0.329,-0.3264,-0.323,-0.313,-0.2927,-0.2826,-0.2725,-0.2522,-0.2443,-0.2406,0.0,0.0,0.0,-0.2142,-0.2106,-0.1606,-0.1807,-0.1508,-0.0504,0.0202,0.0907,0.1614,0.2026,0.2229,0.222,0.2028,0.2336,0.2944,0.3925,0.4717,0.538,0.5382,0.5382,0.5382,0.5382,0.5382,0.5382,0.5382,0.5382,0.5382,0.5382,0.5382,0.5382,0.5382,0.5382,0.5382,0.5382,0.5382,0.5382,0.5382,0.5382,0.5382,-2.6362,-2.6135,-2.5895,-2.5895,-2.5895,-2.5895,-2.5895,-2.5895,-2.5822,-2.5644,-2.5559,-2.5391,-2.4946,-2.4861,-2.4069,-2.1872,-2.1784,-2.0979,-1.8912,-1.8827,-1.855,-1.8087,-1.7613,-1.7326,-1.7326,-1.7326,-1.7326,-1.7326,-1.7326,-1.6567,-1.514,-1.4262,-1.3113,-1.178,-1.1096,-1.0801,-1.0801,-1.0801,-1.0806,-1.0801,-1.0216,-1.0133,-1.0327,-1.0199,-1.0268,-1.0205,-1.055,-1.057,-1.0242,-0.93,-0.8913,-0.8342,-0.6143,-0.5302,-0.5021,-0.3848,-0.3503,-0.3501,-0.3497,-0.3455,-0.3399,-0.3342,-0.3279,-0.3232,-0.3236,-0.3234,-0.313,-0.2927,-0.2826,-0.2725,-0.2522,-0.2422,-0.2361,-0.2269,0.0,0.0,-0.1799,-0.173,-0.1673,-0.1575,-0.1575,-0.1585,-0.1513,-0.0504,-0.0101,-0.0505,0.0923,0.1746,0.1615,0.2664,0.3722,0.4755,0.4434,0.4664,0.538,0.5382,0.5382,0.5382,0.5382,0.5382,0.5382,0.5382,0.5382,0.5382,0.5382,0.5382,0.5382,0.5382,0.5382,0.5382,0.5382,0.5382,0.5382,0.5382,0.5382,0.5382,-2.661,-2.6362,-2.6218,-2.5979,-2.5895,-2.5895,-2.5895,-2.5895,-2.5895,-2.5822,-2.5654,-2.5475,-2.5115,-2.4946,-2.4241,-2.2658,-2.257,-2.1765,-1.9803,-1.9538,-1.9088,-1.8179,-1.7613,-1.7326,-1.7326,-1.7326,-1.7326,-1.7326,-1.7326,-1.656,-1.5216,-1.416,-1.2915,-1.157,-1.0703,-1.0314,-1.0314,-1.0511,-1.0413,-1.0314,-1.0117,-0.9966,-0.985,-1.0026,-0.9925,-0.9876,-1.0237,-1.0249,-1.0032,-0.9892,-0.9266,-0.8331,-0.6845,-0.5755,-0.4654,-0.3556,-0.3337,-0.3436,-0.3398,-0.3372,-0.3341,-0.3281,-0.3247,-0.313,-0.3027,-0.2927,-0.2826,-0.2623,-0.24,-0.2283,-0.2183,-0.1965,-0.1873,-0.1834,0.0,-0.168,-0.1641,-0.1605,-0.1579,-0.1597,-0.16,-0.1605,-0.1615,-0.0605,-0.0202,-0.0504,0.0507,0.132,0.1813,0.3043,0.3993,0.4455,0.4694,0.49,0.5296,0.5353,0.5382,0.5382,0.5382,0.5382,0.538,0.5322,0.5296,0.5296,0.5296,0.5265,0.522,0.5335,0.5347,0.5302,0.5359,0.5347,0.5296,0.5296,0.5296,0.5296,-2.6869,-2.661,-2.6373,-2.5979,-2.5895,-2.5895,-2.5895,-2.5895,-2.5895,-2.5895,-2.5812,-2.5559,-2.52,-2.5115,-2.4327,-2.2833,-2.2658,-2.1854,-1.9985,-1.9629,-1.8996,-1.7994,-1.7613,-1.7426,-1.7326,-1.7326,-1.7326,-1.7326,-1.7326,-1.656,-1.5222,-1.4358,-1.3204,-1.1853,-1.0895,-1.0507,-1.0511,-1.0314,-1.0216,-1.0019,-0.992,-0.9727,-0.9648,-0.9819,-0.9778,-0.9673,-1.0034,-1.0042,-0.9933,-1.0245,-0.9734,-0.8804,-0.7793,-0.6157,-0.4429,-0.3296,-0.3186,-0.3375,-0.3332,-0.3308,-0.3283,-0.3241,-0.313,-0.3029,-0.2826,-0.2725,-0.2624,-0.2322,-0.2099,-0.1982,-0.1883,-0.1667,-0.1558,-0.157,-0.1554,-0.1555,-0.1596,-0.1577,-0.1572,-0.1612,-0.1609,-0.1607,-0.1615,-0.0913,-0.0609,-0.0807,-0.0,0.1125,0.2336,0.3234,0.3954,0.4417,0.4751,0.5032,0.5157,0.5251,0.5324,0.5382,0.5351,0.5355,0.5377,0.5286,0.5245,0.5243,0.5214,0.5165,0.5118,0.5243,0.5259,0.5208,0.5271,0.5257,0.5202,0.5202,0.5202,0.5206,-2.7267,-2.6857,-2.6362,-2.5979,-2.5895,-2.5895,-2.5895,-2.5895,-2.5895,-2.5895,-2.5895,-2.5728,-2.5285,-2.52,-2.4231,-2.1872,-2.1695,-2.0889,-1.892,-1.8658,-1.8295,-1.7721,-1.7721,-1.7527,-1.7333,-1.7326,-1.7326,-1.7326,-1.7326,-1.6473,-1.5045,-1.5045,-1.4172,-1.2635,-1.197,-1.1585,-1.1492,-1.0413,-1.0019,-1.0019,-0.9727,-0.9628,-0.9648,-0.9819,-0.9774,-0.9673,-1.0026,-1.0034,-0.9904,-1.0095,-1.0156,-0.9912,-0.8706,-0.6705,-0.4665,-0.3388,-0.3156,-0.3319,-0.3319,-0.3275,-0.3229,-0.323,-0.3027,-0.2825,-0.2825,-0.2622,-0.232,-0.202,-0.202,-0.1919,-0.1616,-0.1615,-0.1606,-0.1575,-0.157,-0.157,-0.1571,-0.1545,-0.1549,-0.1609,-0.159,-0.1583,-0.1614,-0.1645,-0.165,-0.162,-0.0626,0.095,0.3213,0.3256,0.3726,0.4734,0.4922,0.4971,0.4971,0.5061,0.52,0.5377,0.5286,0.529,0.5375,0.5284,0.5243,0.5237,0.5147,0.5106,0.5106,0.5106,0.5108,0.5106,0.5108,0.5108,0.5106,0.5106,0.5106,0.512,-2.7348,-2.7103,-2.6775,-2.6063,-2.5895,-2.5895,-2.5895,-2.5895,-2.5895,-2.5895,-2.5633,-2.5369,-2.52,-2.4871,-2.4166,-2.2833,-2.2658,-2.1863,-1.9985,-1.9012,-1.8381,-1.7994,-1.7815,-1.7527,-1.7333,-1.7326,-1.7326,-1.7326,-1.7153,-1.6393,-1.5045,-1.4854,-1.4082,-1.263,-1.176,-1.1277,-1.1277,-1.0212,-0.9727,-0.9727,-0.9628,-0.9628,-0.9632,-0.9685,-0.9592,-0.9449,-0.9555,-0.9482,-0.936,-0.9343,-0.9217,-0.881,-0.6625,-0.4679,-0.3034,-0.2662,-0.2654,-0.2934,-0.3129,-0.3019,-0.282,-0.286,-0.2869,-0.2662,-0.2238,-0.2135,-0.1941,-0.1748,-0.1632,-0.1616,-0.1521,-0.1504,-0.1487,-0.1478,-0.1476,-0.1491,-0.1534,-0.1513,-0.1517,-0.1578,-0.1577,-0.1583,-0.1614,-0.1645,-0.1761,-0.1956,-0.0205,0.1226,0.2034,0.3536,0.4431,0.4834,0.4861,0.4906,0.4971,0.5061,0.5135,0.519,0.5161,0.5163,0.5188,0.5094,0.5053,0.5051,0.5024,0.4975,0.4926,0.5055,0.5071,0.5018,0.5084,0.5069,0.5012,0.5012,0.5012,0.5016,-2.7603,-2.736,-2.694,-2.6302,-2.5979,-2.5895,-2.5895,-2.5895,-2.5895,-2.5895,-2.5633,-2.5464,-2.538,-2.5137,-2.4337,-2.2833,-2.1854,-2.0872,-1.9812,-1.8928,-1.8381,-1.8087,-1.7815,-1.7527,-1.7333,-1.7326,-1.7326,-1.7326,-1.7066,-1.6494,-1.5622,-1.5432,-1.4765,-1.389,-1.2823,-1.2145,-1.1755,-1.0694,-0.9972,-0.9518,-0.9518,-0.9478,-0.9417,-0.9417,-0.9348,-0.9254,-0.9254,-0.9185,-0.9112,-0.9029,-0.8608,-0.767,-0.5216,-0.3708,-0.2858,-0.229,-0.2383,-0.2667,-0.2764,-0.2764,-0.267,-0.249,-0.2412,-0.2321,-0.2008,-0.1812,-0.1717,-0.1526,-0.1511,-0.1498,-0.1498,-0.1493,-0.1485,-0.1473,-0.1481,-0.1502,-0.1539,-0.1518,-0.1517,-0.1566,-0.1561,-0.1561,-0.1579,-0.163,-0.1667,-0.1676,-0.0511,0.0605,0.1815,0.2922,0.3927,0.4734,0.4834,0.4861,0.4916,0.4973,0.5037,0.5108,0.5071,0.5073,0.5104,0.5014,0.4971,0.4969,0.4934,0.4885,0.4843,0.4955,0.4967,0.4922,0.4979,0.4965,0.4918,0.4918,0.4918,0.4922,-2.7962,-2.7534,-2.7103,-2.661,-2.6218,-2.5895,-2.5906,-2.5895,-2.5895,-2.5895,-2.5895,-2.5812,-2.5654,-2.5559,-2.468,-2.2296,-2.0167,-1.8912,-1.8912,-1.8658,-1.8381,-1.8087,-1.7815,-1.7527,-1.7333,-1.7326,-1.7326,-1.7326,-1.7066,-1.6878,-1.6581,-1.6312,-1.6028,-1.573,-1.4777,-1.3698,-1.2598,-1.1633,-1.0453,-0.9332,-0.9332,-0.9234,-0.9096,-0.9096,-0.9088,-0.9072,-0.9072,-0.9064,-0.9051,-0.8862,-0.8009,-0.6502,-0.4158,-0.3592,-0.3402,-0.2275,-0.2275,-0.2558,-0.2372,-0.2466,-0.2548,-0.204,-0.1873,-0.1899,-0.1902,-0.171,-0.1519,-0.1521,-0.1522,-0.1522,-0.1522,-0.1545,-0.1554,-0.1526,-0.1543,-0.156,-0.1563,-0.1539,-0.1534,-0.1564,-0.1545,-0.1531,-0.1534,-0.1612,-0.1464,-0.0955,-0.1133,-0.0202,0.2219,0.2017,0.2821,0.4734,0.4834,0.4834,0.4834,0.4834,0.4918,0.5084,0.5,0.5004,0.5081,0.4998,0.4959,0.4955,0.4871,0.4834,0.4834,0.4834,0.4834,0.4834,0.4834,0.4834,0.4834,0.4834,0.4834,0.4847,-2.7962,-2.78,-2.7452,-2.661,-2.6445,-2.629,-2.5979,-2.5895,-2.5895,-2.5895,-2.5728,-2.5654,-2.5559,-2.538,-2.4669,-2.326,-2.1141,-1.9985,-1.9985,-1.9012,-1.8381,-1.8087,-1.7815,-1.7527,-1.7333,-1.7326,-1.7326,-1.7326,-1.6871,-1.6683,-1.6581,-1.6116,-1.5832,-1.573,-1.4777,-1.3689,-1.2447,-1.1406,-1.0256,-0.9153,-0.9153,-0.9031,-0.8804,-0.8999,-0.8918,-0.8611,-0.879,-0.8796,-0.85,-0.7406,-0.5605,-0.3718,-0.3177,-0.2542,-0.1908,-0.1819,-0.191,-0.2001,-0.2183,-0.2092,-0.1998,-0.1809,-0.1632,-0.1553,-0.1578,-0.1472,-0.1461,-0.1485,-0.1491,-0.1491,-0.1491,-0.1496,-0.1498,-0.1491,-0.1476,-0.1473,-0.1497,-0.1495,-0.1502,-0.1532,-0.1551,-0.1571,-0.1595,-0.1637,-0.1665,-0.1566,-0.0,0.121,0.1714,0.3224,0.4331,0.4834,0.4834,0.4834,0.4834,0.4834,0.4855,0.4894,0.4873,0.4875,0.4894,0.4873,0.4863,0.4863,0.4843,0.4834,0.4834,0.4834,0.4834,0.4834,0.4834,0.4834,0.4834,0.4834,0.4834,0.4847,-2.8203,-2.8042,-2.7626,-2.694,-2.6693,-2.6362,-2.5979,-2.5895,-2.5895,-2.5895,-2.5812,-2.5728,-2.5728,-2.5644,-2.502,-2.3704,-2.1578,-2.0339,-2.0339,-1.9196,-1.8381,-1.8087,-1.7815,-1.7527,-1.7333,-1.7326,-1.7326,-1.7326,-1.6864,-1.6588,-1.6581,-1.6021,-1.5832,-1.573,-1.5113,-1.3926,-1.2455,-1.1693,-1.0417,-0.8782,-0.8874,-0.873,-0.8378,-0.875,-0.8693,-0.843,-0.8609,-0.8371,-0.7672,-0.6239,-0.4643,-0.3133,-0.2419,-0.1793,-0.1436,-0.1525,-0.1705,-0.1794,-0.1794,-0.1794,-0.1794,-0.1615,-0.1525,-0.144,-0.1455,-0.1458,-0.1461,-0.1478,-0.1492,-0.1502,-0.1502,-0.1514,-0.1519,-0.1505,-0.1501,-0.1495,-0.1483,-0.148,-0.1487,-0.1502,-0.1519,-0.1546,-0.1591,-0.1583,-0.1594,-0.1637,-0.0604,0.05,0.1512,0.262,0.3728,0.4734,0.4834,0.4834,0.4834,0.4834,0.4834,0.4834,0.4834,0.4834,0.4834,0.4834,0.4834,0.4834,0.4834,0.4834,0.4834,0.4834,0.4834,0.4834,0.4834,0.4834,0.4834,0.4834,0.4834,0.4843,-2.851,-2.8191,-2.7869,-2.7441,-2.7021,-2.6539,-2.6063,-2.5979,-2.5979,-2.5895,-2.5895,-2.5895,-2.5895,-2.5812,-2.5285,-2.3887,-2.1943,-2.0701,-2.052,-1.9463,-1.8651,-1.845,-1.7994,-1.7621,-1.7333,-1.7326,-1.7326,-1.7326,-1.6864,-1.6588,-1.6581,-1.5967,-1.5752,-1.5738,-1.5259,-1.4075,-1.233,-1.1951,-1.0472,-0.8419,-0.8595,-0.8329,-0.7856,-0.8388,-0.8384,-0.8204,-0.8476,-0.7764,-0.6602,-0.5354,-0.4198,-0.3042,-0.1792,-0.1436,-0.1436,-0.1436,-0.1525,-0.1705,-0.1436,-0.1525,-0.1705,-0.1436,-0.1436,-0.1436,-0.1436,-0.1455,-0.1476,-0.1486,-0.1508,-0.1528,-0.1533,-0.1554,-0.1563,-0.1538,-0.1551,-0.1546,-0.1495,-0.1493,-0.1496,-0.1496,-0.1496,-0.1514,-0.156,-0.1518,-0.1522,-0.1603,-0.1288,-0.0297,0.1511,0.1916,0.2922,0.4734,0.4834,0.4834,0.4834,0.4834,0.4834,0.4834,0.4834,0.4834,0.4834,0.4834,0.4834,0.4834,0.4834,0.4834,0.4834,0.4834,0.4834,0.4834,0.4834,0.4834,0.4834,0.4834,0.4834,0.4834,-2.851,-2.8431,-2.8271,-2.7881,-2.7719,-2.7464,-2.6528,-2.6445,-2.629,-2.5979,-2.5895,-2.5895,-2.5895,-2.5549,-2.485,-2.3887,-2.3183,-2.2394,-2.1596,-2.0619,-1.9894,-1.9712,-1.8627,-1.79,-1.7628,-1.7426,-1.7326,-1.7326,-1.6864,-1.6588,-1.6581,-1.5851,-1.5451,-1.5444,-1.4311,-1.3146,-1.1858,-1.0935,-0.9727,-0.8236,-0.8236,-0.7959,-0.7591,-0.8116,-0.8116,-0.8032,-0.8476,-0.7136,-0.5265,-0.5085,-0.3486,-0.1704,-0.1435,-0.1436,-0.1436,-0.1436,-0.1436,-0.1436,-0.1436,-0.1436,-0.1436,-0.1436,-0.1436,-0.1436,-0.1436,-0.1438,-0.1456,-0.1509,-0.1523,-0.1534,-0.1561,-0.1568,-0.157,-0.1566,-0.1547,-0.1529,-0.1521,-0.1543,-0.156,-0.156,-0.156,-0.1552,-0.1534,-0.1525,-0.1536,-0.1575,0.0196,0.1384,0.1611,0.3324,0.4531,0.4834,0.4834,0.4834,0.4834,0.4834,0.4834,0.4834,0.4834,0.4834,0.4834,0.4834,0.4834,0.4834,0.4834,0.4834,0.4834,0.4834,0.4834,0.4834,0.4834,0.4834,0.4834,0.4834,0.4834,0.4834,-2.851,-2.8736,-2.8736,-2.8042,-2.8191,-2.8007,-2.6693,-2.6528,-2.6373,-2.5979,-2.5895,-2.5895,-2.5895,-2.5633,-2.5115,-2.4498,-2.3704,-2.2999,-2.2482,-2.1596,-2.0962,-2.0683,-1.9521,-1.8804,-1.8519,-1.7692,-1.7152,-1.6885,-1.6692,-1.6411,-1.6151,-1.5643,-1.5029,-1.4396,-1.3662,-1.2489,-1.0959,-1.0396,-0.9411,-0.8201,-0.8201,-0.794,-0.7507,-0.794,-0.7852,-0.768,-0.7401,-0.6157,-0.4559,-0.4109,-0.3042,-0.1794,-0.1525,-0.1436,-0.1436,-0.1436,-0.1436,-0.1436,-0.1436,-0.1436,-0.1436,-0.1436,-0.1436,-0.1436,-0.1436,-0.1436,-0.1453,-0.1513,-0.154,-0.1561,-0.1592,-0.1597,-0.1597,-0.1597,-0.1585,-0.157,-0.1553,-0.1549,-0.154,-0.1523,-0.1521,-0.1515,-0.1502,-0.1485,-0.1488,-0.1519,-0.0096,0.107,0.1587,0.3104,0.423,0.4734,0.4834,0.4834,0.4834,0.4834,0.4834,0.4834,0.4834,0.4834,0.4834,0.4834,0.4834,0.4834,0.4834,0.4834,0.4834,0.4834,0.4834,0.4834,0.4834,0.4834,0.4834,0.4834,0.4834,0.4834]},{"header":{"parameterUnit":"m.s-1","parameterCategory":1,"la1":30.6,"la2":28.766,"lo1":-90.7593,"lo2":-88.6598,"dx":0.0162,"dy":0.0183,"nx":116,"ny":114,"refTime":"2022-12-05T06:00:00:Z","depth":0,"parameterNumber":3,"parameterNumberName":"V-component_of_WINDS"},"data":[0.0,0.0,0.0,0.0,0.0,0.0,0.0,0.0,0.0,0.0,0.0,0.0,0.0,0.0,0.0,0.0,0.0,0.0,0.0,0.0,0.0,0.0,0.0,0.0,0.0,0.0,0.0,0.0,0.0,0.0,0.0,0.0,0.0,0.0,0.0,0.0,0.0,0.0,0.0,0.0,0.0,0.0,0.0,0.0,0.0,0.0,0.0,0.0,0.0,0.0,0.0,0.0,0.0,0.0,0.0,0.0,0.0,0.0,0.0,0.0,0.0,0.0,0.0,0.0,0.0,0.0,0.0,0.0,0.0,0.0,0.0,0.0,0.0,0.0,0.0,0.0,0.0,0.0,0.0,0.0,0.0,0.0,0.0,0.0,0.0,0.0,0.0,0.0,0.0,0.0,0.0,0.0,0.0,0.0,0.0,0.0,0.0,0.0,0.0,0.0,0.0,0.0,0.0,0.0,0.0,0.0,0.0,0.0,0.0,0.0,0.0,0.0,0.0,0.0,0.0,0.0,0.0,0.0,0.0,0.0,0.0,0.0,0.0,0.0,0.0,0.0,0.0,0.0,0.0,0.0,0.0,0.0,0.0,0.0,0.0,0.0,0.0,0.0,0.0,0.0,0.0,0.0,0.0,0.0,0.0,0.0,0.0,0.0,0.0,0.0,0.0,0.0,0.0,0.0,0.0,0.0,0.0,0.0,0.0,0.0,0.0,0.0,0.0,0.0,0.0,0.0,0.0,0.0,0.0,0.0,0.0,0.0,0.0,0.0,0.0,0.0,0.0,0.0,0.0,0.0,0.0,0.0,0.0,0.0,0.0,0.0,0.0,0.0,0.0,0.0,0.0,0.0,0.0,0.0,0.0,0.0,0.0,0.0,0.0,0.0,0.0,0.0,0.0,0.0,0.0,0.0,0.0,0.0,0.0,0.0,0.0,0.0,0.0,0.0,0.0,0.0,0.0,0.0,0.0,0.0,0.0,0.0,0.0,0.0,0.0,0.0,0.0,0.0,0.0,0.0,0.0,0.0,0.0,0.0,0.0,0.0,0.0,0.0,0.0,0.0,0.0,0.0,0.0,0.0,0.0,0.0,0.0,0.0,0.0,0.0,0.0,0.0,0.0,0.0,0.0,0.0,0.0,0.0,0.0,0.0,0.0,0.0,0.0,0.0,0.0,0.0,0.0,0.0,0.0,0.0,0.0,0.0,0.0,0.0,0.0,0.0,0.0,0.0,0.0,0.0,0.0,0.0,0.0,0.0,0.0,0.0,0.0,0.0,0.0,0.0,0.0,0.0,0.0,0.0,0.0,0.0,0.0,0.0,0.0,0.0,0.0,0.0,0.0,0.0,0.0,0.0,0.0,0.0,0.0,0.0,0.0,0.0,0.0,0.0,0.0,0.0,0.0,0.0,0.0,0.0,0.0,0.0,0.0,0.0,0.0,0.0,0.0,0.0,0.0,0.0,0.0,0.0,0.0,0.0,0.0,0.0,0.0,0.0,0.0,0.0,0.0,0.0,0.0,0.0,0.0,0.0,0.0,0.0,0.0,0.0,0.0,0.0,0.0,0.0,0.0,0.0,0.0,0.0,0.0,0.0,0.0,0.0,0.0,0.0,0.0,0.0,0.0,0.0,0.0,0.0,0.0,0.0,0.0,0.0,0.0,0.0,0.0,0.0,0.0,0.0,0.0,0.0,0.0,0.0,0.0,0.0,0.0,0.0,0.0,0.0,0.0,0.0,0.0,0.0,0.0,0.0,0.0,0.0,0.0,0.0,0.0,0.0,0.0,0.0,0.0,0.0,0.0,0.0,0.0,0.0,0.0,0.0,0.0,0.0,0.0,0.0,0.0,0.0,0.0,0.0,0.0,0.0,0.0,0.0,0.0,0.0,0.0,0.0,0.0,0.0,0.0,0.0,0.0,0.0,0.0,0.0,0.0,0.0,0.0,0.0,0.0,0.0,0.0,0.0,0.0,0.0,0.0,0.0,0.0,0.0,0.0,0.0,0.0,0.0,0.0,0.0,0.0,0.0,0.0,0.0,0.0,0.0,0.0,0.0,0.0,0.0,0.0,0.0,0.0,0.0,0.0,0.0,0.0,0.0,0.0,0.0,0.0,0.0,0.0,0.0,0.0,0.0,0.0,0.0,0.0,0.0,0.0,0.0,0.0,0.0,0.0,0.0,0.0,0.0,0.0,0.0,0.0,0.0,0.0,0.0,0.0,0.0,0.0,0.0,0.0,0.0,0.0,0.0,0.0,0.0,0.0,0.0,0.0,0.0,0.0,0.0,0.0,0.0,0.0,0.0,0.0,0.0,0.0,0.0,0.0,0.0,0.0,0.0,0.0,0.0,0.0,0.0,0.0,0.0,0.0,0.0,0.0,0.0,0.0,0.0,0.0,0.0,0.0,0.0,0.0,0.0,0.0,0.0,0.0,0.0,0.0,0.0,0.0,0.0,0.0,0.0,0.0,0.0,0.0,0.0,0.0,0.0,0.0,0.0,0.0,0.0,0.0,0.0,0.0,0.0,0.0,0.0,0.0,0.0,0.0,0.0,0.0,0.0,0.0,0.0,0.0,0.0,0.0,0.0,0.0,0.0,0.0,0.0,0.0,0.0,0.0,0.0,0.0,0.0,0.0,0.0,0.0,0.0,0.0,0.0,0.0,0.0,0.0,0.0,0.0,0.0,0.0,0.0,0.0,0.0,0.0,0.0,0.0,0.0,0.0,0.0,0.0,0.0,0.0,0.0,0.0,0.0,0.0,0.0,0.0,0.0,0.0,0.0,0.0,0.0,0.0,0.0,0.0,0.0,0.0,0.0,0.0,0.0,0.0,0.0,0.0,0.0,0.0,0.0,0.0,0.0,0.0,0.0,0.0,0.0,0.0,0.0,0.0,0.0,0.0,0.0,0.0,0.0,0.0,0.0,0.0,0.0,0.0,0.0,0.0,0.0,0.0,0.0,0.0,0.0,0.0,0.0,0.0,0.0,0.0,0.0,0.0,0.0,0.0,0.0,0.0,0.0,0.0,0.0,0.0,0.0,0.0,0.0,0.0,0.0,0.0,0.0,0.0,0.0,0.0,0.0,0.0,0.0,0.0,0.0,0.0,0.0,0.0,0.0,0.0,0.0,0.0,0.0,0.0,0.0,0.0,0.0,0.0,0.0,0.0,0.0,0.0,0.0,0.0,0.0,0.0,0.0,0.0,0.0,0.0,0.0,0.0,0.0,0.0,0.0,0.0,0.0,0.0,0.0,0.0,0.0,0.0,0.0,0.0,0.0,0.0,0.0,0.0,0.0,0.0,0.0,0.0,0.0,0.0,0.0,0.0,0.0,0.0,0.0,0.0,0.0,0.0,0.0,0.0,0.0,0.0,0.0,0.0,0.0,0.0,0.0,0.0,0.0,0.0,0.0,0.0,0.0,0.0,0.0,0.0,0.0,0.0,0.0,0.0,0.0,0.0,0.0,0.0,0.0,0.0,0.0,0.0,0.0,0.0,0.0,0.0,0.0,0.0,0.0,0.0,0.0,0.0,0.0,0.0,0.0,0.0,0.0,0.0,0.0,0.0,0.0,0.0,0.0,0.0,0.0,0.0,0.0,0.0,0.0,0.0,0.0,0.0,0.0,0.0,0.0,0.0,0.0,0.0,0.0,0.0,0.0,0.0,0.0,0.0,0.0,0.0,0.0,0.0,0.0,0.0,0.0,0.0,0.0,0.0,0.0,0.0,0.0,0.0,0.0,0.0,0.0,0.0,0.0,0.0,0.0,0.0,0.0,0.0,0.0,0.0,0.0,0.0,0.0,0.0,0.0,0.0,0.0,0.0,0.0,0.0,0.0,0.0,0.0,0.0,0.0,0.0,0.0,0.0,0.0,0.0,0.0,0.0,0.0,0.0,0.0,0.0,0.0,0.0,0.0,0.0,0.0,0.0,0.0,0.0,0.0,0.0,0.0,0.0,0.0,0.0,0.0,0.0,0.0,0.0,0.0,0.0,0.0,0.0,0.0,0.0,0.0,0.0,0.0,0.0,0.0,0.0,0.0,0.0,0.0,0.0,0.0,0.0,0.0,0.0,0.0,0.0,0.0,0.0,0.0,0.0,0.0,0.0,0.0,0.0,0.0,0.0,0.0,0.0,0.0,0.0,0.0,0.0,0.0,0.0,0.0,0.0,0.0,0.0,0.0,0.0,0.0,0.0,0.0,0.0,0.0,0.0,0.0,0.0,0.0,0.0,0.0,0.0,0.0,0.0,0.0,0.0,0.0,0.0,0.0,0.0,0.0,0.0,0.0,0.0,0.0,0.0,0.0,0.0,0.0,0.0,0.0,0.0,0.0,0.0,0.0,0.0,0.0,0.0,0.0,0.0,0.0,0.0,0.0,0.0,0.0,0.0,0.0,0.0,0.0,0.0,0.0,0.0,0.0,0.0,0.0,0.0,0.0,0.0,0.0,0.0,0.0,0.0,0.0,0.0,0.0,0.0,0.0,0.0,0.0,0.0,0.0,0.0,0.0,0.0,0.0,0.0,0.0,0.0,0.0,0.0,0.0,0.0,0.0,0.0,0.0,0.0,0.0,0.0,0.0,0.0,0.0,0.0,0.0,0.0,0.0,0.0,0.0,0.0,0.0,0.0,0.0,0.0,0.0,0.0,0.0,0.0,0.0,0.0,0.0,0.0,0.0,0.0,0.0,0.0,0.0,0.0,0.0,0.0,0.0,0.0,0.0,0.0,0.0,0.0,0.0,0.0,0.0,0.0,0.0,0.0,0.0,0.0,0.0,0.0,0.0,0.0,0.0,0.0,0.0,0.0,0.0,0.0,0.0,0.0,0.0,0.0,0.0,0.0,0.0,0.0,0.0,0.0,0.0,0.0,0.0,0.0,0.0,0.0,0.0,0.0,0.0,0.0,0.0,0.0,0.0,0.0,0.0,0.0,0.0,0.0,0.0,0.0,0.0,0.0,0.0,0.0,0.0,0.0,0.0,0.0,0.0,0.0,0.0,0.0,0.0,0.0,0.0,0.0,0.0,0.0,0.0,0.0,0.0,0.0,0.0,0.0,0.0,0.0,0.0,0.0,0.0,0.0,0.0,0.0,0.0,0.0,0.0,0.0,0.0,0.0,0.0,0.0,0.0,0.0,0.0,0.0,0.0,0.0,0.0,0.0,0.0,0.0,0.0,0.0,0.0,0.0,0.0,0.0,0.0,0.0,0.0,0.0,0.0,0.0,0.0,0.0,0.0,0.0,0.0,0.0,0.0,0.0,0.0,0.0,0.0,0.0,0.0,0.0,0.0,0.0,0.0,0.0,0.0,0.0,0.0,0.0,0.0,0.0,0.0,0.0,0.0,0.0,0.0,0.0,0.0,0.0,0.0,0.0,0.0,0.0,0.0,0.0,0.0,0.0,0.0,0.0,0.0,0.0,0.0,0.0,0.0,0.0,0.0,0.0,0.0,0.0,0.0,0.0,0.0,0.0,0.0,0.0,0.0,0.0,0.0,0.0,0.0,0.0,0.0,0.0,0.0,0.0,0.0,0.0,0.0,0.0,0.0,0.0,0.0,0.0,0.0,0.0,0.0,0.0,0.0,0.0,0.0,0.0,0.0,0.0,0.0,0.0,0.0,0.0,0.0,0.0,0.0,0.0,0.0,0.0,0.0,0.0,0.0,0.0,0.0,0.0,0.0,0.0,0.0,0.0,0.0,0.0,0.0,0.0,0.0,0.0,0.0,0.0,0.0,0.0,0.0,0.0,0.0,0.0,0.0,0.0,0.0,0.0,0.0,0.0,0.0,0.0,0.0,0.0,0.0,0.0,0.0,0.0,0.0,0.0,0.0,0.0,0.0,0.0,0.0,0.0,0.0,0.0,0.0,0.0,0.0,0.0,0.0,0.0,0.0,0.0,0.0,0.0,0.0,0.0,0.0,0.0,0.0,0.0,0.0,0.0,0.0,0.0,0.0,0.0,0.0,0.0,0.0,0.0,0.0,0.0,0.0,0.0,0.0,0.0,0.0,0.0,0.0,0.0,0.0,0.0,0.0,0.0,0.0,0.0,0.0,0.0,0.0,0.0,0.0,0.0,0.0,0.0,0.0,0.0,0.0,0.0,0.0,0.0,0.0,-3.692,0.0,0.0,0.0,0.0,0.0,0.0,0.0,0.0,0.0,0.0,0.0,0.0,0.0,0.0,0.0,0.0,0.0,0.0,0.0,0.0,0.0,0.0,0.0,0.0,-2.4394,-2.4569,-2.4997,-2.3848,0.0,0.0,0.0,0.0,0.0,0.0,0.0,0.0,0.0,-2.3665,-2.4939,-2.5764,-2.7288,-2.9381,-2.8447,-2.6889,-2.4835,0.0,0.0,0.0,0.0,0.0,0.0,0.0,0.0,0.0,0.0,0.0,0.0,0.0,0.0,0.0,0.0,0.0,0.0,0.0,0.0,0.0,0.0,0.0,0.0,0.0,0.0,0.0,0.0,0.0,0.0,0.0,0.0,0.0,0.0,0.0,0.0,0.0,0.0,0.0,0.0,0.0,0.0,0.0,0.0,0.0,0.0,0.0,0.0,0.0,0.0,0.0,0.0,0.0,0.0,0.0,0.0,0.0,0.0,0.0,0.0,0.0,0.0,0.0,0.0,0.0,0.0,0.0,0.0,0.0,0.0,0.0,-3.8093,0.0,0.0,0.0,0.0,0.0,0.0,0.0,0.0,0.0,0.0,0.0,0.0,0.0,0.0,0.0,0.0,0.0,0.0,0.0,0.0,0.0,-2.451,-2.4803,-2.4842,-2.5192,-2.6069,-2.4686,-2.4062,-2.4783,-2.4023,0.0,0.0,0.0,0.0,-2.3322,-2.4179,-2.5524,-2.7355,-2.8816,-3.0726,-3.301,-3.3726,-3.2143,-2.8642,-2.7312,0.0,0.0,0.0,0.0,0.0,0.0,0.0,0.0,0.0,0.0,0.0,0.0,0.0,0.0,0.0,0.0,0.0,0.0,0.0,0.0,0.0,0.0,0.0,0.0,0.0,0.0,0.0,0.0,0.0,0.0,0.0,0.0,0.0,0.0,0.0,0.0,0.0,0.0,0.0,0.0,0.0,0.0,0.0,0.0,0.0,0.0,0.0,0.0,0.0,0.0,0.0,0.0,0.0,0.0,0.0,0.0,0.0,0.0,0.0,0.0,0.0,0.0,0.0,0.0,-4.1042,-4.2334,-4.1818,-4.2813,-4.4773,-4.2597,-4.1956,-4.2205,0.0,0.0,0.0,0.0,0.0,0.0,0.0,0.0,0.0,0.0,0.0,0.0,0.0,0.0,0.0,0.0,0.0,0.0,0.0,0.0,-2.4959,-2.642,-2.6576,-2.6926,-2.7784,-2.6965,-2.6459,-2.6556,-2.5816,0.0,0.0,0.0,-2.4238,-2.4238,-2.5075,-2.6712,-2.9162,-3.3005,-3.5441,-3.6532,-3.6649,-3.6395,-3.5713,-3.255,-3.067,-2.975,0.0,0.0,0.0,0.0,0.0,0.0,0.0,0.0,0.0,0.0,0.0,0.0,0.0,0.0,0.0,0.0,0.0,0.0,0.0,0.0,0.0,0.0,0.0,0.0,0.0,0.0,0.0,0.0,0.0,0.0,0.0,0.0,0.0,0.0,0.0,0.0,0.0,0.0,0.0,0.0,0.0,-3.1757,-3.1256,0.0,0.0,0.0,0.0,0.0,0.0,0.0,0.0,0.0,0.0,0.0,0.0,0.0,0.0,-3.7603,-4.0877,-4.1919,-4.0718,-4.2953,-4.3801,-4.3415,-4.4078,-4.4572,-4.491,-4.5305,0.0,-4.3318,-4.2084,0.0,0.0,0.0,0.0,0.0,0.0,0.0,0.0,0.0,0.0,0.0,0.0,0.0,0.0,0.0,0.0,0.0,0.0,0.0,0.0,0.0,-2.808,-2.8704,-2.9581,-2.9308,-2.8879,-2.8392,-2.8022,0.0,0.0,-2.6537,-2.6537,-2.6537,-2.7881,-3.0044,-3.3103,-3.6454,-3.8285,-3.8675,-3.9162,-3.9382,-3.9296,-3.7286,-3.5073,-3.28,-3.1548,0.0,0.0,0.0,0.0,0.0,0.0,0.0,0.0,0.0,0.0,0.0,0.0,0.0,0.0,0.0,0.0,0.0,0.0,0.0,0.0,0.0,0.0,0.0,0.0,0.0,0.0,0.0,0.0,0.0,0.0,0.0,0.0,0.0,0.0,0.0,0.0,0.0,0.0,0.0,-3.1661,-3.2909,-3.4227,-3.3672,-3.3484,0.0,0.0,0.0,0.0,0.0,0.0,0.0,0.0,0.0,-3.9375,-3.948,-4.0179,-4.1622,-4.3257,-4.3733,-4.3082,-4.4751,-4.564,-4.5806,-4.6196,-4.6624,-4.7092,-4.6975,-4.678,-4.6429,-4.5046,-4.376,-4.2533,0.0,0.0,0.0,0.0,0.0,-3.9045,0.0,0.0,0.0,0.0,0.0,0.0,0.0,0.0,0.0,0.0,0.0,0.0,-2.9054,-2.9775,-3.0696,-3.1982,-3.1709,-3.1183,-3.054,-3.0287,-2.9775,-2.8894,-2.887,-2.887,-2.887,-3.0998,-3.357,-3.6571,-3.8967,-4.0136,-4.0156,-4.0799,-4.1097,-4.1075,-4.0409,-3.8564,-3.5856,-3.4769,-3.2932,-3.0628,0.0,0.0,0.0,0.0,0.0,0.0,0.0,0.0,0.0,0.0,0.0,0.0,0.0,0.0,0.0,0.0,0.0,0.0,0.0,0.0,0.0,0.0,0.0,0.0,0.0,0.0,0.0,0.0,0.0,0.0,0.0,0.0,0.0,0.0,0.0,0.0,0.0,-3.4071,-3.4845,-3.7252,-3.6388,-3.589,0.0,0.0,0.0,0.0,0.0,0.0,-3.7836,-3.8727,-4.0236,-4.2352,-4.202,-4.2828,-4.4955,-4.5288,-4.5468,-4.5531,-4.638,-4.7155,-4.7832,-4.7832,-4.8183,-4.8768,-4.8105,-4.8202,-4.867,-4.715,-4.6157,-4.5436,-4.415,-4.3137,-4.2357,-4.1929,-4.1773,-4.2163,0.0,0.0,0.0,0.0,0.0,0.0,0.0,0.0,0.0,0.0,0.0,-2.9102,-3.1636,-3.1943,-3.2952,-3.5437,-3.4184,-3.3244,-3.3205,-3.244,-3.1578,-3.0701,-3.0662,-3.0662,-3.0662,-3.394,-3.6532,-3.8363,-4.0156,-4.1033,-4.1033,-4.1091,-4.111,-4.1091,-4.1052,-4.0476,-3.9423,-3.7731,-3.5936,-3.4091,-3.2333,0.0,0.0,0.0,0.0,0.0,0.0,0.0,0.0,0.0,0.0,0.0,0.0,0.0,0.0,0.0,0.0,0.0,0.0,0.0,0.0,0.0,0.0,0.0,0.0,0.0,0.0,0.0,0.0,0.0,0.0,0.0,0.0,0.0,0.0,0.0,0.0,0.0,0.0,-4.0196,-3.9612,0.0,0.0,0.0,0.0,-3.9928,-4.0216,-4.0639,-4.1408,-4.2386,-4.3376,-4.4337,-4.4331,-4.4776,-4.5738,-4.6513,-4.6984,-4.7193,-4.7999,-4.8516,-4.8729,-4.8729,-4.8768,-4.8806,-4.8748,-4.8768,-4.8729,-4.7813,-4.7404,-4.7365,-4.7267,-4.6702,-4.604,-4.6819,-4.7111,-4.7267,0.0,0.0,0.0,-2.4491,-2.414,-2.3945,-2.3929,-2.4674,-2.5745,-2.7129,-2.8805,-3.0657,-3.2719,-3.3434,-3.436,-3.5777,-3.5357,-3.4762,-3.4211,-3.4417,-3.4155,-3.3283,-3.3785,-3.4603,-3.5733,-3.6941,-3.8422,-4.0175,-4.0799,-4.111,-4.111,-4.111,-4.111,-4.111,-4.111,-4.0928,-4.0554,-3.9376,-3.8176,-3.691,-3.5079,-3.2749,0.0,0.0,0.0,0.0,0.0,0.0,0.0,0.0,0.0,0.0,0.0,0.0,0.0,0.0,0.0,0.0,0.0,0.0,0.0,0.0,0.0,0.0,0.0,0.0,0.0,0.0,0.0,0.0,0.0,0.0,0.0,0.0,0.0,0.0,0.0,0.0,0.0,-4.0361,-4.0312,0.0,-4.197,-4.1468,-4.137,-4.211,-4.2117,-4.253,-4.3443,-4.3827,-4.4666,-4.6054,-4.6228,-4.6701,-4.7524,-4.8457,-4.8973,-4.9039,-4.9895,-5.0341,-5.0424,-5.0989,-5.1242,-5.1281,-5.1846,-5.208,-5.206,-5.1749,-5.0969,-4.9956,-4.9956,-4.9761,-4.9449,-4.9196,-4.9118,-4.9313,0.0,0.0,0.0,-2.4939,-2.4842,-2.492,-2.52,-2.5726,-2.6938,-2.9223,-3.0529,-3.2118,-3.4433,-3.4937,-3.5568,-3.6674,-3.6779,-3.6534,-3.595,-3.6727,-3.683,-3.5947,-3.6473,-3.7467,-3.8909,-3.8948,-3.9649,-4.111,-4.111,-4.111,-4.111,-4.111,-4.111,-4.111,-4.111,-4.111,-4.1071,-4.0481,-3.974,-3.8799,-3.726,-3.5395,-3.3325,0.0,0.0,0.0,0.0,0.0,0.0,0.0,0.0,0.0,0.0,0.0,0.0,0.0,0.0,0.0,0.0,0.0,0.0,0.0,0.0,0.0,0.0,0.0,0.0,0.0,0.0,0.0,0.0,0.0,0.0,0.0,0.0,0.0,0.0,0.0,-3.9703,-4.0839,-4.1266,-4.1889,-4.2912,-4.296,-4.3222,-4.3916,-4.4003,-4.4562,-4.5776,-4.5902,-4.6585,-4.7963,-4.8137,-4.8613,-4.944,-5.0107,-5.0599,-5.0872,-5.1456,-5.1885,-5.2197,-5.2781,-5.3034,-5.3073,-5.3658,-5.3911,-5.3931,-5.4223,-5.3658,-5.2586,-5.2294,-5.2177,-5.2119,-5.1534,-5.132,-5.1476,0.0,0.0,-2.5699,-2.5699,-2.5699,-2.5972,-2.6775,-2.6911,-2.8186,-3.1687,-3.2136,-3.342,-3.6823,-3.6411,-3.6576,-3.8277,-3.8433,-3.8453,-3.8453,-3.9296,-3.9447,-3.8624,-3.8585,-3.8981,-3.9811,-3.9844,-4.0253,-4.111,-4.111,-4.111,-4.111,-4.111,-4.111,-4.111,-4.111,-4.111,-4.111,-4.111,-4.0604,-3.9766,-3.8928,-3.7975,-3.6809,0.0,0.0,0.0,0.0,0.0,0.0,0.0,0.0,0.0,0.0,0.0,0.0,0.0,0.0,0.0,0.0,0.0,0.0,0.0,0.0,0.0,0.0,0.0,0.0,0.0,0.0,0.0,0.0,0.0,0.0,0.0,0.0,0.0,-4.0917,-4.0849,-4.1119,-4.188,-4.2737,-4.3221,-4.3124,-4.3265,-4.3984,-4.5481,-4.5899,-4.6804,-4.8455,-4.8727,-4.9216,-5.0014,-5.0034,-5.0463,-5.1339,-5.1339,-5.1787,-5.2645,-5.2645,-5.3073,-5.3911,-5.3931,-5.395,-5.395,-5.397,-5.3989,-5.4048,-5.4885,-5.5236,-5.5158,-5.432,-5.3989,-5.3989,-5.3989,-5.3989,-5.3989,-2.5699,-2.5699,-2.5699,-2.5699,-2.5699,-2.5972,-2.6775,-2.7448,-2.9085,-3.2591,-3.3039,-3.4101,-3.6902,-3.6426,-3.6084,-3.6576,-3.718,-3.757,-3.7553,-3.8961,-3.998,-4.0364,-4.0383,-4.0506,-4.074,-4.074,-4.0857,-4.111,-4.111,-4.111,-4.111,-4.111,-4.111,-4.111,-4.111,-4.111,-4.111,-4.111,-4.0955,-4.0721,-4.0487,-3.9785,-3.8741,0.0,0.0,0.0,0.0,0.0,0.0,0.0,0.0,0.0,0.0,0.0,0.0,0.0,0.0,0.0,0.0,0.0,0.0,0.0,0.0,0.0,0.0,0.0,0.0,0.0,0.0,0.0,0.0,0.0,0.0,0.0,0.0,-4.0807,-4.0754,-4.1332,-4.2191,-4.3416,-4.4347,-4.5101,-4.5699,-4.635,-4.7005,-4.763,-4.7761,-4.8331,-4.9515,-4.9637,-5.0053,-5.093,-5.095,-5.1359,-5.2236,-5.2236,-5.2684,-5.3541,-5.3541,-5.3677,-5.3931,-5.4554,-5.4846,-5.4885,-5.5509,-5.5782,-5.5801,-5.6035,-5.6132,-5.6113,-5.5879,-5.5782,-5.5782,-5.5782,-5.5782,-5.5782,-2.5699,-2.5699,-2.5699,-2.5699,-2.5699,-2.6089,-2.7266,-2.7877,-2.9703,-3.3892,-3.3846,-3.4652,-3.7921,-3.718,-3.6596,-3.6966,-3.779,-3.8291,-3.8293,-3.9578,-4.0559,-4.1091,-4.111,-4.111,-4.111,-4.105,-4.105,-4.111,-4.1033,-4.1033,-4.111,-4.111,-4.1097,-4.1103,-4.1091,-4.1091,-4.1117,-4.1461,-4.1403,-4.113,-4.1481,-4.1052,-4.014,-3.9256,-3.8527,-3.7686,-3.5504,-3.502,-3.5164,-3.3757,0.0,0.0,0.0,0.0,0.0,0.0,0.0,0.0,0.0,0.0,0.0,0.0,0.0,0.0,0.0,0.0,0.0,0.0,0.0,0.0,0.0,0.0,0.0,0.0,-4.0029,-4.1422,-4.2068,-4.2646,-4.3452,-4.4685,-4.5543,-4.6394,-4.7258,-4.7896,-4.8474,-4.9007,-4.9099,-4.9536,-5.0502,-5.0541,-5.095,-5.1826,-5.1846,-5.2255,-5.3151,-5.3151,-5.358,-5.4437,-5.4437,-5.4632,-5.5002,-5.5509,-5.5743,0.0,-5.6269,-5.6503,-5.6503,-5.6503,-5.6503,0.0,0.0,0.0,0.0,0.0,-5.6503,-5.6503,-2.5699,-2.5699,-2.5699,-2.5699,-2.5699,-2.6268,-2.7932,-2.8188,-3.0015,-3.5086,-3.445,-3.5042,-3.9076,-3.8219,-3.7629,-3.8297,-3.933,-3.9992,-4.0072,-4.0714,-4.111,-4.111,-4.111,-4.1085,-4.1084,-4.0984,-4.0965,-4.1071,-4.0968,-4.0974,-4.111,-4.1188,-4.1234,-4.1231,-4.1331,-4.137,-4.1421,-4.2149,-4.2026,-4.1442,-4.2163,-4.1909,-4.1013,-4.0234,-3.987,-3.9582,-3.8085,-3.7471,-3.7249,-3.6455,0.0,0.0,0.0,0.0,0.0,0.0,0.0,0.0,0.0,0.0,0.0,0.0,0.0,0.0,0.0,0.0,0.0,0.0,0.0,0.0,0.0,0.0,0.0,0.0,-4.1519,-4.2681,-4.4157,-4.4451,-4.4829,-4.5723,-4.6574,-4.7391,-4.8197,-4.8612,-4.9116,-4.9915,-5.0071,-5.0482,-5.1261,0.0,0.0,0.0,0.0,-5.3171,-5.4048,-5.4048,-5.4476,-5.5353,-5.5353,-5.5743,-5.6503,-5.6503,-5.6503,-5.6503,-5.6503,-5.6503,-5.6503,-5.6503,-5.6503,-5.6503,-5.6503,-5.6503,-5.6503,-5.6503,-5.6503,0.0,-2.5699,-2.5699,-2.5699,-2.5699,-2.5699,-2.6268,-2.7932,-2.8149,-2.9742,-3.4267,-3.4508,-3.5165,-3.7453,-3.8032,-3.802,-3.7494,-3.9526,-4.111,-4.1773,-4.1364,-4.111,-4.111,-4.111,-4.1054,-4.0931,-4.1021,-4.1027,-4.0937,-4.1011,-4.1071,-4.111,-4.1753,-4.2065,-4.211,-4.2806,-4.3117,-4.3137,-4.3273,-4.3247,-4.3137,-4.3286,-4.2455,-4.1091,-4.0916,-4.0831,-4.076,-4.0429,-4.0305,-4.0244,-3.9965,-3.8937,-3.7732,-3.7461,-3.6346,0.0,0.0,0.0,0.0,0.0,0.0,0.0,0.0,0.0,0.0,0.0,0.0,0.0,0.0,0.0,0.0,0.0,0.0,0.0,-4.081,-4.242,-4.4132,-4.5248,-4.5921,-4.6371,-4.656,-4.7911,-4.8981,-4.9427,-5.0149,-5.0722,-5.0995,-5.1039,-5.1125,-5.13,-5.1963,0.0,-5.2586,-5.3288,-5.4067,-5.4944,-5.4944,-5.5392,-5.6249,0.0,0.0,-5.6503,-5.6503,-5.6503,-5.6503,-5.6503,-5.6503,-5.6503,-5.6503,-5.6503,-5.6503,-5.6503,-5.6503,-5.6503,-5.6503,-5.6503,-5.6503,-2.5699,-2.5699,-2.5699,-2.5699,-2.564,-2.619,-2.7889,-2.8091,-2.9446,-3.3343,-3.3444,-3.4133,-3.6754,-3.7111,-3.7452,-3.8233,-3.9965,-4.1182,-4.1578,-4.1286,-4.1077,-4.1014,-4.1005,-4.0934,-4.0803,-4.087,-4.0897,-4.0898,-4.0963,-4.1038,-4.113,-4.1955,-4.2356,-4.2382,-4.3259,-4.3655,-4.368,-4.4083,-4.4019,-4.3688,-4.4091,-4.3247,-4.1746,-4.1714,-4.1461,-4.111,-4.111,-4.111,-4.1085,-4.103,-4.042,-3.97,-3.963,-3.8727,-3.7615,0.0,0.0,0.0,0.0,0.0,0.0,0.0,0.0,0.0,0.0,0.0,0.0,0.0,0.0,-4.0164,0.0,0.0,-4.2371,-4.2429,-4.3744,-4.5092,-4.6111,-4.7292,-4.8083,-4.815,-4.8984,-4.9799,-5.0394,-5.0908,-5.123,-5.1292,-5.13,-5.1495,-5.1924,-5.2353,-5.2995,-5.3872,-5.432,-5.4963,-5.584,-5.584,-5.6074,-5.6503,-5.6503,-5.6503,-5.6503,-5.6503,-5.6503,-5.6503,-5.6503,-5.6503,-5.6483,-5.6417,-5.6446,-5.6483,-5.6417,-5.6446,-5.6503,-5.6503,-5.6503,-5.6503,-2.5678,-2.5667,-2.566,-2.566,-2.5563,-2.6011,-2.7597,-2.776,-2.8891,-3.216,-3.2116,-3.29,-3.5842,-3.6219,-3.716,-3.945,-4.0269,-4.0721,-4.089,-4.0993,-4.1002,-4.0905,-4.088,-4.081,-4.0646,-4.0694,-4.0733,-4.0828,-4.0869,-4.0963,-4.1091,-4.213,-4.2635,-4.269,-4.3724,-4.4197,-4.4226,-4.488,-4.4777,-4.4231,-4.4883,-4.4136,-4.2635,-4.2578,-4.1948,-4.111,-4.111,-4.1091,-4.1097,-4.1097,-4.1097,-4.1103,-4.1095,-4.0613,-3.9945,-3.9369,-3.8466,0.0,0.0,0.0,0.0,0.0,0.0,0.0,0.0,-4.0051,-4.105,-4.115,-4.1621,-4.2054,-4.2176,-4.2678,-4.3388,-4.4301,-4.5074,-4.5994,-4.7124,-4.8505,-4.9498,-4.978,-4.9957,-5.034,-5.1081,-5.1239,-5.13,-5.13,-5.1456,-5.1865,-5.2567,-5.2918,-5.3755,-5.5158,-5.5353,-5.5782,-5.6483,-5.6503,-5.6503,-5.6503,-5.6503,-5.6503,-5.6503,-5.6474,-5.6455,-5.6455,-5.6455,-5.6455,-5.6455,-5.6359,-5.6388,-5.6483,-5.6388,-5.6398,-5.6503,-5.6503,-5.6503,-5.6503,-2.5543,-2.5521,-2.5524,-2.5524,-2.5465,-2.5738,-2.6716,-2.6746,-2.7662,-3.0442,-3.1333,-3.2167,-3.3384,-3.6113,-3.8572,-4.0405,-4.0068,-4.0072,-4.0857,-4.0904,-4.0927,-4.0895,-4.08,-4.0648,-4.0523,-4.0635,-4.0648,-4.0549,-4.0776,-4.0917,-4.0965,-4.268,-4.3468,-4.3546,-4.5189,-4.591,-4.5936,-4.6027,-4.6008,-4.593,-4.6027,-4.5001,-4.3448,-4.3455,-4.2474,-4.111,-4.111,-4.1097,-4.1095,-4.1095,-4.11,-4.1111,-4.1091,-4.1033,-4.1061,-4.156,-4.0563,-3.9576,-4.0731,-4.053,-4.0028,-4.0257,-4.0374,-4.0509,0.0,-4.1487,-4.2135,-4.2149,-4.2713,-4.3197,-4.3237,-4.3675,-4.4339,-4.5204,-4.6068,-4.7201,-4.8798,-4.9432,-5.0052,-5.0829,-5.0938,-5.1053,-5.1256,-5.1292,-5.13,-5.13,-5.2021,-5.2508,-5.2586,-5.4067,-5.5002,-5.5197,-5.5957,-5.6405,-5.6503,-5.6503,-5.6503,-5.6503,-5.6503,-5.6503,-5.6503,-5.6378,-5.6319,-5.6319,-5.6319,-5.6319,-5.6319,-5.6426,-5.6483,-5.6503,-5.6483,-5.6483,-5.6503,-5.6503,-5.6503,-5.6503,-2.5503,-2.5429,-2.5387,-2.5376,-2.5367,-2.5625,-2.6455,-2.6502,-2.7033,-2.8664,-2.9168,-2.9883,-3.1254,-3.398,-3.6239,-3.7483,-3.781,-3.8523,-3.9932,-4.002,-4.0242,-4.0761,-4.0662,-4.0519,-4.0398,-4.0504,-4.0564,-4.0489,-4.0765,-4.0907,-4.0946,-4.2746,-4.3344,-4.2994,-4.5208,-4.5916,-4.5487,-4.5975,-4.6209,-4.617,-4.5651,-4.4695,-4.3551,-4.3078,-4.2442,-4.1786,-4.1716,-4.1385,0.0,-4.2108,-4.2128,-4.174,-4.1832,-4.1802,-4.1799,-4.2077,-4.1257,-4.0339,-4.0872,-4.0448,-4.0005,-4.0637,-4.0776,-4.0965,-4.1648,-4.2341,-4.2859,-4.2916,-4.3424,-4.3868,-4.3868,-4.4393,-4.5112,0.0,-4.6916,-4.8006,-4.9285,-5.0098,-5.0731,-5.1152,-5.122,-5.1239,-5.1292,-5.13,-5.1515,-5.2021,-5.2391,-5.3034,-5.4067,-5.4807,-5.5431,-5.5937,-5.6308,-5.6503,-5.6503,-5.6503,-5.6503,-5.6503,-5.6503,-5.6503,-5.6503,-5.6359,-5.6267,-5.6232,-5.6232,-5.6232,-5.6232,-5.6271,-5.6617,-5.7137,-5.7041,-5.7375,-5.779,-5.6844,-5.6503,-5.6503,-2.5447,-2.5358,-2.5286,-2.5274,-2.5069,-2.5193,-2.6017,-2.5903,-2.6022,-2.6894,-2.6803,-2.7465,-2.9612,-3.1466,-3.3124,-3.4503,-3.5854,-3.7213,-3.8535,-3.9297,-3.9962,-4.0623,-4.0519,-4.0396,-4.031,-4.0415,-4.0444,-4.0444,-4.0668,-4.0796,-4.0826,-4.2435,-4.2877,-4.2409,-4.4546,-4.5279,-4.4947,-4.5571,-4.5981,-4.6137,-4.5501,-4.4585,-4.3551,-4.3214,-4.2598,-4.1902,-4.179,-4.1548,-4.139,-4.2335,-4.2267,-4.179,-4.1903,-4.1863,-4.1868,-4.2306,-4.2027,-4.1456,-4.0693,-4.0444,-4.0494,-4.0963,-4.1234,-4.161,-4.2459,-4.3131,-4.3595,-4.3732,-4.4186,-4.4549,-4.4549,-4.4959,-4.564,-4.6691,-4.7588,-4.8574,-4.9765,-5.0649,-5.1181,-5.1292,-5.1515,-5.1671,-5.1671,-5.1437,-5.1671,-5.2528,-5.282,-5.3619,-5.5119,-5.5431,-5.584,-5.6483,-5.6503,-5.6503,-5.6503,-5.6503,-5.6503,-5.6503,-5.6455,-5.6446,-5.6446,-5.6317,-5.6207,-5.616,-5.6434,-5.6563,-5.6563,-5.6776,-5.7308,-5.7984,-5.7865,-5.8279,-5.8792,-5.7624,-5.7176,-5.7166,-2.5317,-2.5298,-2.5268,-2.5203,-2.4511,-2.4251,-2.5115,-2.4507,-2.4285,-2.5159,-2.4539,-2.5258,-2.8586,-2.8962,-2.9956,-3.2462,-3.5032,-3.656,-3.667,-3.8996,-4.0419,-4.0504,-4.0381,-4.0291,-4.031,-4.0291,-4.031,-4.031,-4.0444,-4.0504,-4.0539,-4.1629,-4.2121,-4.216,-4.3199,-4.413,-4.4897,-4.4936,-4.5423,-4.6203,-4.6176,-4.5137,-4.3682,-4.4507,-4.3213,-4.0937,-4.0932,-4.1449,-4.2023,-4.1098,-4.0765,-4.0749,-4.0759,-4.0759,-4.1036,-4.2536,-4.3422,-4.3407,-4.1113,-4.1678,-4.2757,-4.2197,-4.261,-4.3194,-4.3491,-4.4024,-4.4505,-4.4635,-4.509,-4.5451,-4.5451,-4.5362,-4.5831,-4.7494,-4.8064,-4.8871,-5.0519,-5.107,-5.13,-5.13,-5.206,-5.2567,0.0,-5.1807,-5.1671,-5.2528,-5.3385,-5.4262,-5.5158,-5.5996,-5.6464,-5.6503,-5.6503,-5.6503,-5.6503,-5.6503,-5.6503,-5.6503,-5.6378,-5.6308,-5.6308,-5.6174,-5.6056,-5.6068,-5.7053,-5.7457,-5.7528,-5.8433,-5.887,-5.8948,-5.8868,-5.8909,-5.8996,-5.8938,-5.889,-5.8849,-2.5287,-2.5249,-2.5229,-2.5191,-2.495,-2.4839,-2.509,-2.393,-2.334,-2.4213,-2.5003,0.0,0.0,0.0,0.0,0.0,-3.1745,-3.3245,-3.558,-3.699,-3.8293,-3.9535,-4.0038,-4.031,-4.031,-4.031,-4.031,-4.031,-4.0427,-4.0758,-4.1316,-4.2363,-4.2873,-4.3025,-4.454,-4.5071,-4.4929,-4.5514,-4.5923,-4.6157,-4.5572,-4.4644,-4.3682,-4.4467,-4.3499,-4.1752,0.0,-4.177,-4.1203,-4.1981,-4.1865,-4.1525,-4.216,-4.2305,-4.2305,-4.2733,-4.2623,-4.2298,-4.2068,-4.2098,-4.2233,-4.2594,-4.3399,-4.4099,-4.4288,-4.475,-4.5198,-4.5338,-4.5789,-4.6146,-4.6146,-4.6122,-4.6481,-4.7627,-4.8083,-4.8696,-4.9838,-5.1256,-5.2158,-5.2158,-5.2937,0.0,0.0,0.0,0.0,-5.4262,-5.4593,-5.5139,-5.6015,-5.6347,-5.6503,-5.6503,-5.6503,-5.6503,-5.6503,-5.6503,-5.6455,-5.6378,-5.6275,-5.6207,-5.6174,-5.6132,-5.6385,-5.6882,-5.7221,-5.7702,-5.8261,-5.861,-5.916,-5.9736,-5.9711,-6.0098,-6.0661,-6.0661,-6.0639,-6.0483,-2.5249,-2.5229,-2.5191,-2.5191,-2.4931,0.0,0.0,0.0,0.0,0.0,0.0,0.0,0.0,0.0,0.0,0.0,0.0,-3.1584,-3.4129,-3.5293,-3.6703,-3.8487,-3.8782,-3.9166,-3.9738,-3.9471,-3.949,-3.9795,-3.9902,-4.0372,-4.1217,-4.2202,-4.2717,-4.2865,-4.4347,-4.4907,-4.4802,-4.5401,-4.5977,-4.6358,-4.4943,-4.4195,-4.3909,-4.3781,-4.2815,0.0,-4.229,-4.1623,-4.0595,-4.1671,-4.1687,-4.1373,-4.1977,-4.2514,-4.2864,-4.2451,-4.2354,-4.2412,-4.2393,-4.2502,-4.2794,-4.3381,-4.4199,-4.4887,-4.5033,-4.5017,-4.4994,-4.516,-4.5187,-4.5354,-4.5965,-4.6061,-4.6557,-4.8028,-4.8491,-4.8984,-4.99,-5.1474,-5.2552,-5.2578,-5.3638,-5.4359,0.0,0.0,0.0,-5.5178,-5.5197,-5.5587,-5.6444,-5.6503,-5.6503,-5.6503,-5.6503,-5.6503,-5.6503,-5.6503,-5.6417,-5.6255,-5.6219,-5.6141,-5.6075,-5.6416,-5.683,-5.7346,-5.8015,-5.8629,-5.9171,-5.9537,-6.0073,-6.0643,-6.0618,-6.0973,-6.1537,-6.1537,-6.1537,-6.1381,-2.5191,-2.5191,-2.5191,0.0,0.0,0.0,0.0,0.0,0.0,0.0,0.0,0.0,0.0,0.0,0.0,0.0,0.0,0.0,-3.2302,-3.39,-3.5571,-3.7319,-3.6691,-3.7015,-3.8537,-3.7833,-3.7852,-3.8689,-3.8747,-3.9242,-4.0196,-4.1121,-4.1588,-4.1681,-4.2642,-4.3523,-4.4311,-4.4447,-4.5374,-4.6535,-4.4256,-4.3718,-4.4136,-4.2634,-4.1343,-4.0469,-4.137,-4.1046,-4.0253,-4.0291,-4.0368,-4.0444,-4.0444,-4.1552,-4.2698,-4.1877,-4.2737,-4.3636,-4.2211,-4.303,-4.4331,-4.4491,-4.5012,-4.5505,-4.5602,-4.478,-4.4058,-4.4263,-4.3579,-4.3424,-4.5048,-4.5316,-4.6118,-4.8643,-4.9084,-4.9505,-5.0596,-5.167,-5.2425,-5.2637,-5.4164,-5.5217,-5.5256,0.0,0.0,-5.5333,0.0,-5.5626,-5.6464,-5.6503,-5.6503,-5.6503,-5.6503,-5.6503,-5.6503,-5.6483,-5.6388,-5.6194,-5.6194,-5.6112,-5.6031,-5.6966,-5.7395,-5.7521,-5.9366,-6.0201,-6.0351,-6.1253,-6.1634,-6.1656,-6.1604,-6.1576,-6.1607,-6.1646,-6.1666,-6.1666,0.0,0.0,0.0,0.0,0.0,0.0,0.0,0.0,0.0,0.0,0.0,0.0,0.0,0.0,0.0,0.0,0.0,0.0,-3.0433,-3.1427,-3.2694,-3.4395,-3.4749,-3.5103,-3.5518,-3.553,-3.5628,-3.5836,-3.6652,-3.7487,-3.8383,-3.9276,-4.0087,-4.0812,-4.1069,-4.1368,-4.1679,-4.1714,-4.2323,-4.3215,-4.2606,-4.2071,-4.1751,-4.2459,-4.1012,-3.8834,-4.082,-4.0595,-3.9431,-4.0081,-4.1132,-4.2163,-4.2163,-4.287,-4.3654,-4.3443,-4.3252,-4.3138,-4.3369,-4.3752,-4.423,-4.4921,-4.5208,-4.5227,-4.4754,-4.4325,-4.4058,-4.4263,-4.4499,-4.4972,-4.6003,-4.5698,-4.5971,-4.801,-4.7405,0.0,-4.9744,-5.0938,-5.2074,-5.3416,-5.4535,-5.547,-5.6113,-5.6366,0.0,0.0,-5.6171,-5.6269,-5.6483,-5.6503,-5.6503,-5.6503,-5.6503,-5.6503,-5.6503,-5.6347,-5.6275,-5.6267,-5.6132,-5.6075,-5.611,-5.6933,-5.8022,-5.93,-6.0379,-6.1613,-6.2878,-6.3168,-6.2964,-6.2499,-6.2532,-6.2163,-6.1685,-6.2328,-6.2562,-6.2562,0.0,0.0,0.0,0.0,0.0,0.0,0.0,0.0,0.0,0.0,0.0,0.0,0.0,0.0,0.0,0.0,0.0,0.0,0.0,-2.9075,-2.9983,-3.1578,-3.1984,-3.2502,-3.3231,-3.3417,-3.3667,-3.4045,-3.4756,-3.5533,-3.6445,-3.7412,-3.8148,-3.8725,-3.9106,-3.9304,-3.9389,-3.9476,-3.9965,0.0,0.0,-3.9226,-3.936,-3.9135,-3.807,-3.6942,-3.8684,-3.9164,-3.9183,-4.0406,-4.1705,-4.287,-4.3214,-4.3386,-4.3539,-4.3902,-4.3443,-4.2985,-4.3787,-4.4058,-4.4327,-4.517,-4.5188,-4.4935,-4.4855,-4.4171,-4.3579,-4.3636,-4.3943,-4.4456,-4.5258,-4.5398,-4.5956,-4.7779,-4.7414,-4.7578,-4.954,-5.0616,-5.1881,-5.3689,-5.4671,-5.5548,-5.6425,-5.6503,-5.6503,0.0,-5.6503,-5.6503,-5.6503,-5.6503,-5.6503,-5.6503,-5.6503,-5.6503,-5.6503,-5.6306,-5.6219,-5.6255,-5.6126,-5.6071,-5.6098,-5.734,-5.8656,-6.0009,0.0,-6.2538,-6.3891,-6.3934,-6.3728,-6.3378,-6.3409,-6.3127,-6.2757,-6.3244,-6.3439,-6.3439,0.0,0.0,0.0,0.0,0.0,0.0,0.0,0.0,0.0,-2.5811,-2.5465,-2.5332,-2.5332,-2.5191,0.0,0.0,0.0,0.0,0.0,0.0,-2.7568,-2.8964,-2.894,-2.9569,-3.1021,-3.1098,-3.1496,-3.2251,-3.2575,-3.3166,-3.3999,-3.517,-3.5732,-3.577,-3.6644,-3.7024,-3.7061,-3.7218,-3.7686,-3.815,-3.6061,-3.6017,-3.6967,0.0,-3.435,-3.5018,-3.6126,-3.7655,-3.9431,-4.1113,-4.2163,-4.2928,-4.3634,-4.352,-4.3233,-4.3711,-4.3501,-4.3252,-4.3845,-4.4212,-4.457,-4.5166,-4.4877,-4.4588,-4.5028,-4.4013,-4.2998,-4.2967,-4.2966,-4.3214,-4.4036,-4.4806,-4.5858,-4.7568,-4.7822,-4.8208,-4.945,-5.0301,-5.1472,-5.3338,-5.4437,-5.5372,-5.623,-5.6425,-5.6503,-5.6503,-5.6503,-5.6503,-5.6503,-5.6503,-5.6503,-5.6503,-5.6483,-5.6483,-5.6503,-5.6294,-5.6194,-5.6207,-5.6181,-5.6117,-5.6068,-5.776,-5.9068,-6.0092,0.0,0.0,-6.4169,-6.4169,-6.4204,-6.4276,-6.4276,-6.4199,-6.4121,-6.4238,-6.4276,-6.4276,0.0,0.0,0.0,0.0,0.0,0.0,0.0,0.0,0.0,0.0,-2.7877,-2.7077,0.0,0.0,0.0,0.0,0.0,0.0,0.0,0.0,0.0,-2.7048,-2.6874,-2.6872,-2.7164,-2.7383,-2.7582,-2.7733,-2.8821,-2.9432,-2.9619,-3.1374,-3.221,-3.2298,-3.3118,-3.3516,-3.3566,-3.3597,-3.4094,-3.4827,-3.4416,-3.44,-3.4579,-3.4159,0.0,0.0,-3.5689,-3.8056,-4.0329,-4.2011,-4.2679,-4.2813,-4.2966,-4.3864,-4.4609,-4.3367,-4.3883,-4.4743,-4.4169,-4.4553,-4.4995,-4.4421,-4.4249,-4.4068,-4.3408,-4.3137,-4.3152,-4.3694,-4.3806,-4.4055,-4.4914,-4.4629,-4.4863,-4.6702,-4.5966,-4.599,-4.8394,-4.8992,-4.9823,-5.1554,-5.3171,-5.4476,-5.5333,-5.6074,0.0,0.0,0.0,0.0,-5.6503,-5.6503,-5.6503,-5.6503,-5.6388,-5.6388,-5.6503,-5.6246,-5.6168,-5.6278,-5.6117,-5.6059,-5.6126,-5.7153,-5.8486,-6.0073,0.0,0.0,-6.5064,-6.5064,-6.51,-6.5173,-6.5173,-6.4725,-6.4199,-6.4919,-6.5173,-6.5173,0.0,0.0,0.0,0.0,0.0,0.0,0.0,-3.0471,-3.1164,-3.2938,-3.2861,-3.1667,-2.9071,-2.7436,-2.6392,0.0,0.0,0.0,0.0,0.0,0.0,-2.5129,-2.5419,-2.5588,-2.5588,-2.6099,-2.6385,-2.6385,0.0,-2.755,-2.7641,-2.8674,-2.9251,-2.9398,-2.9808,-3.0028,-3.0042,-3.0075,-3.0338,-3.072,-3.072,-3.0968,-3.135,0.0,0.0,0.0,-3.5575,-3.7559,-3.9336,-4.1934,-4.2794,-4.287,-4.3291,-4.3978,-4.4475,-4.3673,-4.3997,-4.4628,-4.4666,-4.5034,-4.5189,-4.4365,-4.4259,-4.4225,-4.371,-4.3286,-4.3075,-4.333,-4.3386,-4.3367,-4.3329,-4.379,-4.444,-4.5355,-4.5385,-4.6038,-4.8191,-4.829,-4.9079,-5.1671,-5.2314,-5.3073,-5.4398,-5.5314,-5.5821,0.0,0.0,0.0,-5.6503,-5.6503,-5.6474,-5.6388,-5.6297,-5.6275,-5.6347,-5.6174,-5.616,-5.6244,-5.6141,-5.6132,-5.6179,-5.7053,-5.842,-6.0151,-6.0953,0.0,-6.4702,-6.5134,-6.5333,-6.5446,-6.5894,-6.5816,-6.5504,-6.5913,-6.6088,-6.6088,0.0,0.0,0.0,0.0,0.0,0.0,0.0,-3.3487,-3.4485,-3.6606,-3.6967,-3.5549,-3.1691,-2.938,-2.7584,0.0,0.0,0.0,0.0,0.0,0.0,0.0,0.0,0.0,0.0,0.0,0.0,-2.5697,-2.5938,0.0,0.0,0.0,0.0,0.0,-2.7461,-2.7611,-2.7592,-2.7669,-2.7701,0.0,0.0,-2.8179,0.0,0.0,0.0,0.0,0.0,-3.7024,-3.819,-4.1437,-4.2641,-4.2908,-4.3539,-4.3864,-4.3978,-4.3806,-4.3749,-4.3902,-4.4571,-4.4825,-4.4764,-4.4149,-4.4075,-4.4133,-4.4011,-4.3475,-4.296,-4.2833,-4.2794,-4.2584,-4.1896,-4.3119,-4.4245,-4.4245,-4.5177,-4.6356,-4.7711,-4.7631,-4.8518,-5.1437,-5.1495,-5.1904,-5.3463,-5.4574,0.0,0.0,0.0,0.0,-5.6503,-5.6474,-5.6417,-5.6349,-5.6263,-5.6226,-5.6263,-5.6174,-5.616,-5.6219,-5.6207,-5.6194,-5.6233,-5.712,-5.8402,-5.9986,-6.0942,0.0,0.0,-6.4905,-6.5345,-6.5484,-6.6361,-6.6712,-6.6712,-6.6712,-6.6712,-6.6712,0.0,0.0,0.0,0.0,0.0,0.0,0.0,-3.3209,-3.501,-3.8621,-3.7202,-3.5724,-3.5383,-3.2978,-3.0202,0.0,0.0,0.0,0.0,0.0,0.0,0.0,0.0,0.0,0.0,0.0,0.0,-2.4013,-2.4238,0.0,0.0,0.0,0.0,0.0,0.0,-2.7603,-2.7592,-2.7669,0.0,0.0,0.0,0.0,0.0,0.0,0.0,0.0,0.0,-3.7024,-3.8094,-4.0731,-4.2144,-4.2813,-4.2889,-4.3424,-4.3864,-4.3119,-4.2908,-4.2928,-4.3004,-4.3043,-4.3043,-4.2967,-4.3041,-4.3109,-4.2967,-4.2965,-4.296,-4.2833,-4.2794,-4.2775,-4.2698,-4.3425,-4.4037,-4.4037,-4.4881,-4.5645,-4.5916,-4.6678,-4.7709,-4.8994,-5.0424,-5.1671,-5.2625,-5.4223,0.0,0.0,0.0,0.0,0.0,-5.6388,-5.6378,-5.6483,-5.6306,-5.6294,-5.6474,-5.6294,-5.6219,-5.6278,-5.6219,-5.6194,-5.6233,-5.7169,-5.8118,-5.9121,0.0,0.0,0.0,-6.4734,-6.5377,-6.5484,-6.6361,-6.6712,-6.6712,-6.6712,-6.6712,-6.6712,0.0,0.0,0.0,0.0,0.0,0.0,-3.365,-3.4426,-3.5977,-3.948,-3.9077,-3.7902,-3.6429,-3.4767,-3.2112,-2.7933,0.0,0.0,0.0,0.0,0.0,0.0,0.0,0.0,0.0,0.0,-2.3506,-2.3795,-2.3878,0.0,0.0,0.0,0.0,0.0,0.0,-2.5906,-2.5934,-2.6123,0.0,0.0,0.0,0.0,0.0,0.0,0.0,0.0,0.0,0.0,-3.8018,-4.0081,-4.1323,-4.2183,-4.3195,-4.3424,-4.3214,-4.2889,-4.3138,-4.3424,-4.2928,-4.2794,-4.2794,-4.2794,-4.2833,-4.2871,-4.2814,-4.2432,-4.1933,-4.1418,-4.0939,-4.0609,-4.0539,-4.1226,-4.2143,-4.3119,-4.4115,-4.5158,-4.6224,-4.6786,-4.7656,-4.9226,-4.9985,-5.0773,0.0,0.0,0.0,0.0,0.0,0.0,0.0,-5.6359,-5.6308,-5.6317,-5.6239,-5.6226,-5.6258,-5.6226,-5.6207,-5.6232,-5.6244,-5.6297,-5.6407,-5.7264,-5.8131,-5.9027,0.0,0.0,0.0,-6.3926,-6.4627,-6.4764,-6.6147,-6.6712,-6.6712,-6.6712,-6.6712,-6.6712,0.0,0.0,0.0,0.0,0.0,-3.1045,-3.4119,-3.4898,-3.6297,-3.9415,-3.9592,-3.8683,-3.6665,-3.5209,-3.2849,-2.907,-2.7186,0.0,0.0,0.0,0.0,0.0,0.0,0.0,0.0,0.0,-2.3922,-2.4139,-2.4393,-2.4587,0.0,0.0,-2.4892,-2.5023,0.0,0.0,0.0,0.0,0.0,0.0,0.0,0.0,0.0,0.0,0.0,0.0,0.0,0.0,0.0,0.0,0.0,-4.1399,-4.2813,-4.3061,-4.2851,-4.31,-4.3214,-4.3195,-4.2889,-4.2603,-4.2526,-4.3023,-4.2985,-4.2794,-4.2794,-4.1934,-4.0903,-4.01,-3.9342,-3.8773,-3.8645,-3.9624,-4.0912,-4.2276,-4.3462,-4.4759,-4.6232,-4.6706,-4.7476,-4.9097,-4.9782,-5.0406,0.0,0.0,0.0,0.0,0.0,0.0,0.0,-5.6328,-5.6286,-5.6294,-5.6239,-5.6214,-5.622,-5.6271,-5.6294,-5.6294,-5.6338,-5.6417,-5.6522,-5.7321,-5.8178,-5.9055,0.0,0.0,0.0,-6.3692,-6.4335,-6.4276,-6.603,-6.6712,-6.6712,-6.6712,-6.6712,-6.6712,0.0,0.0,0.0,0.0,0.0,0.0,-3.3049,-3.4099,-3.5612,-3.837,-3.7966,-3.714,-3.637,-3.4089,-3.2177,-3.1075,-2.8033,0.0,0.0,0.0,0.0,0.0,0.0,0.0,0.0,0.0,-2.4194,-2.499,-2.5787,-2.6186,-2.6186,-2.6374,-2.6481,-2.6447,0.0,0.0,0.0,0.0,0.0,0.0,0.0,0.0,0.0,0.0,0.0,0.0,0.0,0.0,0.0,0.0,0.0,0.0,0.0,-4.2106,-4.2966,-4.3749,-4.2832,-4.1705,-4.2565,-4.2163,-4.1915,-4.3577,-4.3386,-4.2794,-4.2794,-4.1514,-4.0081,-3.9202,-3.8441,-3.7871,-3.7747,-3.9292,-4.0841,-4.1594,-4.3071,-4.4453,-4.5461,-4.6182,-4.6973,-4.7998,-4.9769,-5.0918,-5.0998,0.0,0.0,0.0,0.0,0.0,0.0,-5.6194,-5.6294,-5.6483,-5.6306,-5.6294,-5.6483,-5.6503,-5.6503,-5.6503,-5.6503,-5.6503,-5.6522,-5.7321,-5.8178,0.0,0.0,0.0,0.0,-6.4335,-6.488,-6.4276,-6.603,-6.6712,-6.6712,-6.6712,-6.6712,-6.6712,0.0,0.0,0.0,0.0,0.0,0.0,0.0,-3.1981,-3.2853,-3.4823,-3.4368,-3.3967,-3.4277,-3.2648,-3.1156,-3.0269,-2.7236,0.0,0.0,0.0,0.0,0.0,0.0,0.0,0.0,0.0,-2.528,-2.6638,-2.691,-2.7037,-2.7037,-2.709,-2.6827,-2.6299,-2.6326,-2.6135,0.0,0.0,0.0,0.0,0.0,0.0,0.0,0.0,0.0,0.0,0.0,0.0,0.0,0.0,0.0,0.0,0.0,0.0,0.0,-4.2928,-4.2794,-4.245,-4.2737,-4.2163,-4.1762,-4.2908,-4.2125,-4.1094,-4.1094,-4.0215,-3.9011,-3.7578,-3.7213,-3.7115,-3.6964,-3.8053,-3.9579,-4.1463,-4.2579,-4.3751,-4.5262,-4.6167,-4.6837,-4.7303,-4.9089,-5.0996,0.0,0.0,0.0,0.0,0.0,0.0,0.0,0.0,-5.6286,-5.6294,-5.6239,-5.6263,-5.6359,-5.6455,-5.6455,-5.6359,-5.6455,-5.6503,-5.6522,-5.7321,0.0,0.0,0.0,0.0,0.0,-6.3107,-6.3536,-6.3458,-6.5153,-6.5816,-6.5874,-6.6478,-6.6712,-6.6712,0.0,0.0,0.0,0.0,0.0,0.0,0.0,-3.0532,-3.1021,-3.2325,-3.2053,-3.1926,-3.2433,-3.1057,-2.9898,-2.9391,-2.6403,0.0,0.0,0.0,0.0,0.0,0.0,0.0,-2.499,-2.5588,-2.6838,-2.8757,-2.9065,-2.9536,-3.0133,-3.0133,-2.9373,-2.7997,-2.7903,-2.7377,0.0,0.0,0.0,0.0,0.0,0.0,-2.7854,0.0,0.0,0.0,0.0,0.0,0.0,0.0,0.0,0.0,0.0,0.0,0.0,0.0,-4.2068,-4.2374,-4.2717,-4.2163,-4.1705,-4.2584,-4.1552,-4.031,-4.031,-3.8877,-3.7273,-3.6222,-3.5888,-3.5856,-3.6055,-3.7257,-3.9019,-4.1456,-4.245,-4.3517,-4.5244,-4.6185,-4.7141,-4.8333,-4.9598,0.0,0.0,0.0,0.0,0.0,0.0,0.0,0.0,0.0,-5.6278,-5.6232,-5.6232,-5.6286,-5.6359,-5.6455,-5.6455,-5.6378,-5.6455,-5.6503,-5.6522,-5.7009,0.0,0.0,0.0,0.0,0.0,-6.2542,-6.2893,-6.303,-6.4374,-6.5114,-6.5465,-6.6011,-6.642,-6.6712,0.0,0.0,0.0,0.0,0.0,0.0,0.0,-2.9562,-2.9789,-3.055,-3.0604,-3.0568,-3.0568,-2.9246,-2.8316,-2.8243,0.0,0.0,0.0,0.0,0.0,0.0,0.0,0.0,-2.5172,-2.6693,-2.8703,-3.1166,-3.1908,-3.3085,-3.4606,-3.4606,-3.3339,-3.1039,-3.0269,-2.912,0.0,0.0,0.0,0.0,0.0,-2.6823,0.0,0.0,0.0,0.0,0.0,0.0,0.0,0.0,0.0,0.0,0.0,0.0,0.0,0.0,0.0,0.0,0.0,-4.1972,-4.1686,-4.2507,-4.1495,-4.0272,-4.0138,-3.7674,0.0,-3.5229,-3.4702,-3.4499,-3.5254,-3.7025,-3.9157,-4.1589,-4.2665,-4.3766,-4.5382,-4.6256,-4.7769,-5.0569,-5.092,0.0,0.0,0.0,0.0,0.0,0.0,0.0,0.0,0.0,-5.6319,-5.6319,-5.6319,-5.6359,-5.6503,-5.6503,-5.6503,-5.6503,-5.6503,-5.6503,-5.6503,-5.6503,0.0,0.0,0.0,0.0,0.0,-6.2465,-6.2815,-6.2893,-6.3692,-6.451,-6.5251,-6.5368,-6.5913,-6.6615,0.0,0.0,0.0,0.0,0.0,0.0,0.0,0.0,0.0,0.0,-2.6783,-2.6403,-2.6403,-2.6077,-2.5606,0.0,0.0,0.0,0.0,0.0,0.0,0.0,0.0,0.0,-2.6819,-2.7815,-2.9807,-3.2832,-3.3031,-3.3628,-3.4606,-3.4606,-3.3647,-3.189,-3.113,-2.9465,0.0,0.0,0.0,0.0,-2.5421,-2.5963,0.0,0.0,0.0,0.0,-3.0873,-3.1962,0.0,0.0,0.0,0.0,0.0,0.0,0.0,0.0,-3.8438,-3.8629,-3.8839,0.0,-4.1552,-4.1743,-4.1055,-3.9947,0.0,-3.7693,-3.6757,-3.5458,-3.563,-3.6055,-3.6189,-3.832,-4.043,-4.1649,-4.311,-4.4461,-4.5447,-4.6375,-4.7932,-5.0646,-5.0537,-5.1522,0.0,0.0,0.0,0.0,0.0,0.0,0.0,0.0,-5.6446,-5.6446,-5.6446,-5.6474,-5.6503,-5.6503,-5.6503,-5.6503,-5.6503,-5.6503,-5.6503,-5.6503,0.0,0.0,0.0,0.0,-6.1627,-6.1822,-6.1919,-6.1997,-6.2854,-6.3302,-6.3634,-6.4939,-6.5523,-6.5796,0.0,0.0,0.0,0.0,0.0,0.0,0.0,0.0,0.0,0.0,0.0,-2.4487,-2.4447,-2.4157,0.0,0.0,0.0,0.0,0.0,0.0,0.0,0.0,0.0,-2.7236,-2.8467,-2.9663,-3.1836,-3.5041,-3.5041,-3.5639,-3.6798,-3.6798,-3.5747,-3.3773,-3.1965,-2.9591,0.0,0.0,0.0,-2.5191,-2.5191,0.0,0.0,0.0,0.0,0.0,-2.9923,-3.1298,0.0,-3.3242,-3.4522,-3.584,0.0,0.0,0.0,0.0,-3.6833,-3.7234,-3.7597,-3.8992,-4.0348,-4.0348,-4.0024,-3.947,-3.8514,-3.7693,-3.6891,-3.5993,-3.6195,-3.6799,-3.7632,-3.9321,-4.1137,-4.2816,-4.3904,-4.497,-4.6225,-4.7693,-4.9107,-5.0351,-5.1139,0.0,0.0,0.0,0.0,0.0,0.0,0.0,0.0,0.0,-5.6503,-5.6503,-5.6503,-5.6503,-5.6503,-5.6503,-5.6503,-5.6503,-5.6503,-5.6503,-5.6503,-5.6503,0.0,0.0,0.0,0.0,-6.1607,-6.1607,-6.1607,-6.1646,-6.2114,-6.2542,-6.301,-6.3926,-6.4491,-6.4939,0.0,0.0,0.0,0.0,0.0,0.0,0.0,0.0,0.0,0.0,0.0,0.0,0.0,0.0,0.0,0.0,0.0,0.0,0.0,0.0,0.0,0.0,-2.7634,-2.9156,-2.9979,-3.1673,-3.4009,-3.7011,-3.7138,-3.7954,-3.9422,-3.9422,-3.8008,-3.5344,-3.262,-2.9747,0.0,0.0,-2.6367,-2.5191,-2.5191,0.0,0.0,0.0,0.0,0.0,0.0,0.0,0.0,-3.2462,-3.3643,-3.4866,-3.4063,0.0,0.0,0.0,0.0,0.0,-3.7101,-3.8037,-3.8839,-3.8973,-3.9011,-3.9011,-3.9011,-3.7903,-3.6852,-3.6719,-3.6892,-3.7572,-3.9165,-4.0391,-4.1909,-4.4219,-4.4846,-4.5626,-4.7248,-4.9214,-5.0407,-5.0264,-5.2088,0.0,0.0,0.0,0.0,0.0,0.0,0.0,0.0,0.0,0.0,-5.6503,-5.6503,-5.6503,-5.6503,-5.6503,-5.6503,-5.6503,-5.6503,-5.6503,-5.6503,-5.6503,0.0,0.0,0.0,0.0,-6.1607,-6.1607,-6.1607,-6.1607,-6.1607,-6.2055,-6.2718,-6.2854,-6.3322,-6.4043,0.0,0.0,0.0,0.0,0.0,0.0,0.0,0.0,0.0,0.0,0.0,0.0,0.0,0.0,0.0,0.0,0.0,0.0,0.0,0.0,0.0,-2.8094,-2.9098,-2.9989,-3.0785,-3.3067,-3.5131,-3.7011,-3.7667,-3.8531,-3.9488,-3.9472,-3.7489,-3.3905,-3.2803,-3.0346,-2.7007,-2.7062,-2.6367,-2.5191,-2.5191,0.0,0.0,0.0,0.0,0.0,0.0,0.0,0.0,-3.1446,-3.2802,-3.4025,-3.3184,0.0,0.0,0.0,0.0,0.0,-3.5362,-3.6719,-3.8075,-3.882,-3.9011,-3.9011,-3.9011,-3.8801,-3.8419,-3.7674,-3.8631,-3.9737,-4.0156,-4.2107,-4.383,-4.4409,-4.5756,-4.7101,-4.8169,-4.9237,-5.0396,-5.1703,0.0,0.0,0.0,0.0,0.0,0.0,0.0,0.0,0.0,0.0,0.0,-5.6503,-5.6503,-5.6503,-5.6503,-5.6503,-5.6503,-5.6503,-5.6503,-5.6503,-5.6503,-5.6503,-5.7399,0.0,0.0,-5.999,-6.1607,-6.1607,-6.1607,-6.1607,-6.1607,-6.1685,-6.188,-6.262,-6.2971,-6.3205,0.0,0.0,0.0,0.0,0.0,0.0,0.0,0.0,0.0,0.0,0.0,0.0,0.0,0.0,0.0,0.0,0.0,0.0,0.0,0.0,0.0,-2.947,-3.1016,-3.2192,-3.2922,-3.4461,-3.6268,-3.8365,-3.8679,-3.9075,-3.9519,-3.8664,-3.6601,-3.3625,-3.2848,-3.048,-2.7062,-2.7098,-2.6367,-2.5191,0.0,0.0,0.0,0.0,0.0,0.0,0.0,0.0,0.0,0.0,-3.1904,-3.307,-3.1771,0.0,0.0,0.0,0.0,0.0,-3.4846,-3.6107,-3.7483,-3.926,-3.9699,-3.9833,-4.0253,-4.0348,-4.0368,-4.0444,-4.1074,-4.18,-4.2428,-4.3547,-4.4752,-4.5936,-4.6729,-4.7699,-4.9059,-4.9865,-5.0675,0.0,0.0,0.0,0.0,0.0,0.0,0.0,0.0,0.0,0.0,0.0,0.0,0.0,-5.6503,-5.6503,-5.6503,-5.6503,-5.6503,-5.6503,-5.6503,-5.6503,-5.6503,-5.6503,-5.7399,-5.8996,0.0,-5.999,-6.1607,-6.1607,-6.1607,-6.1607,-6.1607,-6.1607,-6.1646,-6.2055,-6.2503,-6.2952,0.0,0.0,0.0,0.0,0.0,0.0,0.0,0.0,0.0,0.0,0.0,0.0,0.0,0.0,0.0,0.0,0.0,0.0,0.0,0.0,-2.7739,-3.0494,-3.2577,-3.4089,-3.4903,-3.6069,-3.7588,-3.9504,-3.9854,-3.9961,-3.9874,-3.8269,-3.6193,-3.368,-3.2875,-3.048,-2.7026,-2.7098,-2.6337,-2.5125,0.0,0.0,0.0,0.0,0.0,0.0,0.0,0.0,0.0,0.0,0.0,0.0,0.0,0.0,0.0,-3.0452,-3.1389,-3.3054,-3.4751,-3.584,-3.7158,-3.9909,-4.0444,-4.052,-4.1323,-4.1495,-4.1628,-4.2125,-4.2393,-4.2793,-4.3659,-4.4227,-4.5204,-4.7142,-4.7553,-4.8098,-4.9449,0.0,0.0,0.0,0.0,0.0,0.0,0.0,0.0,0.0,0.0,0.0,0.0,0.0,0.0,0.0,-5.6503,-5.6503,-5.6503,-5.6503,-5.6503,-5.6503,-5.6503,-5.6503,-5.6503,-5.6503,-5.7399,-5.8996,-5.8996,-5.999,-6.1607,-6.1607,-6.1607,-6.1607,-6.1607,-6.1607,-6.1607,-6.1607,-6.2016,-6.2601,0.0,0.0,0.0,0.0,0.0,0.0,0.0,0.0,0.0,0.0,0.0,0.0,0.0,0.0,0.0,0.0,0.0,0.0,0.0,0.0,-2.825,-3.1367,-3.3099,-3.4586,-3.5866,-3.8103,-3.9358,-3.9604,-4.1013,-4.1394,-4.0778,-3.9287,-3.6861,-3.377,-3.2936,-3.0457,-2.6823,-2.7026,-2.6255,-2.4929,-2.5125,0.0,0.0,0.0,0.0,0.0,0.0,0.0,0.0,0.0,0.0,0.0,0.0,0.0,-3.1331,-3.0452,-3.1389,-3.3054,-3.4751,-3.584,-3.7292,-4.0597,-4.0845,-4.052,-4.1323,-4.1495,-4.1304,-4.0616,-4.1182,-4.1848,-4.2041,-4.3557,-4.5346,-4.7037,-4.8049,-4.866,0.0,0.0,0.0,0.0,0.0,0.0,0.0,0.0,0.0,0.0,0.0,0.0,0.0,0.0,0.0,0.0,0.0,-5.6503,-5.6503,-5.6503,-5.6503,-5.6503,-5.6503,-5.6503,-5.6503,-5.6503,-5.7399,-5.8996,-5.8996,-5.999,-6.1607,-6.1607,-6.1607,-6.1607,-6.1607,-6.1607,-6.1607,-6.1607,-6.1646,-6.1685,0.0,0.0,0.0,0.0,0.0,0.0,0.0,0.0,0.0,0.0,0.0,0.0,0.0,0.0,0.0,0.0,0.0,0.0,0.0,-2.6972,-2.8689,-3.2668,-3.3777,-3.5194,-3.7091,-3.926,-4.0643,-4.122,-4.133,-4.0964,-4.0119,-3.8145,-3.5991,-3.3733,-3.243,-3.0549,-2.8287,-2.7456,-2.6841,-2.6313,-2.552,-2.5191,0.0,0.0,0.0,0.0,0.0,0.0,0.0,0.0,-2.8255,-2.9306,-2.8809,-2.9593,-3.051,-2.965,-3.135,-3.3643,-3.4273,-3.6604,-3.9298,-4.1055,-4.2049,-4.2565,-4.2354,-4.2316,-4.2221,-4.1915,-4.2198,-4.2899,-4.4163,-4.5084,-4.6216,-4.7904,-4.8057,0.0,0.0,0.0,0.0,0.0,0.0,0.0,0.0,0.0,0.0,0.0,0.0,0.0,0.0,0.0,0.0,0.0,0.0,-5.6503,-5.6503,-5.6503,-5.6503,-5.6503,-5.6503,-5.6503,-5.6503,-5.6503,-5.7399,-5.8996,-5.8996,-5.999,-6.1607,-6.1607,-6.1607,-6.1607,-6.1607,-6.1607,-6.1607,-6.1607,-6.1607,-6.1607,0.0,0.0,0.0,0.0,0.0,0.0,0.0,0.0,0.0,0.0,0.0,0.0,0.0,0.0,0.0,0.0,0.0,0.0,-2.7069,-2.6817,-2.8576,-3.3034,-3.3599,-3.497,-3.7452,-3.9835,-4.1174,-4.1486,-4.0969,-4.04,-3.9713,-3.7393,-3.5679,-3.4504,-3.2339,-3.0575,-2.9129,-2.7961,-2.7073,-2.6346,-2.5799,-2.5397,0.0,0.0,0.0,0.0,0.0,0.0,0.0,0.0,-2.7166,-2.816,-2.8408,-2.9287,-3.0185,-3.0114,-3.2134,-3.4445,-3.4713,-3.7292,-4.0157,-4.1227,-4.2354,-4.308,-4.2526,-4.2603,-4.2737,-4.2508,-4.2996,-4.3979,-4.5658,-4.6037,-4.6675,0.0,-4.8249,0.0,0.0,0.0,0.0,0.0,0.0,0.0,0.0,0.0,0.0,0.0,0.0,0.0,0.0,0.0,0.0,0.0,0.0,0.0,-5.6503,-5.6503,-5.6503,-5.6503,-5.6503,-5.6503,-5.6503,-5.6503,-5.7399,-5.8996,-5.8996,-5.999,-6.1607,-6.1607,-6.1607,-6.1607,-6.1607,-6.1607,-6.1607,-6.1607,-6.1607,-6.1607,0.0,0.0,0.0,0.0,0.0,0.0,0.0,0.0,0.0,0.0,0.0,0.0,0.0,0.0,0.0,0.0,0.0,0.0,-2.7069,-2.639,-2.7867,-3.2181,-3.2353,-3.3749,-3.6789,-3.9798,-4.0886,-3.9918,-3.9918,-3.99,-3.9808,-3.7422,-3.6285,-3.6119,-3.2852,-3.0503,-2.8984,-2.8501,-2.6801,-2.4551,-2.5885,-2.5812,-2.4929,0.0,0.0,0.0,0.0,0.0,0.0,0.0,-2.6383,-2.6842,-2.9383,-3.0185,-3.0529,-3.2229,-3.391,-3.54,-3.6279,-3.775,-3.9412,-4.1074,-4.1495,-4.1514,-4.1514,-4.2183,-4.2604,-4.1876,-4.3207,-4.4841,-4.5901,-4.5978,0.0,-4.8399,0.0,0.0,0.0,0.0,0.0,0.0,0.0,0.0,0.0,0.0,0.0,0.0,0.0,0.0,0.0,0.0,0.0,0.0,0.0,0.0,-5.6503,-5.6503,-5.6503,-5.6503,-5.6503,-5.6503,-5.6503,-5.6503,-5.7399,-5.8996,-5.8996,-5.999,-6.1607,-6.1607,-6.1607,-6.1607,-6.1607,-6.1607,-6.1607,-6.1607,-6.1607,-6.1607,0.0,0.0,0.0,0.0,0.0,0.0,0.0,0.0,0.0,0.0,0.0,0.0,0.0,0.0,0.0,0.0,0.0,0.0,-2.7069,-2.7047,-2.8116,-3.0727,-3.2365,-3.3356,-3.3656,-3.5919,-3.8578,-4.1589,-4.102,-3.9882,-3.8193,-3.7459,-3.5899,-3.366,-3.2687,-3.1054,-2.8984,-2.8501,-2.7528,-2.635,-2.7053,-2.6416,-2.517,0.0,0.0,0.0,0.0,0.0,0.0,0.0,0.0,0.0,-2.8676,-2.9707,-3.0643,-3.2936,-3.4808,-3.6184,-3.6432,-3.8591,-4.0731,-4.0673,-4.1533,-4.2412,-4.2412,-4.3158,-4.3849,-4.3821,-4.4242,-4.4946,-4.592,-4.6102,0.0,0.0,0.0,0.0,0.0,0.0,0.0,0.0,0.0,0.0,0.0,0.0,0.0,0.0,0.0,0.0,0.0,0.0,0.0,0.0,0.0,0.0,-5.6503,-5.6503,-5.6503,-5.6503,-5.6503,-5.6503,-5.6503,-5.6503,-5.7399,-5.8996,-5.8996,-5.999,-6.1607,-6.1607,-6.1607,-6.1607,-6.1607,-6.1607,-6.1607,-6.1607,-6.1607,-6.1607,0.0,0.0,0.0,0.0,0.0,0.0,0.0,0.0,0.0,0.0,-2.3896,-2.419,0.0,0.0,0.0,0.0,0.0,0.0,-2.6499,-2.672,-2.7778,-2.9984,-3.0766,-3.1312,-3.1713,-3.3599,-3.621,-3.9528,-3.9393,-3.8534,-3.7,-3.6767,-3.5736,-3.4027,-3.3054,-3.1458,-2.9462,-2.8985,-2.7903,-2.6612,-2.7381,-2.6855,-2.5672,0.0,0.0,0.0,0.0,0.0,0.0,0.0,0.0,0.0,-2.7892,-2.9,-3.0185,-3.2745,-3.4923,-3.6661,-3.7311,-3.9451,-4.138,-4.0903,-4.1533,-4.247,-4.3235,-4.3861,-4.4357,-4.4575,-4.5153,-4.5712,-4.6063,-4.6675,0.0,0.0,0.0,0.0,0.0,0.0,0.0,0.0,0.0,0.0,0.0,0.0,0.0,0.0,0.0,0.0,0.0,0.0,0.0,0.0,0.0,0.0,-5.6503,-5.6503,-5.6503,-5.6503,-5.6503,-5.6503,-5.6503,-5.6503,-5.7399,-5.9035,-5.9737,-6.0633,-6.1607,-6.1607,-6.1607,-6.1607,-6.1607,-6.1607,-6.1607,-6.1607,-6.1607,-6.1607,0.0,0.0,0.0,0.0,0.0,0.0,0.0,0.0,0.0,-2.408,-2.4025,-2.3969,0.0,0.0,0.0,-2.3969,-2.4062,-2.4543,-2.554,-2.5768,-2.7019,-2.9558,-2.8211,-2.848,-3.0751,-3.2315,-3.3639,-3.474,-3.5855,-3.6324,-3.6213,-3.5621,-3.5602,-3.5891,-3.3623,-3.1623,-2.9958,-2.9636,-2.7942,-2.5629,-2.7177,-2.7069,-2.6024,-2.6308,0.0,0.0,0.0,0.0,0.0,0.0,0.0,0.0,-2.7166,-2.8242,-2.9426,-3.2042,-3.4563,-3.6891,-3.8648,-4.0234,-4.1399,-4.1476,-4.1552,-4.2068,-4.3878,-4.4318,-4.4446,-4.4703,-4.5891,-4.6765,-4.6283,0.0,0.0,0.0,0.0,0.0,0.0,0.0,0.0,0.0,0.0,0.0,0.0,0.0,0.0,0.0,0.0,0.0,0.0,0.0,0.0,0.0,0.0,0.0,-5.6503,-5.6503,-5.6503,0.0,-5.6503,-5.6503,-5.6503,-5.6503,-5.7399,-5.9094,-6.075,-6.1529,-6.1607,-6.1607,-6.1607,-6.1607,-6.1607,-6.1607,-6.1607,-6.1607,-6.1607,-6.1607,0.0,0.0,0.0,0.0,0.0,0.0,0.0,0.0,-2.3272,-2.3272,-2.2703,-2.2335,-2.2335,-2.2335,0.0,-2.2335,-2.2992,-2.3797,-2.4684,-2.5469,-2.651,-2.7888,-2.7585,-2.8461,-3.0752,-3.0409,-3.0325,-3.059,-3.3308,-3.4969,-3.5581,-3.5256,-3.4592,-3.3673,-3.2937,-3.0999,-2.8382,-2.921,-2.7376,-2.417,-2.7371,-2.6931,-2.4541,-2.5893,-2.5898,0.0,0.0,0.0,0.0,0.0,0.0,0.0,-2.7166,-2.8242,-2.9522,-3.2764,-3.5037,-3.7024,-3.9393,-4.0291,-4.0711,-4.1342,-4.2011,-4.2794,-4.3828,-4.4594,-4.5379,-4.6409,-4.641,-4.6221,0.0,0.0,0.0,0.0,0.0,0.0,0.0,0.0,0.0,0.0,0.0,0.0,0.0,0.0,0.0,0.0,0.0,0.0,0.0,0.0,0.0,0.0,0.0,-5.6503,-5.6503,-5.6503,-5.6503,0.0,-5.6503,-5.6503,-5.6503,-5.6503,-5.7399,-5.9055,-6.0126,-6.0964,-6.1607,-6.1607,-6.1607,-6.1607,-6.1607,-6.1607,-6.1607,-6.1607,-6.1607,-6.1607,0.0,0.0,0.0,0.0,0.0,0.0,0.0,0.0,-2.2997,-2.2997,-2.2299,-2.1803,-2.1803,-2.1803,0.0,0.0,-2.2256,-2.2879,-2.3729,-2.4698,-2.5665,-2.6631,-2.7142,-2.7581,-2.7964,-2.7771,-2.8035,-2.8818,-2.9625,-3.102,-3.2915,-3.2908,-3.2668,-3.2212,-3.1673,-3.0129,-2.7938,-2.867,-2.7332,-2.4955,-2.7374,-2.7033,-2.5199,-2.6078,-2.5898,-2.5191,-2.5191,0.0,0.0,0.0,0.0,0.0,0.0,0.0,-2.8217,-3.0796,-3.3337,-3.5935,-3.8877,-3.9986,-4.0406,-4.0826,-4.1877,-4.2908,-4.3329,-4.4399,-4.5515,-4.624,-4.61,0.0,0.0,0.0,0.0,0.0,0.0,0.0,0.0,0.0,0.0,0.0,0.0,0.0,0.0,0.0,0.0,0.0,0.0,0.0,0.0,0.0,0.0,0.0,-5.6503,-5.6503,-5.6503,-5.6503,-5.6503,-5.6503,-5.6503,-5.6503,-5.6503,-5.6892,-5.7769,-5.9055,-5.9912,-6.0789,-6.1607,-6.1607,-6.1607,-6.1607,-6.1607,-6.1607,-6.1607,-6.1607,-6.1607,-6.1607,0.0,0.0,0.0,0.0,0.0,0.0,0.0,0.0,0.0,-2.2813,-2.2079,-2.151,-2.138,-2.138,-2.138,0.0,0.0,0.0,-2.274,-2.4021,-2.5082,-2.5866,-2.6703,-2.6555,-2.5315,-2.549,-2.6407,-2.8017,-2.6377,-2.7017,-2.9787,-3.0146,-3.0668,-3.1219,-3.038,-2.9185,-2.7823,-2.8166,-2.7417,-2.6091,-2.7401,-2.7224,-2.6211,-2.6345,-2.5898,-2.5191,-2.5191,0.0,0.0,0.0,0.0,0.0,0.0,0.0,-2.6727,-2.8414,-3.1217,-3.4483,-3.7693,-3.9431,-4.0368,-4.0673,-4.1781,-4.2832,-4.2985,-4.4188,-4.5339,-4.5473,0.0,0.0,0.0,0.0,0.0,0.0,0.0,0.0,0.0,0.0,0.0,0.0,0.0,0.0,0.0,0.0,0.0,0.0,0.0,0.0,0.0,0.0,-5.6503,-5.6503,-5.6503,-5.6503,-5.6503,-5.6503,-5.6503,-5.6503,-5.6503,-5.6503,-5.6522,-5.7184,-5.7964,-5.8821,-5.9698,-6.0575,-6.1393,-6.1549,-6.1607,-6.1607,-6.1607,-6.1607,-6.1607,-6.1607,-6.1607,-6.1607,0.0,0.0,0.0,0.0,0.0,0.0,0.0,0.0,0.0,0.0,-2.1216,-2.0409,-1.9711,-1.9687,-1.9721,-1.9721,-2.0347,-2.1101,-2.1909,0.0,0.0,-2.5885,-2.6029,-2.6314,-2.6806,-2.5244,-2.5205,-2.6843,-2.5884,-2.636,-2.8136,-2.8856,-2.9747,-3.0665,-2.9605,-2.8338,-2.7008,-2.7978,-2.7094,-2.5294,-2.7763,-2.7377,-2.544,-2.6135,-2.5898,-2.5191,-2.5191,-2.5191,-2.5191,-2.5191,-2.5191,0.0,0.0,0.0,-2.6727,-2.8414,-3.0782,-3.3436,-3.6126,-3.8534,-4.0654,-4.2106,-4.2622,-4.2985,-4.3692,-4.4609,-4.5339,0.0,0.0,0.0,0.0,0.0,0.0,0.0,0.0,0.0,0.0,0.0,0.0,0.0,0.0,0.0,0.0,0.0,0.0,0.0,0.0,0.0,0.0,-5.5548,-5.6503,-5.6503,-5.6503,-5.6503,-5.6503,-5.6503,-5.6503,-5.6503,-5.6503,-5.6503,-5.6503,-5.66,-5.7107,-5.7925,-5.8802,-5.9659,-6.0536,-6.1295,-6.1607,-6.1607,-6.1607,-6.1607,-6.1607,-6.1607,-6.1607,-6.1597,0.0,0.0,0.0,0.0,0.0,0.0,0.0,0.0,0.0,0.0,0.0,-2.0356,-2.0005,-1.9599,-1.9338,-1.9338,-1.9669,-2.0423,-2.1709,-2.3421,-2.4596,-2.5028,-2.5164,-2.5383,-2.5759,-2.4816,-2.4654,-2.5374,-2.4486,-2.5346,-2.7787,-2.7714,-2.8404,-2.9658,-2.8272,-2.7405,-2.7009,-2.7506,-2.6968,-2.5927,-2.8057,-2.8542,-2.8001,-2.7835,-2.816,-2.8599,-2.816,-2.7396,-2.6593,-2.6593,-2.5994,-2.5191,-2.5191,0.0,0.0,0.0,-2.8962,-3.1446,-3.542,-3.8362,-4.0482,-4.1227,-4.1743,-4.2297,-4.3138,-4.3978,-4.4725,0.0,0.0,0.0,0.0,0.0,0.0,0.0,0.0,0.0,0.0,0.0,0.0,0.0,0.0,0.0,0.0,0.0,0.0,0.0,0.0,0.0,0.0,-5.5548,-5.6503,-5.6503,-5.6503,0.0,-5.6503,-5.6503,-5.6503,-5.6503,-5.6503,-5.6503,-5.6503,-5.6503,-5.6931,-5.7711,-5.81,-5.9035,-6.0321,-6.0711,-6.1159,-6.1607,-6.1607,-6.1607,-6.1607,-6.1607,-6.1595,-6.1607,0.0,0.0,0.0,0.0,0.0,0.0,0.0,0.0,0.0,0.0,0.0,-2.0411,-2.0225,0.0,0.0,0.0,-1.9323,-1.9947,-2.1382,-2.2562,-2.3477,-2.4072,-2.4431,-2.4626,-2.4626,-2.4238,-2.4227,-2.4653,-2.3548,-2.4649,-2.7769,-2.6979,-2.7475,-2.8938,-2.7769,-2.7169,-2.7115,-2.739,-2.7316,-2.7186,-2.8872,-2.9822,-3.0185,-2.9937,-3.0538,-3.1388,-3.0734,-2.9715,-2.8587,-2.7924,-2.6861,0.0,0.0,0.0,0.0,0.0,0.0,-2.9956,-3.4846,-3.7559,-3.926,-4.0348,-4.1055,-4.1724,-4.2603,0.0,-4.394,0.0,0.0,0.0,0.0,0.0,0.0,0.0,0.0,0.0,0.0,0.0,0.0,0.0,0.0,0.0,0.0,0.0,0.0,0.0,0.0,0.0,-5.3892,-5.5333,-5.6269,-5.6483,-5.6503,-5.6503,-5.6503,-5.6503,-5.6503,-5.6503,-5.6503,-5.6503,-5.6503,-5.6503,-5.6834,-5.7399,-5.7613,-5.8431,-5.9659,-6.0126,-6.0672,-6.1295,-6.151,-6.1607,-6.1588,-6.1606,-6.1607,-6.1607,0.0,0.0,0.0,0.0,0.0,0.0,0.0,0.0,0.0,0.0,0.0,-2.0225,-1.9436,-1.9375,-1.939,-1.939,-1.939,-1.9724,-2.0519,-2.2229,-2.3217,-2.3273,-2.3998,0.0,-2.4407,-2.3528,-2.3823,-2.5368,-2.3768,-2.4649,-2.7769,-2.6979,-2.7475,-2.8994,-2.8902,-2.8225,-2.715,-2.7992,-2.8493,-2.8911,-3.0663,-3.0892,-3.0376,-3.1923,-3.2158,-3.1653,-3.1407,-3.1366,-3.1018,0.0,0.0,0.0,0.0,0.0,0.0,0.0,0.0,0.0,-3.412,-3.5362,-3.6432,-4.0444,-4.1457,-4.1724,-4.2603,0.0,0.0,0.0,0.0,0.0,0.0,0.0,0.0,0.0,0.0,0.0,0.0,0.0,0.0,0.0,0.0,0.0,0.0,0.0,0.0,0.0,0.0,0.0,-5.3853,-5.4768,-5.5645,-5.6464,-5.6503,-5.6503,-5.6503,-5.6503,-5.6503,-5.6503,-5.6503,-5.6503,-5.6503,-5.6503,-5.6522,-5.66,-5.736,-5.7749,-5.7964,-5.962,-6.0321,-6.0458,-6.1276,-6.1607,-6.1597,-6.1602,-6.1601,-6.1612,0.0,0.0,0.0,0.0,0.0,0.0,0.0,0.0,0.0,0.0,0.0,0.0,0.0,-1.9966,-1.9338,-1.9338,-1.9338,-1.9672,-2.0448,-2.1633,-2.2533,-2.3049,-2.3929,-2.4115,-2.351,-2.3766,-2.362,-2.3088,-2.3033,-2.4116,-2.6266,-2.5952,-2.6686,-2.8172,-2.7145,-2.6837,-2.7095,-2.6937,-2.735,-2.8332,-3.0586,-3.2267,-3.3471,-3.4082,-3.5224,-3.6425,-3.5792,-3.4903,-3.3821,0.0,0.0,0.0,0.0,0.0,0.0,-2.5554,-2.6823,-2.8695,-3.1293,-3.3184,-3.5171,-3.8285,-3.947,-4.0253,-4.1648,-4.1972,0.0,0.0,0.0,0.0,0.0,0.0,0.0,0.0,0.0,0.0,0.0,0.0,0.0,0.0,0.0,0.0,0.0,0.0,0.0,0.0,0.0,0.0,-5.3853,-5.473,-5.5606,-5.6464,-5.6503,-5.6503,-5.6503,-5.6503,-5.6503,-5.6503,-5.6503,-5.6503,-5.6503,-5.6503,-5.6503,-5.6522,-5.6795,-5.7223,-5.7788,-5.8977,-5.9795,-6.038,-6.1257,-6.1607,-6.1597,-6.1602,-6.1598,-6.1603,0.0,0.0,0.0,0.0,0.0,0.0,0.0,0.0,0.0,-2.3135,0.0,0.0,0.0,0.0,-1.9693,-1.9693,-1.9693,-1.9932,-2.0466,-2.1051,-2.1602,-2.2135,-2.303,-2.3232,-2.2611,-2.2919,-2.2807,-2.2189,-2.2171,-2.3272,-2.5403,-2.5127,-2.586,-2.7328,-2.5713,-2.5782,-2.7095,-2.6949,-2.7342,-2.8351,-3.1197,-3.3146,-3.456,-3.626,-3.806,0.0,0.0,0.0,0.0,0.0,0.0,0.0,0.0,0.0,0.0,-2.5287,-2.5994,-2.7224,-2.8905,-3.1006,-3.3452,-3.6528,-3.7731,-3.8744,-4.0979,-4.1055,0.0,0.0,0.0,0.0,0.0,0.0,0.0,0.0,0.0,0.0,0.0,0.0,0.0,0.0,0.0,0.0,0.0,0.0,0.0,0.0,0.0,0.0,-5.3424,-5.4301,-5.5295,-5.6464,-5.6503,-5.6503,-5.6503,-5.6503,-5.6503,-5.6503,-5.6503,-5.6503,-5.6503,-5.6503,-5.6503,-5.6503,-5.6503,-5.6795,-5.736,-5.8217,-5.9074,-5.9951,-6.0828,-6.1333,-6.1592,-6.1607,-6.1603,-6.1639,0.0,0.0,0.0,0.0,0.0,0.0,0.0,0.0,-2.1078,-2.1078,0.0,0.0,0.0,0.0,0.0,-2.0539,-2.0503,-2.0503,-2.0503,-2.0503,-2.0503,-2.0503,-2.1327,-2.1803,-2.1766,-2.096,-2.1328,-2.296,-2.1346,-2.2208,-2.5348,-2.4557,-2.5034,-2.6465,-2.4887,-2.5245,-2.7054,-2.8102,-2.8673,-2.9235,0.0,-3.3509,-3.3379,0.0,0.0,0.0,-4.0345,-4.0441,0.0,-3.6671,0.0,0.0,0.0,0.0,0.0,-2.5478,-2.5229,-2.5554,0.0,0.0,0.0,-3.5324,-3.6394,0.0,-4.0635,0.0,0.0,0.0,0.0,0.0,0.0,0.0,0.0,0.0,0.0,0.0,0.0,0.0,0.0,0.0,0.0,0.0,0.0,0.0,0.0,0.0,0.0,-5.169,-5.2547,-5.3444,-5.471,-5.6405,-5.6483,-5.6503,-5.6503,-5.6503,-5.6503,-5.6503,-5.6503,-5.6503,-5.6503,-5.6503,-5.6503,-5.6503,-5.6503,-5.6503,-5.6561,-5.736,-5.8198,-5.9055,-5.9951,-6.0812,-6.1568,-6.1584,-6.1639,-6.1695,0.0,0.0,0.0,0.0,0.0,-2.2745,-2.2745,-2.2745,-2.2745,0.0,0.0,0.0,-2.1992,-2.1473,-2.1225,-2.142,-2.0868,-2.0503,-2.0503,-2.0503,-2.0503,-2.0503,-2.1327,-2.1492,-2.0868,-2.1235,-2.1657,-2.2116,-2.2209,-2.2996,-2.4443,-2.4223,-2.437,-2.4792,-2.4469,-2.4366,-2.4523,-2.6064,-2.793,-3.0032,-3.2191,-3.4369,0.0,0.0,0.0,0.0,0.0,-4.0629,-4.043,0.0,-3.7141,-3.5072,0.0,0.0,-2.7166,-2.6307,-2.5669,-2.544,-2.6479,0.0,0.0,0.0,0.0,0.0,0.0,0.0,0.0,0.0,0.0,0.0,0.0,0.0,0.0,0.0,0.0,0.0,0.0,0.0,0.0,0.0,0.0,0.0,0.0,0.0,0.0,0.0,0.0,-5.169,-5.2547,-5.4028,-5.5061,-5.5548,-5.6171,-5.6503,-5.6503,-5.6503,-5.6503,-5.6503,-5.6503,-5.6503,-5.6503,-5.6503,-5.6503,-5.6503,-5.6503,-5.6503,-5.6561,-5.736,-5.7847,-5.8206,-5.9716,-6.0457,-6.0734,-6.1422,-6.1679,-6.1695,0.0,0.0,-2.2927,-2.2927,-2.3017,-2.3203,-2.352,-2.3573,-2.3696,0.0,0.0,0.0,-2.3338,-2.318,-2.2848,-2.2354,-2.184,-2.1383,-2.107,-2.1051,-2.0869,-2.0505,-2.131,-2.1347,-2.049,-2.0634,-2.1037,-2.1715,-2.1826,-2.2447,-2.358,-2.3929,-2.4094,-2.4113,-2.4266,-2.3945,-2.3475,-2.5944,-2.7634,0.0,-3.2363,0.0,0.0,-3.8495,-3.9962,0.0,0.0,0.0,-4.1437,-4.0268,-3.8684,0.0,0.0,0.0,0.0,-2.7396,-2.6345,-2.5726,-2.586,-2.6517,-2.7663,-2.9822,0.0,0.0,0.0,-3.8228,0.0,0.0,0.0,0.0,0.0,0.0,0.0,0.0,0.0,0.0,0.0,0.0,0.0,0.0,0.0,0.0,0.0,0.0,0.0,0.0,-5.13,-5.169,-5.2547,-5.356,-5.4457,-5.5178,-5.5684,-5.6132,-5.6503,-5.6503,-5.6503,-5.6503,-5.6503,-5.6503,-5.6503,-5.6503,-5.6503,-5.6503,-5.6503,-5.65,-5.6542,-5.701,-5.742,-5.7829,-5.8858,-5.969,-6.0418,-6.0957,-6.1381,-6.1704,0.0,0.0,-2.2712,-2.2712,-2.2712,-2.2988,-2.3805,-2.3857,-2.4132,0.0,-2.5414,-2.5394,-2.5116,-2.5372,-2.4974,-2.3472,-2.3143,-2.274,-2.2097,-2.1804,-2.1346,-2.0653,-2.1313,-2.1333,-2.0551,-1.9822,-2.0185,-2.1607,-2.0879,-2.1298,-2.2811,-2.3579,-2.4002,-2.4113,-2.417,-2.3768,-2.334,-2.6793,-2.76,-2.7052,-3.286,-3.4942,0.0,0.0,-4.1285,-4.138,-4.1476,-4.1989,-4.2417,-4.0989,-3.9411,0.0,0.0,0.0,0.0,0.0,-2.7504,-2.6649,-2.5726,-2.5937,-2.6784,-2.8357,0.0,0.0,-3.5954,-3.668,0.0,0.0,0.0,0.0,0.0,0.0,0.0,0.0,0.0,0.0,0.0,0.0,0.0,0.0,0.0,0.0,0.0,0.0,0.0,-5.1145,-5.1242,-5.1632,-5.2411,-5.2547,-5.3307,-5.4866,-5.51,-5.5567,-5.6347,-5.6444,-5.6503,-5.6503,-5.6503,-5.6503,-5.6503,-5.6503,-5.6503,-5.6503,-5.6503,-5.6496,-5.6503,-5.6503,-5.6957,-5.7665,-5.7768,-5.8758,-6.0134,-6.0328,-6.0825,-6.1427,-2.2384,-2.2582,-2.2712,-2.2712,-2.2712,-2.3177,-2.4557,-2.4229,-2.4511,-2.6575,-2.6895,-2.6735,-2.6229,-2.6445,-2.6339,-2.5624,-2.3999,-2.3198,-2.3619,-2.1843,-2.093,-2.137,-2.1552,-2.1534,-2.137,-2.1224,-2.1297,-2.1607,-2.1389,-2.1789,-2.2736,-2.2881,-2.3435,-2.4247,-2.4113,-2.3489,-2.2768,-2.5981,-2.7346,-2.7815,-3.3092,0.0,-3.8132,-3.9107,-3.9928,-4.0635,-4.1372,-4.136,-4.0912,-4.0604,-3.9736,-3.8586,0.0,0.0,0.0,-3.147,-3.0177,-2.9264,-2.7644,-2.6803,-2.6651,-2.7682,-2.8561,0.0,-3.2172,-3.414,-3.6031,0.0,0.0,0.0,0.0,0.0,0.0,0.0,0.0,0.0,0.0,0.0,0.0,0.0,0.0,0.0,0.0,0.0,-4.9566,-5.0209,-5.0891,-5.1378,-5.1534,-5.2216,-5.2762,-5.3093,-5.4476,-5.5275,-5.545,-5.6152,-5.6503,-5.6503,-5.6503,-5.6503,-5.6503,-5.6503,-5.6503,-5.6503,-5.6503,-5.6492,-5.6508,-5.6491,-5.6606,-5.6822,-5.7538,-5.8008,-5.8473,-5.9885,-6.0065,-5.971,-2.216,-2.2453,-2.2712,-2.2712,-2.2995,-2.3781,-2.5316,-2.5557,-2.623,-2.8144,-2.8548,-2.8613,-2.8511,-2.8013,-2.7529,-2.7032,-2.5649,-2.4776,-2.4697,-2.3197,-2.2429,-2.2736,-2.2354,-2.2134,-2.2152,-2.2152,-2.177,-2.0953,-2.1315,-2.1297,-2.0934,-2.2172,-2.3749,-2.5523,-2.4598,-2.4613,-2.5442,-2.79,-2.883,-2.9026,-3.3427,0.0,-3.8457,-3.9317,-4.0177,-4.096,-4.1434,-4.1336,-4.0991,-4.0991,-4.0669,0.0,0.0,-3.7865,-3.6685,0.0,-3.1897,-3.0645,-2.8804,-2.7682,-2.7147,-2.7587,-2.8007,0.0,0.0,0.0,-3.3414,0.0,0.0,0.0,0.0,0.0,0.0,0.0,0.0,0.0,0.0,0.0,0.0,0.0,0.0,0.0,0.0,0.0,-4.8495,-4.9333,-5.019,-5.0657,-5.0657,-5.1476,-5.2158,-5.2586,-5.3444,-5.4106,-5.4554,-5.5411,-5.584,-5.586,-5.6288,-5.6503,-5.6503,-5.6503,-5.6503,-5.6511,-5.6496,-5.6504,-5.6494,-5.6507,-5.6522,-5.6599,-5.699,-5.7417,-5.7916,-5.8781,-5.9104,-5.9163,-2.1936,-2.2298,-2.2712,-2.2712,-2.3305,-2.4304,-2.5868,-2.6782,-2.7885,-2.9523,-3.0157,-3.0554,-3.0836,-2.9871,-2.9062,-2.8686,-2.782,-2.6918,-2.603,-2.5226,-2.4655,-2.4369,-2.3587,-2.3129,-2.3143,-2.2854,-2.1912,-2.03,-2.0952,-2.0518,-1.9141,-2.1462,-2.3804,-2.6061,-2.5226,-2.5873,-2.7717,-3.0039,0.0,-3.0595,0.0,-3.6646,-3.8381,-4.0119,-4.1285,-4.1953,-4.18,-4.1743,-4.1743,-4.1743,-4.1628,-4.1285,-4.0119,-3.9708,0.0,0.0,0.0,-3.2192,-2.9991,-2.879,-2.8141,-2.7969,-2.7816,-2.8236,0.0,0.0,0.0,0.0,0.0,0.0,0.0,0.0,0.0,0.0,0.0,0.0,0.0,0.0,0.0,0.0,0.0,0.0,0.0,0.0,-4.8066,-4.828,-4.9664,-5.0346,-5.0014,-5.0677,-5.1456,-5.2314,-5.2508,-5.2937,-5.3638,-5.4515,-5.4944,-5.4963,-5.5821,-5.6249,-5.6249,-5.6422,-5.6508,-5.6508,-5.6503,-5.6497,-5.6497,-5.6504,-5.6534,-5.6579,-5.6534,-5.6959,-5.7582,-5.7738,-5.8148,-5.8636,-2.2608,-2.2634,-2.2712,-2.2712,-2.3305,-2.4304,-2.5868,-2.6782,-2.8075,-3.0265,-3.1411,-3.2089,-3.2156,-3.1882,-3.1691,-3.1719,-3.0545,0.0,-2.845,-2.7666,-2.6813,-2.5991,-2.5153,-2.4737,-2.4737,-2.3415,-2.1912,-2.03,-2.0391,-1.9974,-1.9141,-2.0862,-2.2319,-2.3618,-2.556,-2.6021,-2.5559,0.0,-3.2053,0.0,-3.578,-3.8232,0.0,-4.1877,-4.3023,-4.3634,-4.2908,-4.2641,-4.2641,0.0,-4.2144,-4.159,0.0,-4.1931,-4.088,-3.8089,0.0,-3.5411,-3.2096,-3.0567,-2.9726,0.0,-2.8236,0.0,0.0,0.0,-2.8294,0.0,0.0,0.0,0.0,0.0,0.0,0.0,0.0,0.0,0.0,0.0,0.0,0.0,0.0,0.0,0.0,0.0,0.0,-4.6663,-5.0092,-5.1632,-5.0073,-5.0092,-5.056,-5.1417,-5.2197,-5.2645,-5.2742,-5.3619,-5.4048,-5.4067,-5.4924,-5.5353,-5.5372,-5.6147,-5.6497,-5.6503,-5.6501,-5.6493,-5.6497,-5.6504,-5.65,-5.6518,-5.6563,-5.6649,-5.6821,-5.7543,-5.7406,-5.6996,-2.2573,-2.2712,-2.2712,-2.2712,-2.3712,-2.4867,-2.5954,-2.7902,-2.992,-3.1731,-3.258,-3.3248,-3.3967,-3.3696,-3.359,-3.3797,0.0,-3.1389,0.0,0.0,-2.7596,-2.7598,-2.5479,-2.452,-2.499,-2.3904,-2.2347,-2.03,-2.03,-1.9648,-1.8451,-2.0082,-2.2191,-2.4652,-2.6749,-2.8464,-2.9979,0.0,-3.5078,0.0,0.0,0.0,0.0,-4.2144,-4.287,-4.3902,-4.31,-4.31,-4.3424,0.0,-4.3195,0.0,0.0,0.0,0.0,-4.0136,0.0,0.0,0.0,0.0,0.0,0.0,0.0,0.0,-2.8052,0.0,-2.7033,0.0,0.0,0.0,0.0,0.0,0.0,0.0,0.0,0.0,0.0,0.0,0.0,0.0,0.0,0.0,0.0,0.0,0.0,0.0,0.0,-5.0073,-4.9333,-4.9742,-5.0404,-5.1261,-5.1651,-5.1846,-5.1846,-5.2703,-5.3151,-5.3171,-5.4028,-5.4453,-5.4489,-5.5346,-5.5758,-5.5778,-5.6286,-5.6504,-5.6504,-5.6534,-5.6566,-5.6566,-5.6591,-5.6606,-5.6645,-5.6977,-5.6899,-5.6645,-2.2105,-2.2441,-2.2632,-2.2685,-2.3988,-2.5471,-2.6833,-2.9076,-3.1177,-3.2714,-3.349,-3.4305,-3.5401,-3.5006,-3.4845,-3.532,-3.4302,-3.3368,0.0,0.0,-2.9696,-2.9976,-2.6861,-2.5411,-2.6014,-2.436,-2.2564,-2.0626,-2.0192,-1.9485,-1.8596,-2.0027,-2.2173,-2.4912,-2.7252,-2.9776,-3.2446,0.0,-3.6955,-3.8632,-4.0827,-4.2512,-4.3596,-4.2832,-4.3157,-4.3959,-4.3615,-4.3711,-4.3959,-4.3596,-4.4131,0.0,-4.2775,0.0,-4.4191,0.0,0.0,0.0,-3.7313,0.0,0.0,0.0,0.0,0.0,0.0,0.0,0.0,0.0,0.0,0.0,0.0,0.0,0.0,0.0,0.0,0.0,0.0,0.0,0.0,0.0,0.0,0.0,0.0,0.0,0.0,0.0,0.0,0.0,-4.8144,-4.9099,-5.0053,-5.093,-5.1183,-5.13,-5.13,-5.1924,-5.2236,-5.2255,-5.3128,-5.3546,-5.3562,-5.4459,-5.4984,-5.5231,-5.5896,-5.6302,-5.6534,-5.6575,-5.6606,-5.6606,-5.6606,-5.6606,-5.6606,-5.6606,-5.6606,-5.6606,-2.1166,-2.1786,-2.246,-2.2659,-2.3988,-2.5988,-2.8937,-3.0022,0.0,0.0,0.0,0.0,0.0,0.0,0.0,0.0,0.0,-3.5467,-3.3771,0.0,-3.4235,-3.3469,-3.0231,-2.8492,0.0,-2.4744,-2.2328,-2.1459,-1.9902,-1.9503,-2.0246,-2.1079,-2.1932,-2.2955,-2.6443,-2.865,-2.9983,-3.4078,-3.6553,-3.7866,-3.9369,-4.1123,-4.3004,0.0,-4.4685,-4.4112,-4.4934,0.0,0.0,-4.4934,-4.4685,0.0,0.0,0.0,0.0,0.0,0.0,0.0,0.0,0.0,0.0,-3.6179,0.0,0.0,0.0,0.0,-2.9383,0.0,0.0,0.0,0.0,0.0,0.0,0.0,0.0,0.0,0.0,0.0,0.0,0.0,0.0,0.0,0.0,0.0,0.0,0.0,0.0,0.0,-4.6449,-4.791,-4.9216,-5.0014,-5.0852,-5.13,-5.13,-5.1339,-5.1339,-5.1359,-5.2233,-5.2645,-5.2665,-5.3611,-5.4452,-5.5214,-5.5293,-5.5825,-5.6606,-5.6606,-5.6606,-5.6606,-5.6606,-5.6606,-5.6606,-5.6606,-5.6606,-5.6606,-2.105,-2.1742,-2.2279,-2.1858,-2.3113,-2.5217,-2.82,-2.9782,0.0,0.0,0.0,0.0,0.0,-3.62,-3.5973,0.0,0.0,-3.5174,-3.4549,-3.4191,0.0,0.0,0.0,-2.9188,0.0,0.0,0.0,-2.2292,-2.1224,-2.0825,-2.1097,-2.1369,-2.164,-2.2115,-2.668,-2.9377,0.0,0.0,0.0,0.0,0.0,-4.3668,-4.5067,0.0,0.0,-4.4819,-4.4551,-4.4628,0.0,-4.5201,-4.5449,-4.5468,-4.436,-4.4671,-4.5131,-4.3492,-4.2453,0.0,0.0,0.0,-3.9475,-3.8003,0.0,0.0,0.0,0.0,0.0,0.0,0.0,0.0,0.0,0.0,0.0,0.0,0.0,0.0,0.0,0.0,0.0,0.0,0.0,0.0,0.0,0.0,0.0,0.0,0.0,0.0,0.0,-4.7306,-4.8573,-4.9956,-5.0287,-5.0716,-5.13,-5.0735,-5.0738,-5.1297,-5.1606,-5.1753,-5.1834,-5.2734,-5.3294,-5.3575,-5.417,-5.4927,-5.5747,-5.5747,-5.6079,-5.6606,-5.6606,-5.6606,-5.6606,-5.6606,-5.6606,-5.6606,-2.0578,-2.1401,-2.2095,-2.1516,-2.2959,0.0,0.0,0.0,0.0,0.0,-3.5031,0.0,-3.6389,0.0,-3.6098,0.0,-3.553,-3.5512,-3.5805,-3.4987,0.0,-3.5791,-3.282,0.0,0.0,0.0,0.0,0.0,0.0,-2.1658,-2.193,-2.193,-2.1785,-2.1676,-2.6133,-2.9145,-3.1149,-3.4771,-3.8477,0.0,0.0,-4.3692,0.0,0.0,-4.3978,0.0,0.0,-4.501,-4.5679,-4.5392,-4.5831,-4.6214,-4.4532,-4.4883,-4.5643,-4.4286,-4.3612,-4.3148,-4.2586,-4.2061,0.0,-3.9882,-3.9527,0.0,-3.7355,0.0,0.0,0.0,0.0,0.0,0.0,0.0,0.0,0.0,0.0,0.0,0.0,0.0,0.0,0.0,0.0,0.0,0.0,0.0,0.0,0.0,0.0,0.0,0.0,0.0,-4.7813,-4.9527,-4.9859,-5.0268,-5.0833,-5.0599,-5.0608,-5.0869,-5.1195,-5.1357,-5.1424,-5.1986,-5.2407,-5.2722,-5.3288,-5.4029,-5.4869,-5.5162,-5.563,-5.6177,-5.6489,-5.6606,-5.6606,-5.6606,-5.6606,-5.6606,-1.9789,-2.0777,-2.1827,0.0,-2.3547,0.0,0.0,0.0,-3.2494,0.0,-3.5207,-3.6332,-3.5692,-3.5805,-3.5659,-3.5015,-3.5656,0.0,-3.7367,-3.6618,0.0,0.0,-3.5864,-3.4006,-3.4673,0.0,0.0,0.0,0.0,0.0,-2.2763,-2.2763,-2.231,-2.164,-2.4856,0.0,-3.1054,-3.3479,-3.6763,-4.0368,-4.0368,-4.1418,-4.3061,-4.3767,0.0,-4.7665,-4.6003,-4.5927,-4.6462,-4.5679,-4.5927,-4.629,-4.4704,-4.4327,-4.435,-4.3636,-4.347,-4.351,-4.353,-4.2335,-4.1238,-4.1846,0.0,0.0,0.0,0.0,-3.8759,0.0,0.0,0.0,0.0,0.0,0.0,0.0,0.0,0.0,0.0,0.0,0.0,0.0,0.0,0.0,0.0,0.0,0.0,0.0,0.0,0.0,0.0,0.0,0.0,-4.867,-4.9527,-4.9956,-4.9995,-5.0833,-5.0881,-5.0172,-5.1001,-5.1405,-5.1404,-5.1408,-5.1843,-5.2644,-5.2644,-5.3132,-5.401,-5.4888,-5.5259,-5.5396,-5.6255,-5.6606,-5.6606,-5.6606,-5.6606,-5.6606,-1.9563,-1.9701,-2.06,0.0,-2.4309,-2.5904,0.0,0.0,0.0,0.0,-3.4795,-3.5768,-3.589,-3.5435,-3.5283,-3.5666,-3.5903,0.0,0.0,0.0,0.0,-3.7076,-3.5897,-3.4545,-3.304,-3.0893,0.0,-2.7417,0.0,0.0,-2.3524,-2.3524,-2.2799,-2.164,-2.4813,-2.7969,-3.1036,-3.3438,-3.7045,-4.1189,-4.115,-4.2906,0.0,0.0,-4.6495,-4.8621,-4.7551,-4.7302,-4.7436,-4.7226,-4.7302,-4.7398,-4.6959,-4.6933,-4.7009,-4.6814,-4.6051,-4.5267,-4.5267,-4.4578,-4.3751,-4.3272,-4.2844,-4.2338,0.0,0.0,0.0,0.0,0.0,0.0,0.0,0.0,0.0,0.0,0.0,0.0,0.0,0.0,0.0,0.0,0.0,0.0,0.0,0.0,0.0,0.0,0.0,0.0,0.0,0.0,0.0,-4.7813,-4.8651,-4.9391,-4.9995,-5.027,-5.064,-5.1079,-5.1288,-5.1403,-5.1405,-5.1398,-5.1511,-5.1726,-5.1726,-5.2234,-5.3093,-5.3971,-5.4713,-5.5396,-5.6255,-5.6606,-5.6606,-5.6606,-5.6606,-5.6606,-1.9913,-1.9852,0.0,-2.3596,0.0,0.0,-2.8115,0.0,0.0,-3.4242,-3.5208,0.0,-3.614,-3.5937,-3.583,-3.5921,-3.6297,0.0,-3.7033,0.0,0.0,-3.7624,-3.6516,-3.5599,-3.4987,-3.2746,0.0,-2.95,0.0,0.0,-2.3777,-2.3469,-2.2872,-2.2165,-2.4954,-2.7842,-3.0876,-3.4602,-3.822,-4.1378,-4.0996,0.0,0.0,-4.5096,-4.6546,-4.8476,-4.8789,-4.8678,-4.8315,-4.7933,-4.8048,-4.8296,-4.7933,-4.7891,-4.801,-4.801,-4.755,-4.6957,-4.6557,-4.5987,-4.526,-4.4384,-4.3877,-4.3565,-4.3468,-4.2708,-4.1929,0.0,0.0,0.0,0.0,0.0,0.0,0.0,0.0,0.0,0.0,0.0,0.0,0.0,0.0,0.0,0.0,0.0,0.0,0.0,0.0,0.0,0.0,0.0,0.0,-4.6917,-4.8865,-4.9761,-4.9488,-5.1004,-5.1453,-5.0832,-5.1211,-5.1398,-5.1394,-5.1394,-5.1394,-5.1394,-5.1394,-5.1687,-5.2234,-5.3483,-5.4283,-5.4869,-5.6118,-5.6606,-5.6606,-5.6606,-5.6606,-5.6606,-2.0622,-2.0815,0.0,0.0,0.0,0.0,0.0,-3.2641,0.0,-3.4931,0.0,-3.643,-3.6468,-3.6777,-3.6775,-3.6259,0.0,-3.7576,-3.8314,-3.7713,-3.7913,-3.9239,-3.7348,-3.6825,-3.7962,-3.4673,0.0,0.0,0.0,-2.595,-2.4248,-2.3397,-2.2962,-2.2962,-2.5425,0.0,0.0,-3.6731,-3.9813,0.0,-4.061,-4.1296,-4.2802,-4.4633,-4.6291,-4.7848,-4.9644,-4.9843,-4.9137,-4.8391,-4.864,-4.9117,-4.8372,-4.8215,-4.8318,-4.8318,-4.8481,-4.8468,-4.7742,-4.7057,-4.6332,-4.5455,-4.4598,-4.4111,-4.4754,-4.4715,-4.4403,-4.3877,-4.3,0.0,0.0,0.0,0.0,0.0,0.0,0.0,0.0,0.0,0.0,0.0,0.0,0.0,0.0,0.0,0.0,0.0,0.0,0.0,0.0,0.0,0.0,-4.6176,-4.9079,0.0,-4.8962,0.0,-5.2394,-5.0443,-5.1094,-5.1396,-5.1394,-5.1394,-5.1394,-5.1394,-5.1394,-5.1394,-5.1531,-5.3151,-5.3951,-5.4322,-5.5962,-5.6606,-5.6606,-5.6582,-5.6582,-5.6582,-2.1587,-2.2248,-2.3698,0.0,0.0,-3.0119,-3.1702,-3.3412,-3.4388,-3.3879,-3.5041,-3.619,-3.6823,-3.6946,-3.7229,-3.7754,-3.7935,0.0,0.0,0.0,0.0,-3.7558,-3.7729,-3.7334,-3.6331,-3.6227,-3.5525,0.0,0.0,-2.8993,-2.6747,-2.528,-2.4248,-2.3741,-2.6819,0.0,-3.5845,-3.9776,0.0,-4.0401,-4.1594,-4.2281,-4.2857,-4.5209,-4.6711,-4.7824,-4.9596,-5.0135,-4.9983,-4.9877,-4.9958,-5.0054,-4.992,-4.9885,-4.9934,-5.0085,-4.9751,-4.934,-4.9341,-4.8847,-4.8144,-4.7267,-4.6391,-4.5592,-4.5027,-4.3799,-4.3117,-4.4403,-4.341,-4.2513,-4.3227,0.0,0.0,0.0,0.0,0.0,0.0,0.0,0.0,0.0,0.0,0.0,0.0,0.0,0.0,0.0,0.0,0.0,0.0,0.0,0.0,0.0,0.0,0.0,0.0,0.0,0.0,-5.216,-5.1634,-5.1398,-5.1394,-5.1394,-5.1394,-5.1394,-5.1394,-5.1394,-5.1472,-5.2507,-5.3776,-5.5162,-5.6196,-5.6606,-5.6582,-5.6542,-5.6511,-5.6511,-2.3907,-2.5052,-2.6634,-2.9074,0.0,0.0,0.0,-3.3825,0.0,-3.4892,-3.5917,-3.6914,-3.7703,-3.7608,-3.7835,-3.8648,-3.8755,-3.8971,-3.9369,-3.9387,-3.9077,-3.8331,-3.8225,0.0,-3.6499,-3.6812,-3.62,-3.4606,0.0,-3.122,-2.9228,-2.72,-2.6711,-2.7677,-3.0607,-3.3939,0.0,0.0,0.0,-4.0734,-4.151,-4.2101,-4.2769,-4.5333,-4.6795,-4.7732,-4.9548,-5.0182,-5.0163,-5.0278,-5.0302,-5.0302,-5.0302,-5.0302,-5.0329,-5.0546,-5.0389,-5.0221,-5.0428,-4.9965,-4.9313,-4.8904,-4.8164,-4.7443,-4.7014,-4.5923,-4.4988,-4.491,-4.4228,-4.3643,-4.3604,-4.2961,0.0,0.0,0.0,0.0,0.0,0.0,0.0,0.0,0.0,0.0,0.0,0.0,0.0,0.0,0.0,0.0,0.0,0.0,0.0,0.0,0.0,0.0,0.0,0.0,0.0,-5.1972,-5.1589,-5.1394,-5.1394,-5.1394,-5.1394,-5.1394,-5.1394,-5.1394,-5.1492,-5.2839,-5.4147,-5.5396,-5.6255,-5.6577,-5.6542,-5.6511,-5.6457,-5.6405,-2.635,-2.7726,-2.9403,0.0,-3.2243,0.0,-3.3906,-3.4049,-3.4535,-3.5928,-3.671,-3.7447,-3.8267,-3.8151,-3.8292,-3.9103,-3.9264,-3.9678,-4.0438,-4.0492,-4.0221,-3.9659,-3.888,-3.8065,-3.7283,-3.725,-3.6544,0.0,0.0,0.0,0.0,-2.9246,-2.9797,0.0,0.0,0.0,0.0,0.0,-3.9953,-4.0991,-4.1711,-4.2261,-4.2962,-4.5532,-4.7011,-4.7896,-4.9581,-5.0139,-5.0133,-5.0255,-5.0302,-5.0302,-5.0302,-5.0302,-5.0352,-5.0587,-5.0731,-5.0855,-5.1086,-5.0714,-5.0287,-5.0287,-4.9664,-4.906,-4.906,-4.8105,-4.6897,-4.5689,-4.5163,-4.4695,-4.3994,-4.4442,0.0,0.0,0.0,0.0,0.0,0.0,0.0,0.0,0.0,0.0,0.0,0.0,0.0,0.0,0.0,0.0,0.0,0.0,0.0,0.0,0.0,-4.8599,-4.936,0.0,-5.1659,0.0,-5.1408,-5.1394,-5.1394,-5.1394,-5.139,-5.1406,-5.139,-5.1394,-5.1531,-5.3288,-5.4396,-5.5114,-5.6167,-5.6542,-5.6471,-5.6464,-5.6396,-5.6319,0.0,0.0,0.0,0.0,0.0,0.0,0.0,-3.4041,-3.4912,-3.5514,-3.5902,-3.6593,-3.7811,-3.7953,-3.8222,-3.9031,-3.914,-3.95,-4.0366,-4.042,-4.042,-4.0419,-3.9677,-3.8898,-3.8101,-3.8083,-3.7649,0.0,0.0,0.0,0.0,-3.1582,0.0,0.0,0.0,0.0,0.0,-4.1792,-4.1701,-4.0309,-4.3341,-4.4156,-4.3853,-4.6335,-4.7813,-4.8712,-4.9733,-5.0108,-5.0133,-5.0255,-5.0302,-5.0302,-5.0302,-5.0302,-5.0355,-5.0694,-5.079,-5.0865,-5.1181,-5.1234,-5.1183,-5.1183,-5.0521,-4.9898,-4.9898,-4.8047,-4.6507,-4.7131,-4.6001,-4.4871,-4.4793,-4.4832,-4.5611,0.0,0.0,0.0,0.0,0.0,0.0,0.0,0.0,0.0,0.0,0.0,0.0,0.0,0.0,0.0,0.0,0.0,0.0,-4.8376,0.0,-4.7955,-5.1123,-4.9824,0.0,-5.1405,-5.1408,-5.1394,-5.1394,-5.1394,-5.1401,-5.14,-5.1406,-5.1394,-5.1531,-5.3288,-5.4016,-5.4203,-5.5861,-5.6464,-5.6405,-5.6339,-5.6319,-5.6308,0.0,0.0,0.0,0.0,0.0,0.0,0.0,-3.4684,-3.5273,-3.6095,-3.687,-3.7795,-3.9082,-3.9209,-3.9532,-4.0359,-4.045,-4.0867,-4.1791,-4.1845,-4.1648,-4.1216,-4.0492,-3.9478,-3.821,-3.8192,-3.7794,0.0,0.0,0.0,0.0,0.0,0.0,0.0,0.0,-3.8962,-3.9583,-4.0721,-4.0991,-4.084,-4.2678,-4.3815,-4.4649,-4.6639,-4.7927,-4.8825,-4.9752,-5.0108,-5.0133,-5.0255,-5.0302,-5.0302,-5.0302,-5.0374,-5.0527,-5.0745,-5.0884,-5.103,-5.1248,-5.13,-5.13,-5.13,-5.1047,-5.0774,-5.0774,-4.9216,-4.7715,-4.754,-4.528,-4.3507,-4.4014,-4.413,-4.4462,0.0,0.0,0.0,0.0,0.0,0.0,0.0,0.0,0.0,0.0,0.0,0.0,0.0,0.0,0.0,0.0,0.0,0.0,-5.0196,0.0,-4.7102,-5.2129,-4.9413,-4.9156,-5.1391,-5.0875,-5.0887,-5.1394,-5.1394,-5.1401,-5.1394,-5.1405,-5.1391,-5.1528,-5.3245,-5.3916,-5.406,-5.5775,-5.6405,-5.6339,-5.6319,-5.6306,-5.629,-3.1818,0.0,-3.3694,0.0,-3.4547,-3.5152,-3.5058,-3.5424,-3.6083,-3.7199,-3.8113,-3.893,-3.974,-3.995,-4.0387,-4.1157,-4.1307,-4.1764,-4.2691,-4.2783,-4.2569,-4.2085,-4.1289,0.0,-3.8572,-3.8536,-3.8029,-3.7011,-3.8608,0.0,0.0,0.0,0.0,0.0,-3.9163,-3.9682,-4.0018,-4.0469,-4.0858,-4.1313,-4.2621,-4.4004,-4.5445,-4.6866,-4.8079,-4.9148,-4.9848,-5.0108,-5.0133,-5.0255,-5.0302,-5.0302,-5.0302,-5.0396,-5.0547,-5.0745,-5.0898,-5.1042,-5.1248,-5.13,-5.13,-5.13,-5.13,-5.13,-5.13,-4.9995,-4.8417,-4.7014,-4.4988,-4.3565,-4.3916,-4.4189,-4.4364,0.0,0.0,0.0,0.0,0.0,0.0,0.0,-4.5241,-4.4656,0.0,0.0,0.0,0.0,0.0,0.0,0.0,0.0,0.0,0.0,0.0,0.0,0.0,0.0,-4.8816,-5.0633,-5.0535,-5.0809,-5.1394,-5.1381,-5.1386,-5.1394,-5.1382,-5.1382,-5.1531,-5.3208,-5.3891,-5.4044,-5.5715,-5.6339,-5.6306,-5.6306,-5.629,-5.6291,-3.3323,-3.3634,-3.3694,-3.2873,-3.3922,-3.4899,-3.4899,-3.6141,-3.7519,-3.8719,-3.9333,-3.9579,-3.9238,-3.962,-4.0235,-4.1038,-4.1228,-4.1686,-4.2555,-4.2745,-4.2804,0.0,0.0,-4.0963,-3.9405,-3.9387,-3.859,-3.7011,0.0,0.0,-3.227,-3.2535,-3.5528,-4.0628,-3.984,-4.0137,-4.1237,-4.2033,-4.192,-4.1408,-4.3891,-4.5407,-4.6259,-4.7093,-4.842,-4.9906,-5.0057,-5.0108,-5.0133,-5.0255,-5.0302,-5.0302,-5.0302,-5.0302,-5.0355,-5.0692,-5.079,-5.0884,-5.121,-5.13,-5.13,-5.13,-5.13,-5.13,-5.13,-4.9995,-4.8066,-4.5475,-4.5572,-4.5884,-4.5046,-4.5592,-4.6176,-4.6176,0.0,0.0,0.0,0.0,0.0,0.0,-4.9664,-5.0209,-4.7676,0.0,0.0,0.0,0.0,0.0,0.0,0.0,0.0,-4.8807,-4.7108,0.0,-4.8837,-4.8818,-4.8798,-4.8857,-5.0575,-5.1394,-5.1394,-5.1336,-5.1342,-5.1394,-5.1335,-5.1342,-5.1531,-5.3208,-5.3861,-5.3963,-5.5647,-5.6294,-5.6291,-5.6291,-5.6291,-5.6291,-3.3637,-3.4157,-3.4681,-3.4899,-3.5744,-3.6406,-3.6406,-3.7235,-3.7982,-3.8387,-3.931,-3.9987,-4.0233,-4.1029,-4.1627,0.0,-4.1953,-4.2159,0.0,-4.2627,-4.2727,-4.2804,-4.2102,-4.1488,-4.0999,-3.993,-3.9152,-3.8627,0.0,0.0,0.0,-3.7824,-3.8702,-4.0337,-3.9957,-4.0318,-4.1219,-4.1484,-4.209,-4.2981,-4.3758,-4.5255,-4.7036,-4.7302,-4.8465,-4.9959,-5.0031,-5.0108,-5.0163,-5.0231,-5.0278,-5.0302,-5.0302,-5.0396,-5.0547,-5.0745,-5.0903,-5.1042,-5.1248,-5.13,-5.13,-5.13,-5.13,-5.13,-5.13,-4.9995,-4.8222,-4.6196,-4.5533,-4.5222,-4.4949,-4.4637,-4.4618,-4.5222,0.0,0.0,0.0,0.0,0.0,0.0,-4.5397,-4.5079,0.0,0.0,0.0,0.0,0.0,0.0,0.0,0.0,0.0,0.0,-4.63,0.0,-5.0535,-4.8857,-4.8564,-4.9696,-5.0243,-5.082,-5.1405,-5.1273,-5.1276,-5.1335,-5.1256,-5.1256,-5.1413,-5.2492,-5.3283,-5.3905,-5.4999,-5.5792,-5.6291,-5.6291,-5.6291,-5.6291,-3.5032,-3.5413,-3.5876,-3.629,-3.6985,-3.7481,-3.7465,-3.8093,-3.8609,-3.8609,-3.9411,-4.0103,-4.0449,-4.1401,0.0,-4.2287,-4.2346,0.0,-4.2503,-4.2588,-4.2706,-4.2802,-4.2392,-4.2013,-4.1723,0.0,0.0,-3.9804,-3.9804,-4.0109,-4.0702,-4.0565,-4.0796,-4.1316,-4.0854,-4.1222,-4.2147,-4.2147,-4.2735,-4.3739,-4.4023,-4.5464,-4.7397,-4.7397,-4.8465,-4.9978,-5.0005,-5.0082,-5.0182,-5.0188,-5.0236,-5.0302,-5.0302,-5.044,-5.0625,-5.0761,-5.0884,-5.103,-5.1248,-5.13,-5.13,-5.13,-5.13,-5.1145,-5.0502,-4.9294,-4.791,-4.6488,-4.5767,-4.5397,-4.5397,-4.4949,-4.4656,-4.4851,0.0,-4.4247,-4.4676,0.0,0.0,0.0,0.0,0.0,0.0,-4.5059,0.0,0.0,0.0,0.0,0.0,0.0,0.0,-4.8606,-4.5763,0.0,-4.993,-4.8681,-4.874,-5.0106,-5.043,-5.0854,-5.1316,-5.1239,-5.123,-5.1256,-5.122,-5.123,-5.1334,-5.2154,-5.301,-5.3833,-5.4672,-5.534,-5.5845,-5.6175,-5.5883,-5.5359,-3.7168,-3.7185,0.0,0.0,-3.7727,0.0,-3.8121,-3.8788,-3.9272,-3.9272,-3.9679,-3.9952,-4.0003,-4.0861,-4.1666,-4.2187,0.0,0.0,0.0,-4.2685,-4.2783,-4.2783,-4.2862,0.0,-4.1814,-4.1741,-4.1325,-4.051,-4.051,-4.0668,-4.0954,-4.102,-4.1755,-4.3061,-4.228,-4.2586,-4.3701,-4.3701,-4.3739,-4.3853,-4.4668,-4.5956,-4.7397,-4.7472,-4.8496,-4.9906,-4.9978,-5.0057,-5.0133,-5.0163,-5.0236,-5.0302,-5.0302,-5.044,-5.0625,-5.0761,-5.0805,-5.0898,-5.121,-5.13,-5.13,-5.13,-5.1242,-5.0794,-4.9177,-4.8125,-4.7248,-4.6371,-4.6196,-4.6196,-4.6196,-4.6196,-4.5923,-4.5124,-4.4929,-4.4325,-4.2708,0.0,0.0,0.0,0.0,0.0,0.0,-4.7178,-4.6258,0.0,0.0,0.0,0.0,0.0,-4.7946,-4.6261,-4.548,-4.5909,-4.7584,-4.8463,-4.9321,-5.0196,-5.099,-5.1316,-5.1211,-5.1201,-5.1201,-5.1211,-5.1201,-5.1201,-5.1269,-5.2086,-5.2891,-5.3689,-5.4504,-5.4854,-5.5009,-5.5825,-5.5087,-5.3824,0.0,0.0,-3.8129,-3.8659,-3.8907,-3.9023,-3.9023,-3.9172,-3.9272,-3.9272,-3.9415,-3.9592,-3.9952,-4.0594,-4.1157,-4.1666,-4.2103,-4.2346,-4.2346,-4.2486,-4.2606,-4.2649,-4.2765,-4.2752,-4.2611,-4.2013,-4.1325,-4.051,-4.051,-4.0545,-4.0633,-4.113,-4.1579,-4.1893,-4.2184,-4.2796,-4.3701,-4.3701,-4.4042,-4.4687,-4.5539,-4.6506,-4.7472,-4.8136,-4.9086,-5.0057,-5.0005,-5.0108,-5.0255,-5.0212,-5.0236,-5.0302,-5.0302,-5.044,-5.0625,-5.0761,-5.0918,-5.1074,-5.1248,-5.13,-5.13,-5.13,-5.0794,-5.0034,-4.9021,-4.8125,-4.7248,-4.6371,-4.6196,-4.6196,-4.6196,-4.6196,-4.6137,-4.5923,-4.5319,-4.4754,-4.4345,-4.3897,0.0,0.0,-4.3857,-4.3875,-4.454,-4.3941,-4.4373,0.0,0.0,0.0,0.0,-4.8343,-4.7708,-4.5382,-4.5753,-4.6487,-4.7518,-4.9025,-5.0204,-5.1011,-5.1167,-5.123,-5.1211,-5.1208,-5.1208,-5.1211,-5.1197,-5.1208,-5.123,-5.1411,-5.1972,-5.2737,-5.2931,-5.3417,-5.4019,-5.4232,-5.4038,-5.3727,-3.8504,-3.8586,-3.8649,-3.8936,-3.904,-3.904,-3.9002,-3.904,-3.9094,-3.9148,-3.9148,-3.9292,-3.9644,-4.012,-4.0642,-4.1111,-4.1874,-4.2287,-4.2287,-4.2445,-4.2526,-4.2609,-4.2745,-4.2842,-4.29,-4.2466,-4.2031,-4.1596,-4.1596,-4.1596,-4.1596,-4.2136,-4.2458,-4.2612,-4.3096,-4.3655,-4.4251,-4.4251,-4.4497,-4.4933,-4.5426,-4.6341,-4.7505,-4.7979,-4.8941,-5.007,-4.9638,-4.9809,-5.0197,-4.9792,-5.0,-5.044,-5.044,-5.0625,-5.0848,-5.0918,-5.1005,-5.1128,-5.1256,-5.13,-5.13,-5.13,-5.0073,-4.8845,-4.8806,-4.7813,-4.6761,-4.6293,-4.6196,-4.6196,-4.6196,-4.6196,-4.6196,-4.6196,-4.5806,-4.5365,-4.4962,-4.4488,0.0,-4.3699,-4.3577,-4.3734,-4.421,-4.4179,-4.4898,-4.6768,0.0,0.0,-4.7626,-4.7665,-4.7025,-4.5636,-4.6405,-4.725,-4.8092,-4.9796,-5.0848,-5.1248,-5.122,-5.1201,-5.1208,-5.1194,-5.1194,-5.1208,-5.1194,-5.1194,-5.1208,-5.1194,-5.1668,-5.2407,-5.2407,-5.2698,-5.3145,-5.3553,-5.3222,-5.2601,-3.9023,-3.8969,-3.8914,-3.8672,-3.8711,-3.875,-3.8672,-3.8711,-3.886,-3.8969,-3.9023,-3.9094,-3.9272,-3.9731,-4.0203,-4.0754,-4.164,-4.2187,-4.2287,-4.2405,-4.2526,-4.2609,-4.2706,-4.2804,-4.29,-4.2882,-4.2882,-4.2882,-4.2882,-4.292,-4.2938,-4.3301,-4.3623,-4.3962,-4.4299,-4.4636,-4.4895,-4.4895,-4.4895,-4.4914,-4.5047,-4.6063,-4.7517,-4.765,-4.8707,-5.0012,-4.9352,-4.9567,-5.0116,-4.9453,-4.9865,-5.0587,-5.0625,-5.0848,-5.1105,-5.1105,-5.1117,-5.115,-5.1276,-5.1203,-5.1106,-5.1106,-4.9294,-4.7696,-4.8436,-4.7365,-4.6196,-4.6196,-4.6196,-4.6196,-4.6196,-4.6196,-4.6371,-4.6904,-4.6651,-4.6229,-4.576,0.0,-4.476,-4.3812,-4.4309,-4.4777,-4.4898,-4.5624,-4.6112,-4.6212,-4.6261,0.0,0.0,-4.6296,-4.6355,-4.6472,-4.727,-4.8164,-4.9153,-5.0579,-5.1258,-5.1201,-5.1201,-5.1189,-5.1202,-5.1202,-5.1202,-5.1202,-5.1202,-5.1202,-5.1202,-5.1202,-5.161,-5.2212,-5.2212,-5.2212,-5.2309,-5.3048,-5.2426,-5.1299,-3.886,-3.886,-3.8805,-3.875,-3.8805,-3.8805,-3.875,-3.8805,-3.886,-3.8969,-3.9023,-3.9094,-3.9272,-3.9731,-4.0203,-4.0754,-4.1311,-4.1813,-4.2287,-4.2328,-4.2409,-4.2609,-4.2609,-4.2727,-4.29,-4.2882,-4.2882,-4.2882,-4.2882,-4.2938,-4.3086,-4.3594,-4.3899,-4.4091,-4.4602,-4.4846,-4.4895,-4.4895,-4.4895,-4.4971,-4.5765,-4.6662,-4.7574,-4.8365,-4.9314,-5.0188,-5.0054,-5.0116,-5.0287,-5.0331,-5.0451,-5.0625,-5.0728,-5.0918,-5.1105,-5.1105,-5.1171,-5.1265,-5.1292,-5.0755,-5.0209,-5.0209,-4.8845,-4.754,-4.7676,-4.6917,-4.6196,-4.6196,-4.6196,-4.6196,-4.6196,-4.6196,-4.7157,-5.0102,-4.8737,-4.7768,-4.9093,0.0,-4.5426,-4.388,-4.3802,-4.4181,-4.4917,-4.5077,-4.5436,-4.6229,-4.6249,-4.624,-4.63,-4.6245,-4.6543,-4.7279,-4.8156,-4.9315,-5.0801,-5.1083,-5.1206,-5.1194,-5.1194,-5.1194,-5.1202,-5.1202,-5.1202,-5.1202,-5.1202,-5.1202,-5.1202,-5.1202,-5.128,-5.1396,-5.1396,-5.1396,-5.1396,-5.1532,-5.1416,-5.1222,-3.8711,-3.8711,-3.8655,-3.86,-3.86,-3.86,-3.86,-3.86,-3.8655,-3.8766,-3.8766,-3.8876,-3.9094,-3.9329,-3.9817,-4.0707,-4.0737,-4.1139,-4.2228,-4.2287,-4.2409,-4.2609,-4.2609,-4.267,-4.29,-4.2882,-4.2882,-4.2882,-4.2882,-4.2938,-4.2994,-4.3656,-4.4004,-4.4084,-4.4681,-4.4943,-4.4943,-4.4938,-4.4919,-4.4981,-4.5447,-4.6159,-4.7044,-4.7929,-4.8529,-4.8976,-4.9434,-4.9629,-4.9675,-4.9767,-5.0183,-5.0731,-5.0774,-5.0985,-5.1211,-5.1211,-5.1248,-5.1203,-5.0735,-4.9995,-4.9352,-4.9352,-4.8066,-4.6917,-4.7384,-4.6819,-4.6196,-4.6196,-4.6203,-4.619,-4.619,-4.6203,-4.6872,-4.8964,-4.7891,0.0,0.0,-4.7265,-4.5924,-4.5199,-4.5098,-4.5242,-4.5618,-4.5623,-4.5785,-4.6212,-4.6216,-4.622,-4.6245,-4.6245,-4.6416,-4.6791,-4.849,-4.9973,-5.1189,-5.1194,-5.1202,-5.1202,-5.1202,-5.1202,-5.1202,-5.1202,-5.1202,-5.1202,-5.1202,-5.1202,-5.1202,-5.1202,-5.1202,-5.1202,-5.1202,-5.1202,-5.1202,-5.1202,-5.1202,-5.1202,-3.8432,-3.8504,-3.8504,-3.8391,-3.8391,-3.8391,-3.8391,-3.8391,-3.8464,-3.856,-3.8616,-3.8727,-3.8969,-3.9023,-3.947,-4.0707,-4.04,-4.0767,-4.2187,-4.2287,-4.2409,-4.2609,-4.2631,-4.2747,-4.29,-4.2882,-4.2882,-4.2882,-4.2882,-4.2957,-4.3087,-4.3703,-4.4076,-4.4213,-4.4758,-4.4991,-4.501,-4.4962,-4.4943,-4.4991,-4.5014,-4.5616,-4.6584,-4.7426,-4.7754,-4.7952,-4.9003,-4.9251,-4.914,-4.9357,-5.0029,-5.0723,-5.0608,-5.088,-5.1217,-5.1039,-5.1008,-5.0852,-5.019,-4.941,-4.8748,-4.8553,-4.7345,-4.6371,-4.7053,-4.6683,-4.6196,-4.6203,-4.6196,-4.6203,-4.6209,-4.6201,-4.6616,-4.7908,0.0,0.0,0.0,-4.6728,-4.5928,-4.5987,-4.6,-4.6069,-4.6208,-4.621,-4.6202,-4.6222,-4.6401,-4.6411,-4.6216,-4.644,-4.6523,-4.6469,-4.8513,-5.013,-5.1183,-5.1202,-5.1202,-5.1202,-5.1202,-5.1202,-5.1202,-5.1202,-5.1202,-5.1202,-5.1202,-5.1202,-5.1202,-5.1202,-5.1202,-5.1202,-5.1202,-5.1202,-5.1202,-5.1202,-5.1202,-5.1202,-3.8001,-3.8205,-3.8391,-3.8391,-3.8391,-3.8391,-3.8391,-3.8391,-3.8464,-3.856,-3.8616,-3.8727,-3.8969,-3.9023,-3.947,-4.0707,-4.0754,-4.1174,-4.2228,-4.2287,-4.2409,-4.2609,-4.2786,-4.2882,-4.2882,-4.2882,-4.2882,-4.2882,-4.2882,-4.316,-4.366,-4.3893,-4.427,-4.4745,-4.4919,-4.4991,-4.4991,-4.4991,-4.501,-4.4991,-4.5148,-4.5707,-4.6584,-4.7471,-4.7796,-4.8009,-4.9633,-4.9729,-4.9239,-5.018,-5.0548,-5.0527,-5.0034,-5.0445,-5.0984,-5.0302,-5.0092,-5.0073,-5.0014,-4.941,-4.8612,-4.7793,-4.6897,-4.6215,-4.6274,-4.6254,-4.6203,-4.6196,-4.6203,-4.6209,-4.6201,-4.6206,-4.7011,-4.9499,0.0,0.0,-4.8482,-4.6628,-4.5086,-4.5109,-4.5109,-4.5402,-4.6206,-4.6247,-4.623,-4.6286,-4.6983,-4.7057,-4.6241,-4.6916,-4.7295,-4.7222,-4.8254,-4.9566,-5.1183,-5.1202,-5.1202,-5.1202,-5.1202,-5.1202,-5.1202,-5.1202,-5.1202,-5.1202,-5.1202,-5.1202,-5.1202,-5.1202,-5.1202,-5.1202,-5.1202,-5.1202,-5.1202,-5.1202,-5.1202,-5.1202,-3.7828,-3.8001,-3.8148,-3.8335,-3.8391,-3.8391,-3.8391,-3.8391,-3.8391,-3.8464,-3.8576,-3.8672,-3.886,-3.8969,-3.9365,-4.0252,-4.0302,-4.072,-4.1753,-4.1899,-4.2127,-4.257,-4.2786,-4.2882,-4.2882,-4.2882,-4.2882,-4.2882,-4.2882,-4.3142,-4.3572,-4.3906,-4.4308,-4.4739,-4.5014,-4.5125,-4.5125,-4.508,-4.5103,-4.5125,-4.517,-4.5423,-4.5848,-4.6669,-4.6691,-4.6462,-4.8162,-4.822,-4.7707,-4.9171,-4.9392,-4.9123,-4.949,-4.955,-4.9469,-4.9305,-4.9262,-4.9138,-4.8592,-4.8222,-4.7774,-4.6917,-4.6429,-4.6203,-4.619,-4.6196,-4.6203,-4.6195,-4.5796,-4.545,-4.5455,-4.5016,-4.5156,-4.6683,0.0,-4.5281,-4.7002,-4.5948,-4.5207,-4.5734,-4.5812,-4.5948,-4.6261,-4.6246,-4.621,-4.6247,-4.6521,-4.6524,-4.6156,-4.6424,-4.6822,-4.7349,-4.766,-4.866,-5.0386,-5.093,-5.1202,-5.1202,-5.1202,-5.1202,-5.1183,-5.0639,-5.0386,-5.0386,-5.0386,-5.0095,-4.9668,-5.0755,-5.0872,-5.0445,-5.0989,-5.0872,-5.0386,-5.0386,-5.0386,-5.0386,-3.7669,-3.7828,-3.8017,-3.8335,-3.8391,-3.8391,-3.8391,-3.8391,-3.8391,-3.8391,-3.8448,-3.8616,-3.8805,-3.886,-3.9312,-4.0153,-4.0252,-4.0672,-4.1666,-4.1856,-4.2169,-4.2649,-4.2786,-4.2862,-4.2882,-4.2882,-4.2882,-4.2882,-4.2882,-4.3142,-4.359,-4.3862,-4.4223,-4.4624,-4.4948,-4.5061,-4.508,-4.5125,-4.5148,-4.5192,-4.5213,-4.5275,-4.5392,-4.6194,-4.6003,-4.5507,-4.7207,-4.7245,-4.6729,-4.82,-4.8386,-4.8087,-4.8519,-4.8399,-4.8195,-4.8658,-4.8607,-4.8261,-4.7657,-4.7306,-4.6956,-4.6352,-4.6203,-4.6209,-4.6203,-4.6209,-4.6215,-4.6231,-4.5792,-4.5406,-4.541,-4.493,-4.4621,-4.4953,-4.4504,-4.4524,-4.5714,-4.5148,-4.5012,-4.6163,-4.6066,-4.6007,-4.6261,-4.6514,-4.6539,-4.6243,-4.6719,-4.6861,-4.6523,-4.6254,-4.6355,-4.6941,-4.7183,-4.7881,-4.9066,-4.9959,-5.0658,-5.1202,-5.0911,-5.095,-5.1163,-5.0289,-4.9901,-4.9881,-4.9609,-4.9143,-4.8696,-4.9881,-5.0037,-4.9551,-5.0153,-5.0017,-4.9493,-4.9493,-4.9493,-4.9532,-3.7358,-3.7653,-3.8001,-3.8335,-3.8391,-3.8391,-3.8391,-3.8391,-3.8391,-3.8391,-3.8391,-3.8504,-3.875,-3.8805,-3.9348,-4.0707,-4.0802,-4.122,-4.2246,-4.2405,-4.2584,-4.2783,-4.2783,-4.2842,-4.29,-4.2882,-4.2882,-4.2882,-4.2882,-4.3196,-4.3693,-4.3693,-4.3943,-4.443,-4.4674,-4.4796,-4.484,-4.5103,-4.5192,-4.5192,-4.5275,-4.5297,-4.5392,-4.6194,-4.5984,-4.5507,-4.7169,-4.7207,-4.6596,-4.7494,-4.778,-4.7652,-4.6973,-4.6965,-4.7368,-4.8456,-4.8158,-4.7462,-4.7462,-4.6839,-4.6176,-4.6196,-4.619,-4.6183,-4.6183,-4.6176,-4.6192,-4.6264,-4.6264,-4.6269,-4.628,-4.6261,-4.5987,-4.5109,-4.4972,-4.4972,-4.4992,-4.4231,-4.4348,-4.6085,-4.5539,-4.5343,-4.6222,-4.71,-4.7237,-4.6378,-4.7847,-4.8369,-4.743,-4.6566,-4.606,-4.6007,-4.6832,-4.7298,-4.7298,-4.8153,-4.9473,-5.1163,-5.0289,-5.0328,-5.1144,-5.027,-4.9881,-4.9823,-4.8968,-4.858,-4.858,-4.858,-4.8599,-4.858,-4.8599,-4.8599,-4.858,-4.858,-4.858,-4.8716,-3.7298,-3.7476,-3.7711,-3.8278,-3.8391,-3.8391,-3.8391,-3.8391,-3.8391,-3.8391,-3.8544,-3.8694,-3.8805,-3.904,-3.9435,-4.0153,-4.0252,-4.0689,-4.1666,-4.2205,-4.2526,-4.2649,-4.2745,-4.2842,-4.29,-4.2882,-4.2882,-4.2882,-4.2994,-4.3268,-4.3693,-4.3758,-4.3992,-4.4411,-4.4669,-4.4814,-4.4814,-4.5129,-4.5275,-4.5275,-4.5297,-4.5297,-4.5316,-4.5564,-4.5125,-4.4456,-4.4953,-4.4609,-4.4036,-4.4917,-4.4804,-4.4288,-4.4332,-4.452,-4.48,-4.5136,-4.5,-4.4767,-4.4754,-4.4566,-4.452,-4.5144,-4.528,-4.5136,-4.4573,-4.4441,-4.445,-4.4477,-4.3993,-4.3564,-4.3567,-4.306,-4.2572,-4.2318,-4.2259,-4.2689,-4.3918,-4.3333,-4.343,-4.5187,-4.5168,-4.5343,-4.6222,-4.71,-4.7467,-4.7166,-4.6992,-4.68,-4.6577,-4.6212,-4.6018,-4.5997,-4.6249,-4.6676,-4.7298,-4.8153,-4.8852,-4.9376,-4.9104,-4.9124,-4.9357,-4.8463,-4.8075,-4.8055,-4.7803,-4.7337,-4.6871,-4.8094,-4.825,-4.7745,-4.8366,-4.823,-4.7686,-4.7686,-4.7686,-4.7725,-3.7134,-3.7314,-3.7594,-3.8091,-3.8335,-3.8391,-3.8391,-3.8391,-3.8391,-3.8391,-3.8544,-3.8655,-3.8711,-3.8892,-3.9329,-4.0153,-4.0672,-4.1185,-4.177,-4.2264,-4.2526,-4.2609,-4.2745,-4.2842,-4.29,-4.2882,-4.2882,-4.2882,-4.3049,-4.3251,-4.3511,-4.3579,-4.3809,-4.4053,-4.4355,-4.4546,-4.465,-4.4976,-4.4982,-4.4781,-4.4781,-4.459,-4.4303,-4.4303,-4.3978,-4.3539,-4.3539,-4.3214,-4.287,-4.3407,-4.3273,-4.2953,-4.3261,-4.3475,-4.3598,-4.369,-4.3646,-4.361,-4.3623,-4.3623,-4.3649,-4.3855,-4.4172,-4.4295,-4.3802,-4.3693,-4.3697,-4.3704,-4.3274,-4.2903,-4.2903,-4.2767,-4.2533,-4.2181,-4.2415,-4.3001,-4.4075,-4.3469,-4.343,-4.4836,-4.4699,-4.4699,-4.5226,-4.6671,-4.7725,-4.7998,-4.6872,-4.6187,-4.6195,-4.6118,-4.6044,-4.6007,-4.5997,-4.6249,-4.6773,-4.7317,-4.792,-4.8599,-4.825,-4.8269,-4.8561,-4.7706,-4.7298,-4.7279,-4.6948,-4.6482,-4.6074,-4.7143,-4.7259,-4.6832,-4.7376,-4.724,-4.6793,-4.6793,-4.6793,-4.6832,-3.6938,-3.721,-3.7476,-3.7828,-3.8148,-3.8391,-3.8408,-3.8391,-3.8391,-3.8391,-3.8391,-3.8448,-3.8576,-3.8616,-3.9115,-4.0431,-4.1578,-4.2228,-4.2228,-4.2405,-4.2526,-4.2609,-4.2745,-4.2842,-4.29,-4.2882,-4.2882,-4.2882,-4.3049,-4.3123,-4.3196,-4.334,-4.3446,-4.3513,-4.3846,-4.4114,-4.4298,-4.4581,-4.4391,-4.3902,-4.3902,-4.3443,-4.2794,-4.2794,-4.2756,-4.2679,-4.2679,-4.2641,-4.2584,-4.2604,-4.2693,-4.2869,-4.3179,-4.323,-4.3226,-4.3417,-4.3417,-4.3382,-4.3451,-4.3426,-4.3206,-4.247,-4.2889,-4.3494,-4.3572,-4.3521,-4.3489,-4.3567,-4.3587,-4.3587,-4.3587,-4.4231,-4.4504,-4.3704,-4.4172,-4.468,-4.4758,-4.4075,-4.3918,-4.4777,-4.425,-4.384,-4.3918,-4.6163,-4.7907,-4.8643,-4.7193,-4.6269,-4.6197,-4.6186,-4.6125,-4.6007,-4.5997,-4.5997,-4.5997,-4.5997,-4.6793,-4.8366,-4.757,-4.7609,-4.8347,-4.755,-4.7181,-4.7143,-4.6346,-4.5997,-4.5997,-4.5997,-4.5997,-4.5997,-4.5997,-4.5997,-4.5997,-4.5997,-4.5997,-4.6113,-3.6938,-3.706,-3.727,-3.7828,-3.7943,-3.8075,-3.8335,-3.8391,-3.8391,-3.8391,-3.8504,-3.8576,-3.8616,-3.8711,-3.9098,-3.9885,-4.1047,-4.1666,-4.1666,-4.2205,-4.2526,-4.2609,-4.2745,-4.2842,-4.29,-4.2882,-4.2882,-4.2882,-4.3105,-4.3178,-4.3196,-4.3393,-4.3497,-4.3513,-4.3846,-4.3748,-4.3407,-4.3712,-4.3555,-4.3061,-4.3061,-4.2947,-4.2795,-4.2794,-4.2412,-4.1858,-4.1801,-4.138,-4.0864,-4.0957,-4.1183,-4.1455,-4.1519,-4.1563,-4.1616,-4.1659,-4.1655,-4.1651,-4.1661,-4.1647,-4.1593,-4.1425,-4.153,-4.1846,-4.2529,-4.2142,-4.1849,-4.2533,-4.2689,-4.2689,-4.2689,-4.2845,-4.2903,-4.2708,-4.2279,-4.2181,-4.2864,-4.2806,-4.3001,-4.3879,-4.4426,-4.4992,-4.5675,-4.6866,-4.7666,-4.7845,-4.6836,-4.6215,-4.6199,-4.6098,-4.6027,-4.5997,-4.5997,-4.5997,-4.5997,-4.5997,-4.6191,-4.656,-4.6366,-4.6385,-4.656,-4.6366,-4.6268,-4.6268,-4.6074,-4.5997,-4.5997,-4.5997,-4.5997,-4.5997,-4.5997,-4.5997,-4.5997,-4.5997,-4.5997,-4.6113,-3.6754,-3.6877,-3.7165,-3.7594,-3.777,-3.8001,-3.8335,-3.8391,-3.8391,-3.8391,-3.8448,-3.8504,-3.8504,-3.856,-3.8898,-3.9645,-4.0797,-4.1472,-4.1472,-4.2121,-4.2526,-4.2609,-4.2745,-4.2842,-4.29,-4.2882,-4.2882,-4.2882,-4.3087,-4.3214,-4.3196,-4.3428,-4.3497,-4.3513,-4.3277,-4.3181,-4.3079,-4.2888,-4.2572,-4.2221,-4.2202,-4.1973,-4.1646,-4.1609,-4.1342,-4.0978,-4.0941,-4.0691,-4.0411,-4.0538,-4.0752,-4.0954,-4.1022,-4.1074,-4.1108,-4.1104,-4.1097,-4.1094,-4.1094,-4.1094,-4.1094,-4.1101,-4.1104,-4.1225,-4.1674,-4.1752,-4.1849,-4.2318,-4.2728,-4.3021,-4.3021,-4.3352,-4.3509,-4.3099,-4.2982,-4.2825,-4.2454,-4.2396,-4.2572,-4.3021,-4.3489,-4.427,-4.5558,-4.5343,-4.5636,-4.6885,-4.6148,-4.5798,-4.6186,-4.6137,-4.608,-4.6007,-4.5997,-4.5997,-4.5997,-4.5997,-4.5997,-4.5997,-4.5997,-4.5997,-4.5997,-4.5997,-4.5997,-4.5997,-4.5997,-4.5997,-4.5997,-4.5997,-4.5997,-4.5997,-4.5997,-4.5997,-4.5997,-4.5997,-4.5997,-4.6074,-3.6492,-3.6739,-3.6984,-3.7254,-3.7535,-3.7902,-3.8278,-3.8335,-3.8335,-3.8391,-3.8391,-3.8391,-3.8391,-3.8448,-3.875,-3.9558,-4.0625,-4.1293,-4.1383,-4.1977,-4.2387,-4.2432,-4.2649,-4.2804,-4.29,-4.2882,-4.2882,-4.2882,-4.3087,-4.3214,-4.3196,-4.3281,-4.3277,-4.324,-4.25,-4.2372,-4.2648,-4.2025,-4.1613,-4.1379,-4.1323,-4.0939,-4.0415,-4.0328,-4.0309,-4.0326,-4.031,-4.0413,-4.054,-4.0665,-4.08,-4.0942,-4.1055,-4.1108,-4.1108,-4.1108,-4.1104,-4.1097,-4.1108,-4.1104,-4.1097,-4.1108,-4.1108,-4.1108,-4.1108,-4.1654,-4.2259,-4.2552,-4.3196,-4.3743,-4.3899,-4.4504,-4.4758,-4.4036,-4.4406,-4.427,-4.2825,-4.2747,-4.2845,-4.2845,-4.2845,-4.3352,-4.466,-4.3469,-4.3587,-4.589,-4.5392,-4.5331,-4.6167,-4.6191,-4.6118,-4.6007,-4.5997,-4.5997,-4.5997,-4.5997,-4.5997,-4.5997,-4.5997,-4.5997,-4.5997,-4.5997,-4.5997,-4.5997,-4.5997,-4.5997,-4.5997,-4.5997,-4.5997,-4.5997,-4.5997,-4.5997,-4.5997,-4.5997,-4.5997,-4.5997,-3.6492,-3.6554,-3.6677,-3.6999,-3.7121,-3.7285,-3.7886,-3.7943,-3.8075,-3.8335,-3.8391,-3.8391,-3.8391,-3.86,-3.9007,-3.9558,-3.9952,-4.04,-4.0832,-4.1356,-4.1709,-4.1796,-4.2333,-4.2688,-4.2822,-4.2862,-4.2882,-4.2882,-4.3087,-4.3214,-4.3196,-4.2679,-4.2451,-4.2433,-4.1859,-4.138,-4.1016,-4.117,-4.091,-4.0479,-4.0479,-4.0475,-4.0466,-4.0344,-4.0344,-4.0381,-4.031,-4.0469,-4.0676,-4.0679,-4.0867,-4.1078,-4.1088,-4.1108,-4.1108,-4.1108,-4.1108,-4.1108,-4.1108,-4.1108,-4.1108,-4.1108,-4.1108,-4.1108,-4.1108,-4.1186,-4.1693,-4.3216,-4.3626,-4.3938,-4.4699,-4.4914,-4.4953,-4.4836,-4.4289,-4.3782,-4.3567,-4.4172,-4.466,-4.466,-4.466,-4.4445,-4.3938,-4.3665,-4.3977,-4.509,-4.5019,-4.5291,-4.6144,-4.6091,-4.6008,-4.5997,-4.5997,-4.5997,-4.5997,-4.5997,-4.5997,-4.5997,-4.5997,-4.5997,-4.5997,-4.5997,-4.5997,-4.5997,-4.5997,-4.5997,-4.5997,-4.5997,-4.5997,-4.5997,-4.5997,-4.5997,-4.5997,-4.5997,-4.5997,-4.5997,-3.6492,-3.6289,-3.6289,-3.6877,-3.6739,-3.6831,-3.777,-3.7886,-3.8017,-3.8335,-3.8391,-3.8391,-3.8391,-3.8544,-3.886,-3.9206,-3.9645,-4.0036,-4.0351,-4.0832,-4.1139,-4.1258,-4.1864,-4.2234,-4.2338,-4.2711,-4.272,-4.2322,-4.2923,-4.3032,-4.2629,-4.2402,-4.2147,-4.181,-4.113,-4.0848,-4.0901,-4.0564,-4.0363,-4.0307,-4.0307,-4.0379,-4.0502,-4.0379,-4.0396,-4.0449,-4.0422,-4.059,-4.0801,-4.0809,-4.0942,-4.1094,-4.1104,-4.1108,-4.1108,-4.1108,-4.1108,-4.1108,-4.1108,-4.1108,-4.1108,-4.1108,-4.1108,-4.1108,-4.1108,-4.1108,-4.1596,-4.3333,-4.4094,-4.4699,-4.5578,-4.5734,-4.5734,-4.5734,-4.5402,-4.4972,-4.4484,-4.4348,-4.4094,-4.3606,-4.3548,-4.3391,-4.3001,-4.2533,-4.2611,-4.3489,-4.3945,-4.4557,-4.5441,-4.5832,-4.6036,-4.6007,-4.5997,-4.5997,-4.5997,-4.5997,-4.5997,-4.5997,-4.5997,-4.5997,-4.5997,-4.5997,-4.5997,-4.5997,-4.5997,-4.5997,-4.5997,-4.5997,-4.5997,-4.5997,-4.5997,-4.5997,-4.5997,-4.5997,-4.5997,-4.5997]}]]